<?xml version="1.0" encoding="UTF-8" standalone="no" ?>
<gpx xmlns="http://www.topografix.com/GPX/1/1" xmlns:xsi="http://www.w3.org/2001/XMLSchema-instance" xsi:schemaLocation="http://www.topografix.com/GPX/1/1 http://www.topografix.com/GPX/1/1/gpx.xsd" version="1.1" creator="VisuGPX - https://www.visugpx.com">
  <metadata>
    <name>Cime de la Jasse</name>
    <desc><![CDATA[
]]></desc>
  </metadata>
  <trk>
    <name><![CDATA[Cime de la Jasse_1]]></name>
    <extensions>
      <line xmlns="http://www.topografix.com/GPX/gpx_style/0/2">
        <color>0000FF</color>
        <width>4</width>
      </line>
    </extensions>
    <trkseg>
      <trkpt lat="45.24346" lon="5.97973">
        <ele>1086.4460449219</ele>
        <time>2017-12-06T07:41:14Z</time>
      </trkpt>
      <trkpt lat="45.2435" lon="5.97969">
        <ele>1080.4460449219</ele>
        <time>2017-12-06T07:41:29Z</time>
      </trkpt>
      <trkpt lat="45.24346" lon="5.97973">
        <ele>1084.4460449219</ele>
        <time>2017-12-06T07:42:04Z</time>
      </trkpt>
      <trkpt lat="45.24341" lon="5.97974">
        <ele>1086.4460449219</ele>
        <time>2017-12-06T07:42:07Z</time>
      </trkpt>
      <trkpt lat="45.24336" lon="5.97975">
        <ele>1087.4460449219</ele>
        <time>2017-12-06T07:42:10Z</time>
      </trkpt>
      <trkpt lat="45.24331" lon="5.97977">
        <ele>1086.4460449219</ele>
        <time>2017-12-06T07:42:14Z</time>
      </trkpt>
      <trkpt lat="45.24326" lon="5.97981">
        <ele>1085.4460449219</ele>
        <time>2017-12-06T07:42:18Z</time>
      </trkpt>
      <trkpt lat="45.2432" lon="5.97984">
        <ele>1086.4460449219</ele>
        <time>2017-12-06T07:42:22Z</time>
      </trkpt>
      <trkpt lat="45.24315" lon="5.97987">
        <ele>1085.4460449219</ele>
        <time>2017-12-06T07:42:26Z</time>
      </trkpt>
      <trkpt lat="45.2431" lon="5.9799">
        <ele>1087.4460449219</ele>
        <time>2017-12-06T07:42:29Z</time>
      </trkpt>
      <trkpt lat="45.24305" lon="5.97993">
        <ele>1087.4460449219</ele>
        <time>2017-12-06T07:42:33Z</time>
      </trkpt>
      <trkpt lat="45.243" lon="5.97995">
        <ele>1089.4460449219</ele>
        <time>2017-12-06T07:42:37Z</time>
      </trkpt>
      <trkpt lat="45.24295" lon="5.97998">
        <ele>1090.4460449219</ele>
        <time>2017-12-06T07:42:41Z</time>
      </trkpt>
      <trkpt lat="45.24289" lon="5.98">
        <ele>1092.4460449219</ele>
        <time>2017-12-06T07:42:45Z</time>
      </trkpt>
      <trkpt lat="45.24285" lon="5.98004">
        <ele>1092.4460449219</ele>
        <time>2017-12-06T07:42:50Z</time>
      </trkpt>
      <trkpt lat="45.24279" lon="5.98007">
        <ele>1093.4460449219</ele>
        <time>2017-12-06T07:42:54Z</time>
      </trkpt>
      <trkpt lat="45.24277" lon="5.98013">
        <ele>1093.4460449219</ele>
        <time>2017-12-06T07:43:15Z</time>
      </trkpt>
      <trkpt lat="45.24272" lon="5.98015">
        <ele>1093.4460449219</ele>
        <time>2017-12-06T07:43:20Z</time>
      </trkpt>
      <trkpt lat="45.24267" lon="5.98018">
        <ele>1092.4460449219</ele>
        <time>2017-12-06T07:43:25Z</time>
      </trkpt>
      <trkpt lat="45.24263" lon="5.98021">
        <ele>1092.4460449219</ele>
        <time>2017-12-06T07:43:30Z</time>
      </trkpt>
      <trkpt lat="45.24258" lon="5.98023">
        <ele>1092.4460449219</ele>
        <time>2017-12-06T07:43:34Z</time>
      </trkpt>
      <trkpt lat="45.24252" lon="5.98023">
        <ele>1093.4460449219</ele>
        <time>2017-12-06T07:43:37Z</time>
      </trkpt>
      <trkpt lat="45.24246" lon="5.98024">
        <ele>1093.4460449219</ele>
        <time>2017-12-06T07:43:41Z</time>
      </trkpt>
      <trkpt lat="45.2424" lon="5.98026">
        <ele>1091.4460449219</ele>
        <time>2017-12-06T07:43:46Z</time>
      </trkpt>
      <trkpt lat="45.24235" lon="5.98028">
        <ele>1092.4460449219</ele>
        <time>2017-12-06T07:43:49Z</time>
      </trkpt>
      <trkpt lat="45.24229" lon="5.9803">
        <ele>1095.4460449219</ele>
        <time>2017-12-06T07:43:52Z</time>
      </trkpt>
      <trkpt lat="45.24224" lon="5.98031">
        <ele>1097.4460449219</ele>
        <time>2017-12-06T07:43:54Z</time>
      </trkpt>
      <trkpt lat="45.24218" lon="5.98033">
        <ele>1097.4460449219</ele>
        <time>2017-12-06T07:43:57Z</time>
      </trkpt>
      <trkpt lat="45.24214" lon="5.98036">
        <ele>1096.4460449219</ele>
        <time>2017-12-06T07:44:00Z</time>
      </trkpt>
      <trkpt lat="45.24208" lon="5.98039">
        <ele>1097.4460449219</ele>
        <time>2017-12-06T07:44:03Z</time>
      </trkpt>
      <trkpt lat="45.24203" lon="5.98043">
        <ele>1099.4460449219</ele>
        <time>2017-12-06T07:44:06Z</time>
      </trkpt>
      <trkpt lat="45.24199" lon="5.98047">
        <ele>1096.4460449219</ele>
        <time>2017-12-06T07:44:09Z</time>
      </trkpt>
      <trkpt lat="45.24197" lon="5.98052">
        <ele>1095.4460449219</ele>
        <time>2017-12-06T07:44:13Z</time>
      </trkpt>
      <trkpt lat="45.24192" lon="5.98056">
        <ele>1096.4460449219</ele>
        <time>2017-12-06T07:44:16Z</time>
      </trkpt>
      <trkpt lat="45.24188" lon="5.98062">
        <ele>1097.4460449219</ele>
        <time>2017-12-06T07:44:20Z</time>
      </trkpt>
      <trkpt lat="45.24185" lon="5.98067">
        <ele>1099.4460449219</ele>
        <time>2017-12-06T07:44:23Z</time>
      </trkpt>
      <trkpt lat="45.24181" lon="5.98072">
        <ele>1101.4460449219</ele>
        <time>2017-12-06T07:44:26Z</time>
      </trkpt>
      <trkpt lat="45.24176" lon="5.98076">
        <ele>1101.4460449219</ele>
        <time>2017-12-06T07:44:29Z</time>
      </trkpt>
      <trkpt lat="45.24172" lon="5.98082">
        <ele>1102.4460449219</ele>
        <time>2017-12-06T07:44:33Z</time>
      </trkpt>
      <trkpt lat="45.24169" lon="5.98088">
        <ele>1102.4460449219</ele>
        <time>2017-12-06T07:44:37Z</time>
      </trkpt>
      <trkpt lat="45.24165" lon="5.98093">
        <ele>1103.4460449219</ele>
        <time>2017-12-06T07:44:40Z</time>
      </trkpt>
      <trkpt lat="45.2416" lon="5.98097">
        <ele>1103.4460449219</ele>
        <time>2017-12-06T07:44:44Z</time>
      </trkpt>
      <trkpt lat="45.24156" lon="5.98102">
        <ele>1103.4460449219</ele>
        <time>2017-12-06T07:44:47Z</time>
      </trkpt>
      <trkpt lat="45.24151" lon="5.98107">
        <ele>1104.4460449219</ele>
        <time>2017-12-06T07:44:51Z</time>
      </trkpt>
      <trkpt lat="45.24146" lon="5.98109">
        <ele>1106.4460449219</ele>
        <time>2017-12-06T07:44:54Z</time>
      </trkpt>
      <trkpt lat="45.24141" lon="5.98111">
        <ele>1106.4460449219</ele>
        <time>2017-12-06T07:44:57Z</time>
      </trkpt>
      <trkpt lat="45.24137" lon="5.98114">
        <ele>1107.4460449219</ele>
        <time>2017-12-06T07:45:01Z</time>
      </trkpt>
      <trkpt lat="45.24132" lon="5.98117">
        <ele>1107.4460449219</ele>
        <time>2017-12-06T07:45:04Z</time>
      </trkpt>
      <trkpt lat="45.24127" lon="5.98119">
        <ele>1108.4460449219</ele>
        <time>2017-12-06T07:45:07Z</time>
      </trkpt>
      <trkpt lat="45.24123" lon="5.98122">
        <ele>1109.4460449219</ele>
        <time>2017-12-06T07:45:10Z</time>
      </trkpt>
      <trkpt lat="45.24118" lon="5.98127">
        <ele>1110.4460449219</ele>
        <time>2017-12-06T07:45:14Z</time>
      </trkpt>
      <trkpt lat="45.24114" lon="5.98132">
        <ele>1111.4460449219</ele>
        <time>2017-12-06T07:45:18Z</time>
      </trkpt>
      <trkpt lat="45.2411" lon="5.98139">
        <ele>1113.4460449219</ele>
        <time>2017-12-06T07:45:22Z</time>
      </trkpt>
      <trkpt lat="45.24106" lon="5.98145">
        <ele>1113.4460449219</ele>
        <time>2017-12-06T07:45:26Z</time>
      </trkpt>
      <trkpt lat="45.24104" lon="5.98151">
        <ele>1113.4460449219</ele>
        <time>2017-12-06T07:45:30Z</time>
      </trkpt>
      <trkpt lat="45.241" lon="5.98158">
        <ele>1112.4460449219</ele>
        <time>2017-12-06T07:45:34Z</time>
      </trkpt>
      <trkpt lat="45.24097" lon="5.98164">
        <ele>1111.4460449219</ele>
        <time>2017-12-06T07:45:37Z</time>
      </trkpt>
      <trkpt lat="45.24097" lon="5.98172">
        <ele>1109.4460449219</ele>
        <time>2017-12-06T07:45:41Z</time>
      </trkpt>
      <trkpt lat="45.24095" lon="5.98178">
        <ele>1109.4460449219</ele>
        <time>2017-12-06T07:45:44Z</time>
      </trkpt>
      <trkpt lat="45.24093" lon="5.98185">
        <ele>1108.4460449219</ele>
        <time>2017-12-06T07:45:47Z</time>
      </trkpt>
      <trkpt lat="45.24092" lon="5.98193">
        <ele>1107.4460449219</ele>
        <time>2017-12-06T07:45:51Z</time>
      </trkpt>
      <trkpt lat="45.2409" lon="5.982">
        <ele>1108.4460449219</ele>
        <time>2017-12-06T07:45:54Z</time>
      </trkpt>
      <trkpt lat="45.24091" lon="5.98206">
        <ele>1107.4460449219</ele>
        <time>2017-12-06T07:45:57Z</time>
      </trkpt>
      <trkpt lat="45.2409" lon="5.98213">
        <ele>1109.4460449219</ele>
        <time>2017-12-06T07:46:00Z</time>
      </trkpt>
      <trkpt lat="45.24089" lon="5.98221">
        <ele>1112.4460449219</ele>
        <time>2017-12-06T07:46:03Z</time>
      </trkpt>
      <trkpt lat="45.24088" lon="5.98228">
        <ele>1111.4460449219</ele>
        <time>2017-12-06T07:46:06Z</time>
      </trkpt>
      <trkpt lat="45.24086" lon="5.98236">
        <ele>1111.4460449219</ele>
        <time>2017-12-06T07:46:10Z</time>
      </trkpt>
      <trkpt lat="45.24083" lon="5.98242">
        <ele>1111.4460449219</ele>
        <time>2017-12-06T07:46:13Z</time>
      </trkpt>
      <trkpt lat="45.24082" lon="5.98248">
        <ele>1112.4460449219</ele>
        <time>2017-12-06T07:46:16Z</time>
      </trkpt>
      <trkpt lat="45.2408" lon="5.98254">
        <ele>1112.4460449219</ele>
        <time>2017-12-06T07:46:19Z</time>
      </trkpt>
      <trkpt lat="45.24077" lon="5.9826">
        <ele>1111.4460449219</ele>
        <time>2017-12-06T07:46:22Z</time>
      </trkpt>
      <trkpt lat="45.24075" lon="5.98268">
        <ele>1113.4460449219</ele>
        <time>2017-12-06T07:46:25Z</time>
      </trkpt>
      <trkpt lat="45.24073" lon="5.98274">
        <ele>1115.4460449219</ele>
        <time>2017-12-06T07:46:28Z</time>
      </trkpt>
      <trkpt lat="45.24069" lon="5.9828">
        <ele>1116.4460449219</ele>
        <time>2017-12-06T07:46:32Z</time>
      </trkpt>
      <trkpt lat="45.24066" lon="5.98284">
        <ele>1114.4460449219</ele>
        <time>2017-12-06T07:46:35Z</time>
      </trkpt>
      <trkpt lat="45.24062" lon="5.98289">
        <ele>1116.4460449219</ele>
        <time>2017-12-06T07:46:38Z</time>
      </trkpt>
      <trkpt lat="45.24057" lon="5.98293">
        <ele>1118.4460449219</ele>
        <time>2017-12-06T07:46:41Z</time>
      </trkpt>
      <trkpt lat="45.24052" lon="5.98296">
        <ele>1119.4460449219</ele>
        <time>2017-12-06T07:46:44Z</time>
      </trkpt>
      <trkpt lat="45.24048" lon="5.98301">
        <ele>1121.4460449219</ele>
        <time>2017-12-06T07:46:48Z</time>
      </trkpt>
      <trkpt lat="45.24044" lon="5.98303">
        <ele>1121.4460449219</ele>
        <time>2017-12-06T07:46:51Z</time>
      </trkpt>
      <trkpt lat="45.24038" lon="5.98306">
        <ele>1122.4460449219</ele>
        <time>2017-12-06T07:46:55Z</time>
      </trkpt>
      <trkpt lat="45.24034" lon="5.98309">
        <ele>1120.4460449219</ele>
        <time>2017-12-06T07:46:58Z</time>
      </trkpt>
      <trkpt lat="45.24029" lon="5.98309">
        <ele>1120.4460449219</ele>
        <time>2017-12-06T07:47:02Z</time>
      </trkpt>
      <trkpt lat="45.24024" lon="5.98312">
        <ele>1119.4460449219</ele>
        <time>2017-12-06T07:47:06Z</time>
      </trkpt>
      <trkpt lat="45.24019" lon="5.98312">
        <ele>1118.4460449219</ele>
        <time>2017-12-06T07:47:09Z</time>
      </trkpt>
      <trkpt lat="45.24013" lon="5.98314">
        <ele>1119.4460449219</ele>
        <time>2017-12-06T07:47:13Z</time>
      </trkpt>
      <trkpt lat="45.24008" lon="5.98315">
        <ele>1119.4460449219</ele>
        <time>2017-12-06T07:47:17Z</time>
      </trkpt>
      <trkpt lat="45.24003" lon="5.98314">
        <ele>1118.4460449219</ele>
        <time>2017-12-06T07:47:20Z</time>
      </trkpt>
      <trkpt lat="45.23999" lon="5.98314">
        <ele>1120.4460449219</ele>
        <time>2017-12-06T07:47:23Z</time>
      </trkpt>
      <trkpt lat="45.23993" lon="5.98313">
        <ele>1120.4460449219</ele>
        <time>2017-12-06T07:47:26Z</time>
      </trkpt>
      <trkpt lat="45.23989" lon="5.98314">
        <ele>1122.4460449219</ele>
        <time>2017-12-06T07:47:30Z</time>
      </trkpt>
      <trkpt lat="45.23983" lon="5.98312">
        <ele>1124.4460449219</ele>
        <time>2017-12-06T07:47:33Z</time>
      </trkpt>
      <trkpt lat="45.23978" lon="5.98316">
        <ele>1124.4460449219</ele>
        <time>2017-12-06T07:47:37Z</time>
      </trkpt>
      <trkpt lat="45.23973" lon="5.98319">
        <ele>1128.4460449219</ele>
        <time>2017-12-06T07:47:41Z</time>
      </trkpt>
      <trkpt lat="45.23968" lon="5.98321">
        <ele>1128.4460449219</ele>
        <time>2017-12-06T07:47:44Z</time>
      </trkpt>
      <trkpt lat="45.23964" lon="5.98326">
        <ele>1128.4460449219</ele>
        <time>2017-12-06T07:47:47Z</time>
      </trkpt>
      <trkpt lat="45.23959" lon="5.9833">
        <ele>1128.4460449219</ele>
        <time>2017-12-06T07:47:51Z</time>
      </trkpt>
      <trkpt lat="45.23956" lon="5.98335">
        <ele>1126.4460449219</ele>
        <time>2017-12-06T07:47:55Z</time>
      </trkpt>
      <trkpt lat="45.2395" lon="5.9834">
        <ele>1128.4460449219</ele>
        <time>2017-12-06T07:47:59Z</time>
      </trkpt>
      <trkpt lat="45.23945" lon="5.98346">
        <ele>1127.4460449219</ele>
        <time>2017-12-06T07:48:02Z</time>
      </trkpt>
      <trkpt lat="45.23941" lon="5.98352">
        <ele>1130.4460449219</ele>
        <time>2017-12-06T07:48:07Z</time>
      </trkpt>
      <trkpt lat="45.23937" lon="5.98357">
        <ele>1128.4460449219</ele>
        <time>2017-12-06T07:48:11Z</time>
      </trkpt>
      <trkpt lat="45.23931" lon="5.9836">
        <ele>1130.4460449219</ele>
        <time>2017-12-06T07:48:15Z</time>
      </trkpt>
      <trkpt lat="45.23927" lon="5.98366">
        <ele>1131.4460449219</ele>
        <time>2017-12-06T07:48:19Z</time>
      </trkpt>
      <trkpt lat="45.23922" lon="5.9837">
        <ele>1131.4460449219</ele>
        <time>2017-12-06T07:48:23Z</time>
      </trkpt>
      <trkpt lat="45.23919" lon="5.98375">
        <ele>1132.4460449219</ele>
        <time>2017-12-06T07:48:26Z</time>
      </trkpt>
      <trkpt lat="45.23914" lon="5.9838">
        <ele>1132.4460449219</ele>
        <time>2017-12-06T07:48:30Z</time>
      </trkpt>
      <trkpt lat="45.23912" lon="5.98386">
        <ele>1131.4460449219</ele>
        <time>2017-12-06T07:48:34Z</time>
      </trkpt>
      <trkpt lat="45.2391" lon="5.98393">
        <ele>1131.4460449219</ele>
        <time>2017-12-06T07:48:38Z</time>
      </trkpt>
      <trkpt lat="45.23908" lon="5.98399">
        <ele>1133.4460449219</ele>
        <time>2017-12-06T07:48:42Z</time>
      </trkpt>
      <trkpt lat="45.23905" lon="5.98406">
        <ele>1136.4460449219</ele>
        <time>2017-12-06T07:48:46Z</time>
      </trkpt>
      <trkpt lat="45.23902" lon="5.98413">
        <ele>1138.4460449219</ele>
        <time>2017-12-06T07:48:50Z</time>
      </trkpt>
      <trkpt lat="45.23898" lon="5.9842">
        <ele>1139.4460449219</ele>
        <time>2017-12-06T07:48:53Z</time>
      </trkpt>
      <trkpt lat="45.23895" lon="5.98425">
        <ele>1142.4460449219</ele>
        <time>2017-12-06T07:48:56Z</time>
      </trkpt>
      <trkpt lat="45.2389" lon="5.98428">
        <ele>1141.4460449219</ele>
        <time>2017-12-06T07:50:39Z</time>
      </trkpt>
      <trkpt lat="45.23887" lon="5.98433">
        <ele>1140.4460449219</ele>
        <time>2017-12-06T07:50:43Z</time>
      </trkpt>
      <trkpt lat="45.23882" lon="5.98437">
        <ele>1139.4460449219</ele>
        <time>2017-12-06T07:50:46Z</time>
      </trkpt>
      <trkpt lat="45.23878" lon="5.98439">
        <ele>1136.4460449219</ele>
        <time>2017-12-06T07:50:49Z</time>
      </trkpt>
      <trkpt lat="45.23873" lon="5.98443">
        <ele>1138.4460449219</ele>
        <time>2017-12-06T07:50:53Z</time>
      </trkpt>
      <trkpt lat="45.23868" lon="5.98444">
        <ele>1136.4460449219</ele>
        <time>2017-12-06T07:50:56Z</time>
      </trkpt>
      <trkpt lat="45.23862" lon="5.98443">
        <ele>1139.4460449219</ele>
        <time>2017-12-06T07:51:00Z</time>
      </trkpt>
      <trkpt lat="45.23858" lon="5.98444">
        <ele>1138.4460449219</ele>
        <time>2017-12-06T07:51:03Z</time>
      </trkpt>
      <trkpt lat="45.23851" lon="5.98444">
        <ele>1140.4460449219</ele>
        <time>2017-12-06T07:51:07Z</time>
      </trkpt>
      <trkpt lat="45.23846" lon="5.98441">
        <ele>1141.4460449219</ele>
        <time>2017-12-06T07:51:10Z</time>
      </trkpt>
      <trkpt lat="45.23843" lon="5.98436">
        <ele>1140.4460449219</ele>
        <time>2017-12-06T07:51:13Z</time>
      </trkpt>
      <trkpt lat="45.23837" lon="5.98436">
        <ele>1140.4460449219</ele>
        <time>2017-12-06T07:51:16Z</time>
      </trkpt>
      <trkpt lat="45.23832" lon="5.98434">
        <ele>1142.4460449219</ele>
        <time>2017-12-06T07:51:19Z</time>
      </trkpt>
      <trkpt lat="45.23826" lon="5.98435">
        <ele>1144.4449462891</ele>
        <time>2017-12-06T07:51:23Z</time>
      </trkpt>
      <trkpt lat="45.2382" lon="5.98438">
        <ele>1144.4449462891</ele>
        <time>2017-12-06T07:51:27Z</time>
      </trkpt>
      <trkpt lat="45.23815" lon="5.98439">
        <ele>1145.4449462891</ele>
        <time>2017-12-06T07:51:31Z</time>
      </trkpt>
      <trkpt lat="45.2381" lon="5.98436">
        <ele>1148.4449462891</ele>
        <time>2017-12-06T07:51:34Z</time>
      </trkpt>
      <trkpt lat="45.23805" lon="5.98435">
        <ele>1147.4449462891</ele>
        <time>2017-12-06T07:51:37Z</time>
      </trkpt>
      <trkpt lat="45.238" lon="5.98435">
        <ele>1146.4449462891</ele>
        <time>2017-12-06T07:51:40Z</time>
      </trkpt>
      <trkpt lat="45.23795" lon="5.98436">
        <ele>1145.4449462891</ele>
        <time>2017-12-06T07:51:43Z</time>
      </trkpt>
      <trkpt lat="45.23791" lon="5.98438">
        <ele>1146.4449462891</ele>
        <time>2017-12-06T07:51:46Z</time>
      </trkpt>
      <trkpt lat="45.23786" lon="5.98438">
        <ele>1147.4449462891</ele>
        <time>2017-12-06T07:51:49Z</time>
      </trkpt>
      <trkpt lat="45.23781" lon="5.98439">
        <ele>1147.4449462891</ele>
        <time>2017-12-06T07:51:52Z</time>
      </trkpt>
      <trkpt lat="45.23776" lon="5.98443">
        <ele>1146.4449462891</ele>
        <time>2017-12-06T07:51:56Z</time>
      </trkpt>
      <trkpt lat="45.23771" lon="5.98448">
        <ele>1145.4449462891</ele>
        <time>2017-12-06T07:52:00Z</time>
      </trkpt>
      <trkpt lat="45.23768" lon="5.98452">
        <ele>1146.4449462891</ele>
        <time>2017-12-06T07:52:03Z</time>
      </trkpt>
      <trkpt lat="45.23764" lon="5.98456">
        <ele>1146.4449462891</ele>
        <time>2017-12-06T07:52:07Z</time>
      </trkpt>
      <trkpt lat="45.23758" lon="5.9846">
        <ele>1146.4449462891</ele>
        <time>2017-12-06T07:52:11Z</time>
      </trkpt>
      <trkpt lat="45.23754" lon="5.98462">
        <ele>1148.4449462891</ele>
        <time>2017-12-06T07:52:14Z</time>
      </trkpt>
      <trkpt lat="45.23749" lon="5.98466">
        <ele>1147.4449462891</ele>
        <time>2017-12-06T07:52:17Z</time>
      </trkpt>
      <trkpt lat="45.23744" lon="5.98469">
        <ele>1150.4449462891</ele>
        <time>2017-12-06T07:52:21Z</time>
      </trkpt>
      <trkpt lat="45.2374" lon="5.98472">
        <ele>1150.4449462891</ele>
        <time>2017-12-06T07:52:24Z</time>
      </trkpt>
      <trkpt lat="45.23735" lon="5.98475">
        <ele>1150.4449462891</ele>
        <time>2017-12-06T07:52:28Z</time>
      </trkpt>
      <trkpt lat="45.2373" lon="5.9848">
        <ele>1151.4449462891</ele>
        <time>2017-12-06T07:52:33Z</time>
      </trkpt>
      <trkpt lat="45.23725" lon="5.98481">
        <ele>1153.4449462891</ele>
        <time>2017-12-06T07:52:36Z</time>
      </trkpt>
      <trkpt lat="45.2372" lon="5.98484">
        <ele>1153.4449462891</ele>
        <time>2017-12-06T07:52:39Z</time>
      </trkpt>
      <trkpt lat="45.23715" lon="5.98487">
        <ele>1154.4449462891</ele>
        <time>2017-12-06T07:52:42Z</time>
      </trkpt>
      <trkpt lat="45.23709" lon="5.98489">
        <ele>1155.4449462891</ele>
        <time>2017-12-06T07:52:45Z</time>
      </trkpt>
      <trkpt lat="45.23704" lon="5.98493">
        <ele>1160.4449462891</ele>
        <time>2017-12-06T07:52:49Z</time>
      </trkpt>
      <trkpt lat="45.23699" lon="5.98497">
        <ele>1158.4449462891</ele>
        <time>2017-12-06T07:52:53Z</time>
      </trkpt>
      <trkpt lat="45.23694" lon="5.98498">
        <ele>1158.4449462891</ele>
        <time>2017-12-06T07:52:57Z</time>
      </trkpt>
      <trkpt lat="45.2369" lon="5.985">
        <ele>1158.4449462891</ele>
        <time>2017-12-06T07:53:01Z</time>
      </trkpt>
      <trkpt lat="45.23635" lon="5.98506">
        <ele>1127.4449462891</ele>
        <time>2017-12-06T07:53:36Z</time>
      </trkpt>
      <trkpt lat="45.23631" lon="5.98501">
        <ele>1150.4449462891</ele>
        <time>2017-12-06T07:53:38Z</time>
      </trkpt>
      <trkpt lat="45.23625" lon="5.98501">
        <ele>1161.4449462891</ele>
        <time>2017-12-06T07:53:41Z</time>
      </trkpt>
      <trkpt lat="45.2362" lon="5.98502">
        <ele>1165.4449462891</ele>
        <time>2017-12-06T07:53:44Z</time>
      </trkpt>
      <trkpt lat="45.23614" lon="5.98507">
        <ele>1167.4449462891</ele>
        <time>2017-12-06T07:53:50Z</time>
      </trkpt>
      <trkpt lat="45.23608" lon="5.9851">
        <ele>1166.4449462891</ele>
        <time>2017-12-06T07:53:54Z</time>
      </trkpt>
      <trkpt lat="45.23603" lon="5.98515">
        <ele>1166.4449462891</ele>
        <time>2017-12-06T07:53:58Z</time>
      </trkpt>
      <trkpt lat="45.23597" lon="5.98518">
        <ele>1166.4449462891</ele>
        <time>2017-12-06T07:54:04Z</time>
      </trkpt>
      <trkpt lat="45.23593" lon="5.98523">
        <ele>1162.4449462891</ele>
        <time>2017-12-06T07:54:07Z</time>
      </trkpt>
      <trkpt lat="45.2359" lon="5.98528">
        <ele>1166.4449462891</ele>
        <time>2017-12-06T07:54:10Z</time>
      </trkpt>
      <trkpt lat="45.23586" lon="5.98532">
        <ele>1165.4449462891</ele>
        <time>2017-12-06T07:54:14Z</time>
      </trkpt>
      <trkpt lat="45.2358" lon="5.98535">
        <ele>1166.4449462891</ele>
        <time>2017-12-06T07:54:18Z</time>
      </trkpt>
      <trkpt lat="45.23575" lon="5.98541">
        <ele>1163.4449462891</ele>
        <time>2017-12-06T07:54:22Z</time>
      </trkpt>
      <trkpt lat="45.2357" lon="5.98544">
        <ele>1164.4449462891</ele>
        <time>2017-12-06T07:54:26Z</time>
      </trkpt>
      <trkpt lat="45.23564" lon="5.98546">
        <ele>1166.4449462891</ele>
        <time>2017-12-06T07:54:30Z</time>
      </trkpt>
      <trkpt lat="45.2356" lon="5.98549">
        <ele>1167.4449462891</ele>
        <time>2017-12-06T07:54:33Z</time>
      </trkpt>
      <trkpt lat="45.23556" lon="5.98552">
        <ele>1167.4449462891</ele>
        <time>2017-12-06T07:54:36Z</time>
      </trkpt>
      <trkpt lat="45.23554" lon="5.98558">
        <ele>1165.4449462891</ele>
        <time>2017-12-06T07:54:40Z</time>
      </trkpt>
      <trkpt lat="45.23549" lon="5.98564">
        <ele>1168.4449462891</ele>
        <time>2017-12-06T07:54:44Z</time>
      </trkpt>
      <trkpt lat="45.23546" lon="5.9857">
        <ele>1168.4449462891</ele>
        <time>2017-12-06T07:54:47Z</time>
      </trkpt>
      <trkpt lat="45.23543" lon="5.98575">
        <ele>1168.4449462891</ele>
        <time>2017-12-06T07:54:51Z</time>
      </trkpt>
      <trkpt lat="45.23541" lon="5.98581">
        <ele>1168.4449462891</ele>
        <time>2017-12-06T07:54:54Z</time>
      </trkpt>
      <trkpt lat="45.23538" lon="5.98585">
        <ele>1169.4449462891</ele>
        <time>2017-12-06T07:54:57Z</time>
      </trkpt>
      <trkpt lat="45.23535" lon="5.9859">
        <ele>1169.4449462891</ele>
        <time>2017-12-06T07:55:00Z</time>
      </trkpt>
      <trkpt lat="45.23531" lon="5.98595">
        <ele>1166.4449462891</ele>
        <time>2017-12-06T07:55:04Z</time>
      </trkpt>
      <trkpt lat="45.23528" lon="5.98603">
        <ele>1168.4449462891</ele>
        <time>2017-12-06T07:55:08Z</time>
      </trkpt>
      <trkpt lat="45.23524" lon="5.98609">
        <ele>1168.4449462891</ele>
        <time>2017-12-06T07:55:12Z</time>
      </trkpt>
      <trkpt lat="45.2352" lon="5.98612">
        <ele>1168.4449462891</ele>
        <time>2017-12-06T07:55:15Z</time>
      </trkpt>
      <trkpt lat="45.23516" lon="5.98617">
        <ele>1170.4449462891</ele>
        <time>2017-12-06T07:55:19Z</time>
      </trkpt>
      <trkpt lat="45.23512" lon="5.98621">
        <ele>1173.4449462891</ele>
        <time>2017-12-06T07:55:23Z</time>
      </trkpt>
      <trkpt lat="45.23509" lon="5.98626">
        <ele>1175.4449462891</ele>
        <time>2017-12-06T07:55:26Z</time>
      </trkpt>
      <trkpt lat="45.23505" lon="5.98631">
        <ele>1175.4449462891</ele>
        <time>2017-12-06T07:55:30Z</time>
      </trkpt>
      <trkpt lat="45.23501" lon="5.98635">
        <ele>1175.4449462891</ele>
        <time>2017-12-06T07:55:33Z</time>
      </trkpt>
      <trkpt lat="45.23498" lon="5.98642">
        <ele>1174.4449462891</ele>
        <time>2017-12-06T07:55:37Z</time>
      </trkpt>
      <trkpt lat="45.23494" lon="5.98647">
        <ele>1174.4449462891</ele>
        <time>2017-12-06T07:55:41Z</time>
      </trkpt>
      <trkpt lat="45.23491" lon="5.98653">
        <ele>1174.4449462891</ele>
        <time>2017-12-06T07:55:44Z</time>
      </trkpt>
      <trkpt lat="45.23488" lon="5.98658">
        <ele>1176.4449462891</ele>
        <time>2017-12-06T07:55:48Z</time>
      </trkpt>
      <trkpt lat="45.23484" lon="5.98664">
        <ele>1173.4449462891</ele>
        <time>2017-12-06T07:55:52Z</time>
      </trkpt>
      <trkpt lat="45.23478" lon="5.98667">
        <ele>1175.4449462891</ele>
        <time>2017-12-06T07:55:56Z</time>
      </trkpt>
      <trkpt lat="45.23475" lon="5.98672">
        <ele>1179.4449462891</ele>
        <time>2017-12-06T07:55:59Z</time>
      </trkpt>
      <trkpt lat="45.23472" lon="5.98676">
        <ele>1182.4449462891</ele>
        <time>2017-12-06T07:56:01Z</time>
      </trkpt>
      <trkpt lat="45.23468" lon="5.98682">
        <ele>1183.4449462891</ele>
        <time>2017-12-06T07:56:04Z</time>
      </trkpt>
      <trkpt lat="45.23463" lon="5.98686">
        <ele>1185.4449462891</ele>
        <time>2017-12-06T07:56:08Z</time>
      </trkpt>
      <trkpt lat="45.2346" lon="5.98692">
        <ele>1184.4449462891</ele>
        <time>2017-12-06T07:56:11Z</time>
      </trkpt>
      <trkpt lat="45.23457" lon="5.98697">
        <ele>1186.4449462891</ele>
        <time>2017-12-06T07:56:14Z</time>
      </trkpt>
      <trkpt lat="45.23456" lon="5.98705">
        <ele>1185.4449462891</ele>
        <time>2017-12-06T07:56:18Z</time>
      </trkpt>
      <trkpt lat="45.23454" lon="5.9871">
        <ele>1188.4449462891</ele>
        <time>2017-12-06T07:56:21Z</time>
      </trkpt>
      <trkpt lat="45.2345" lon="5.98715">
        <ele>1189.4449462891</ele>
        <time>2017-12-06T07:56:24Z</time>
      </trkpt>
      <trkpt lat="45.23446" lon="5.9872">
        <ele>1190.4449462891</ele>
        <time>2017-12-06T07:56:27Z</time>
      </trkpt>
      <trkpt lat="45.23442" lon="5.98725">
        <ele>1193.4449462891</ele>
        <time>2017-12-06T07:56:30Z</time>
      </trkpt>
      <trkpt lat="45.23437" lon="5.98731">
        <ele>1192.4449462891</ele>
        <time>2017-12-06T07:56:34Z</time>
      </trkpt>
      <trkpt lat="45.23434" lon="5.98737">
        <ele>1194.4449462891</ele>
        <time>2017-12-06T07:56:37Z</time>
      </trkpt>
      <trkpt lat="45.23431" lon="5.98743">
        <ele>1194.4449462891</ele>
        <time>2017-12-06T07:56:41Z</time>
      </trkpt>
      <trkpt lat="45.23427" lon="5.98748">
        <ele>1193.4449462891</ele>
        <time>2017-12-06T07:56:44Z</time>
      </trkpt>
      <trkpt lat="45.23424" lon="5.98753">
        <ele>1192.4449462891</ele>
        <time>2017-12-06T07:56:48Z</time>
      </trkpt>
      <trkpt lat="45.23419" lon="5.98758">
        <ele>1191.4449462891</ele>
        <time>2017-12-06T07:56:52Z</time>
      </trkpt>
      <trkpt lat="45.23415" lon="5.98761">
        <ele>1192.4449462891</ele>
        <time>2017-12-06T07:56:55Z</time>
      </trkpt>
      <trkpt lat="45.2341" lon="5.98766">
        <ele>1194.4449462891</ele>
        <time>2017-12-06T07:56:59Z</time>
      </trkpt>
      <trkpt lat="45.23407" lon="5.9877">
        <ele>1197.4449462891</ele>
        <time>2017-12-06T07:57:02Z</time>
      </trkpt>
      <trkpt lat="45.23403" lon="5.98773">
        <ele>1198.4449462891</ele>
        <time>2017-12-06T07:57:05Z</time>
      </trkpt>
      <trkpt lat="45.23398" lon="5.98778">
        <ele>1198.4449462891</ele>
        <time>2017-12-06T07:57:09Z</time>
      </trkpt>
      <trkpt lat="45.23392" lon="5.98783">
        <ele>1200.4449462891</ele>
        <time>2017-12-06T07:57:13Z</time>
      </trkpt>
      <trkpt lat="45.23387" lon="5.98787">
        <ele>1200.4449462891</ele>
        <time>2017-12-06T07:57:17Z</time>
      </trkpt>
      <trkpt lat="45.23383" lon="5.9879">
        <ele>1198.4449462891</ele>
        <time>2017-12-06T07:57:20Z</time>
      </trkpt>
      <trkpt lat="45.23379" lon="5.98794">
        <ele>1198.4449462891</ele>
        <time>2017-12-06T07:57:23Z</time>
      </trkpt>
      <trkpt lat="45.23375" lon="5.98797">
        <ele>1198.4449462891</ele>
        <time>2017-12-06T07:57:27Z</time>
      </trkpt>
      <trkpt lat="45.2337" lon="5.98801">
        <ele>1199.4449462891</ele>
        <time>2017-12-06T07:57:31Z</time>
      </trkpt>
      <trkpt lat="45.23364" lon="5.98805">
        <ele>1200.4449462891</ele>
        <time>2017-12-06T07:57:35Z</time>
      </trkpt>
      <trkpt lat="45.23359" lon="5.98809">
        <ele>1198.4449462891</ele>
        <time>2017-12-06T07:57:39Z</time>
      </trkpt>
      <trkpt lat="45.23355" lon="5.98812">
        <ele>1199.4449462891</ele>
        <time>2017-12-06T07:57:43Z</time>
      </trkpt>
      <trkpt lat="45.23351" lon="5.98814">
        <ele>1199.4449462891</ele>
        <time>2017-12-06T07:57:47Z</time>
      </trkpt>
      <trkpt lat="45.23347" lon="5.98818">
        <ele>1200.4449462891</ele>
        <time>2017-12-06T07:57:50Z</time>
      </trkpt>
      <trkpt lat="45.23342" lon="5.98821">
        <ele>1200.4449462891</ele>
        <time>2017-12-06T07:57:53Z</time>
      </trkpt>
      <trkpt lat="45.23338" lon="5.98824">
        <ele>1200.4449462891</ele>
        <time>2017-12-06T07:57:56Z</time>
      </trkpt>
      <trkpt lat="45.23333" lon="5.98827">
        <ele>1199.4449462891</ele>
        <time>2017-12-06T07:58:00Z</time>
      </trkpt>
      <trkpt lat="45.23328" lon="5.98833">
        <ele>1200.4449462891</ele>
        <time>2017-12-06T07:58:04Z</time>
      </trkpt>
      <trkpt lat="45.23323" lon="5.98838">
        <ele>1202.4449462891</ele>
        <time>2017-12-06T07:58:08Z</time>
      </trkpt>
      <trkpt lat="45.23319" lon="5.98841">
        <ele>1202.4449462891</ele>
        <time>2017-12-06T07:58:11Z</time>
      </trkpt>
      <trkpt lat="45.23315" lon="5.98845">
        <ele>1203.4449462891</ele>
        <time>2017-12-06T07:58:14Z</time>
      </trkpt>
      <trkpt lat="45.2331" lon="5.98849">
        <ele>1203.4449462891</ele>
        <time>2017-12-06T07:58:18Z</time>
      </trkpt>
      <trkpt lat="45.23306" lon="5.98852">
        <ele>1203.4449462891</ele>
        <time>2017-12-06T07:58:21Z</time>
      </trkpt>
      <trkpt lat="45.23302" lon="5.98855">
        <ele>1204.4449462891</ele>
        <time>2017-12-06T07:58:24Z</time>
      </trkpt>
      <trkpt lat="45.23298" lon="5.98859">
        <ele>1204.4449462891</ele>
        <time>2017-12-06T07:58:27Z</time>
      </trkpt>
      <trkpt lat="45.23293" lon="5.98862">
        <ele>1208.4449462891</ele>
        <time>2017-12-06T07:58:31Z</time>
      </trkpt>
      <trkpt lat="45.23288" lon="5.98866">
        <ele>1208.4449462891</ele>
        <time>2017-12-06T07:58:34Z</time>
      </trkpt>
      <trkpt lat="45.23283" lon="5.98867">
        <ele>1208.4449462891</ele>
        <time>2017-12-06T07:58:37Z</time>
      </trkpt>
      <trkpt lat="45.23279" lon="5.98869">
        <ele>1209.4449462891</ele>
        <time>2017-12-06T07:58:41Z</time>
      </trkpt>
      <trkpt lat="45.23274" lon="5.98872">
        <ele>1209.4449462891</ele>
        <time>2017-12-06T07:58:45Z</time>
      </trkpt>
      <trkpt lat="45.23268" lon="5.98875">
        <ele>1208.4449462891</ele>
        <time>2017-12-06T07:58:49Z</time>
      </trkpt>
      <trkpt lat="45.23263" lon="5.98876">
        <ele>1209.4449462891</ele>
        <time>2017-12-06T07:58:52Z</time>
      </trkpt>
      <trkpt lat="45.23258" lon="5.98877">
        <ele>1209.4449462891</ele>
        <time>2017-12-06T07:58:55Z</time>
      </trkpt>
      <trkpt lat="45.23254" lon="5.98878">
        <ele>1208.4449462891</ele>
        <time>2017-12-06T07:58:58Z</time>
      </trkpt>
      <trkpt lat="45.23249" lon="5.98879">
        <ele>1209.4449462891</ele>
        <time>2017-12-06T07:59:01Z</time>
      </trkpt>
      <trkpt lat="45.23244" lon="5.98881">
        <ele>1210.4449462891</ele>
        <time>2017-12-06T07:59:05Z</time>
      </trkpt>
      <trkpt lat="45.23239" lon="5.98882">
        <ele>1210.4449462891</ele>
        <time>2017-12-06T07:59:08Z</time>
      </trkpt>
      <trkpt lat="45.23233" lon="5.98884">
        <ele>1212.4449462891</ele>
        <time>2017-12-06T07:59:12Z</time>
      </trkpt>
      <trkpt lat="45.23228" lon="5.98886">
        <ele>1213.4449462891</ele>
        <time>2017-12-06T07:59:16Z</time>
      </trkpt>
      <trkpt lat="45.23224" lon="5.98889">
        <ele>1214.4449462891</ele>
        <time>2017-12-06T07:59:19Z</time>
      </trkpt>
      <trkpt lat="45.23219" lon="5.98892">
        <ele>1216.4449462891</ele>
        <time>2017-12-06T07:59:23Z</time>
      </trkpt>
      <trkpt lat="45.23214" lon="5.98896">
        <ele>1217.4449462891</ele>
        <time>2017-12-06T07:59:27Z</time>
      </trkpt>
      <trkpt lat="45.2321" lon="5.989">
        <ele>1217.4449462891</ele>
        <time>2017-12-06T07:59:30Z</time>
      </trkpt>
      <trkpt lat="45.23206" lon="5.98905">
        <ele>1217.4449462891</ele>
        <time>2017-12-06T07:59:34Z</time>
      </trkpt>
      <trkpt lat="45.23203" lon="5.9891">
        <ele>1216.4449462891</ele>
        <time>2017-12-06T07:59:37Z</time>
      </trkpt>
      <trkpt lat="45.23199" lon="5.98916">
        <ele>1219.4449462891</ele>
        <time>2017-12-06T07:59:40Z</time>
      </trkpt>
      <trkpt lat="45.23196" lon="5.9892">
        <ele>1219.4449462891</ele>
        <time>2017-12-06T07:59:43Z</time>
      </trkpt>
      <trkpt lat="45.23192" lon="5.98927">
        <ele>1221.4449462891</ele>
        <time>2017-12-06T07:59:47Z</time>
      </trkpt>
      <trkpt lat="45.23189" lon="5.98932">
        <ele>1223.4449462891</ele>
        <time>2017-12-06T07:59:50Z</time>
      </trkpt>
      <trkpt lat="45.23185" lon="5.98938">
        <ele>1223.4449462891</ele>
        <time>2017-12-06T07:59:54Z</time>
      </trkpt>
      <trkpt lat="45.23183" lon="5.98945">
        <ele>1222.4449462891</ele>
        <time>2017-12-06T07:59:57Z</time>
      </trkpt>
      <trkpt lat="45.23181" lon="5.98952">
        <ele>1224.4449462891</ele>
        <time>2017-12-06T08:00:01Z</time>
      </trkpt>
      <trkpt lat="45.23178" lon="5.9896">
        <ele>1222.4449462891</ele>
        <time>2017-12-06T08:00:05Z</time>
      </trkpt>
      <trkpt lat="45.23175" lon="5.98965">
        <ele>1222.4449462891</ele>
        <time>2017-12-06T08:00:08Z</time>
      </trkpt>
      <trkpt lat="45.23172" lon="5.98971">
        <ele>1221.4449462891</ele>
        <time>2017-12-06T08:00:11Z</time>
      </trkpt>
      <trkpt lat="45.23169" lon="5.98976">
        <ele>1224.4449462891</ele>
        <time>2017-12-06T08:00:15Z</time>
      </trkpt>
      <trkpt lat="45.23165" lon="5.98983">
        <ele>1225.4449462891</ele>
        <time>2017-12-06T08:00:19Z</time>
      </trkpt>
      <trkpt lat="45.23162" lon="5.98988">
        <ele>1226.4449462891</ele>
        <time>2017-12-06T08:00:22Z</time>
      </trkpt>
      <trkpt lat="45.23159" lon="5.98994">
        <ele>1228.4449462891</ele>
        <time>2017-12-06T08:00:26Z</time>
      </trkpt>
      <trkpt lat="45.23156" lon="5.99">
        <ele>1229.4449462891</ele>
        <time>2017-12-06T08:00:29Z</time>
      </trkpt>
      <trkpt lat="45.23154" lon="5.99006">
        <ele>1232.4449462891</ele>
        <time>2017-12-06T08:00:32Z</time>
      </trkpt>
      <trkpt lat="45.23152" lon="5.99012">
        <ele>1233.4449462891</ele>
        <time>2017-12-06T08:00:35Z</time>
      </trkpt>
      <trkpt lat="45.2315" lon="5.99018">
        <ele>1235.4449462891</ele>
        <time>2017-12-06T08:00:38Z</time>
      </trkpt>
      <trkpt lat="45.23149" lon="5.99025">
        <ele>1235.4449462891</ele>
        <time>2017-12-06T08:00:42Z</time>
      </trkpt>
      <trkpt lat="45.23147" lon="5.99031">
        <ele>1235.4449462891</ele>
        <time>2017-12-06T08:00:45Z</time>
      </trkpt>
      <trkpt lat="45.23145" lon="5.99038">
        <ele>1234.4449462891</ele>
        <time>2017-12-06T08:00:49Z</time>
      </trkpt>
      <trkpt lat="45.23143" lon="5.99045">
        <ele>1235.4449462891</ele>
        <time>2017-12-06T08:00:53Z</time>
      </trkpt>
      <trkpt lat="45.23141" lon="5.99051">
        <ele>1233.4449462891</ele>
        <time>2017-12-06T08:00:56Z</time>
      </trkpt>
      <trkpt lat="45.23139" lon="5.99057">
        <ele>1234.4449462891</ele>
        <time>2017-12-06T08:00:59Z</time>
      </trkpt>
      <trkpt lat="45.23137" lon="5.99064">
        <ele>1236.4449462891</ele>
        <time>2017-12-06T08:01:03Z</time>
      </trkpt>
      <trkpt lat="45.23135" lon="5.99071">
        <ele>1237.4449462891</ele>
        <time>2017-12-06T08:01:06Z</time>
      </trkpt>
      <trkpt lat="45.23132" lon="5.99076">
        <ele>1239.4449462891</ele>
        <time>2017-12-06T08:01:09Z</time>
      </trkpt>
      <trkpt lat="45.2313" lon="5.99081">
        <ele>1239.4449462891</ele>
        <time>2017-12-06T08:01:12Z</time>
      </trkpt>
      <trkpt lat="45.23126" lon="5.99086">
        <ele>1240.4449462891</ele>
        <time>2017-12-06T08:01:15Z</time>
      </trkpt>
      <trkpt lat="45.23121" lon="5.9909">
        <ele>1240.4449462891</ele>
        <time>2017-12-06T08:01:18Z</time>
      </trkpt>
      <trkpt lat="45.23116" lon="5.99095">
        <ele>1241.4449462891</ele>
        <time>2017-12-06T08:01:22Z</time>
      </trkpt>
      <trkpt lat="45.23112" lon="5.99098">
        <ele>1240.4449462891</ele>
        <time>2017-12-06T08:01:26Z</time>
      </trkpt>
      <trkpt lat="45.23108" lon="5.99101">
        <ele>1237.4449462891</ele>
        <time>2017-12-06T08:01:30Z</time>
      </trkpt>
      <trkpt lat="45.23104" lon="5.99105">
        <ele>1238.4449462891</ele>
        <time>2017-12-06T08:01:34Z</time>
      </trkpt>
      <trkpt lat="45.23099" lon="5.99107">
        <ele>1237.4449462891</ele>
        <time>2017-12-06T08:01:38Z</time>
      </trkpt>
      <trkpt lat="45.23094" lon="5.99109">
        <ele>1238.4449462891</ele>
        <time>2017-12-06T08:01:42Z</time>
      </trkpt>
      <trkpt lat="45.23089" lon="5.99111">
        <ele>1238.4449462891</ele>
        <time>2017-12-06T08:01:45Z</time>
      </trkpt>
      <trkpt lat="45.23085" lon="5.99112">
        <ele>1240.4449462891</ele>
        <time>2017-12-06T08:01:48Z</time>
      </trkpt>
      <trkpt lat="45.23079" lon="5.99115">
        <ele>1242.4449462891</ele>
        <time>2017-12-06T08:01:53Z</time>
      </trkpt>
      <trkpt lat="45.23075" lon="5.99118">
        <ele>1242.4449462891</ele>
        <time>2017-12-06T08:01:57Z</time>
      </trkpt>
      <trkpt lat="45.23069" lon="5.99121">
        <ele>1242.4449462891</ele>
        <time>2017-12-06T08:02:01Z</time>
      </trkpt>
      <trkpt lat="45.23064" lon="5.99123">
        <ele>1242.4449462891</ele>
        <time>2017-12-06T08:02:04Z</time>
      </trkpt>
      <trkpt lat="45.23059" lon="5.99126">
        <ele>1244.4449462891</ele>
        <time>2017-12-06T08:02:08Z</time>
      </trkpt>
      <trkpt lat="45.23054" lon="5.99128">
        <ele>1244.4449462891</ele>
        <time>2017-12-06T08:02:12Z</time>
      </trkpt>
      <trkpt lat="45.2305" lon="5.99131">
        <ele>1242.4449462891</ele>
        <time>2017-12-06T08:02:15Z</time>
      </trkpt>
      <trkpt lat="45.23045" lon="5.99132">
        <ele>1241.4449462891</ele>
        <time>2017-12-06T08:02:18Z</time>
      </trkpt>
      <trkpt lat="45.2304" lon="5.99135">
        <ele>1242.4449462891</ele>
        <time>2017-12-06T08:02:22Z</time>
      </trkpt>
      <trkpt lat="45.23035" lon="5.99138">
        <ele>1242.4449462891</ele>
        <time>2017-12-06T08:02:26Z</time>
      </trkpt>
      <trkpt lat="45.2303" lon="5.99141">
        <ele>1241.4449462891</ele>
        <time>2017-12-06T08:02:29Z</time>
      </trkpt>
      <trkpt lat="45.23025" lon="5.99142">
        <ele>1242.4449462891</ele>
        <time>2017-12-06T08:02:33Z</time>
      </trkpt>
      <trkpt lat="45.23019" lon="5.99146">
        <ele>1243.4449462891</ele>
        <time>2017-12-06T08:02:37Z</time>
      </trkpt>
      <trkpt lat="45.23014" lon="5.99148">
        <ele>1242.4449462891</ele>
        <time>2017-12-06T08:02:42Z</time>
      </trkpt>
      <trkpt lat="45.2301" lon="5.99151">
        <ele>1243.4449462891</ele>
        <time>2017-12-06T08:02:45Z</time>
      </trkpt>
      <trkpt lat="45.23005" lon="5.99154">
        <ele>1247.4449462891</ele>
        <time>2017-12-06T08:02:50Z</time>
      </trkpt>
      <trkpt lat="45.23001" lon="5.99157">
        <ele>1247.4449462891</ele>
        <time>2017-12-06T08:02:54Z</time>
      </trkpt>
      <trkpt lat="45.22996" lon="5.99159">
        <ele>1247.4449462891</ele>
        <time>2017-12-06T08:02:57Z</time>
      </trkpt>
      <trkpt lat="45.22991" lon="5.99161">
        <ele>1246.4449462891</ele>
        <time>2017-12-06T08:03:01Z</time>
      </trkpt>
      <trkpt lat="45.22986" lon="5.99163">
        <ele>1245.4449462891</ele>
        <time>2017-12-06T08:03:04Z</time>
      </trkpt>
      <trkpt lat="45.22981" lon="5.99164">
        <ele>1244.4449462891</ele>
        <time>2017-12-06T08:03:07Z</time>
      </trkpt>
      <trkpt lat="45.22975" lon="5.99165">
        <ele>1244.4449462891</ele>
        <time>2017-12-06T08:03:11Z</time>
      </trkpt>
      <trkpt lat="45.2297" lon="5.99165">
        <ele>1247.4449462891</ele>
        <time>2017-12-06T08:03:14Z</time>
      </trkpt>
      <trkpt lat="45.22966" lon="5.99168">
        <ele>1247.4449462891</ele>
        <time>2017-12-06T08:03:17Z</time>
      </trkpt>
      <trkpt lat="45.22961" lon="5.99168">
        <ele>1249.4449462891</ele>
        <time>2017-12-06T08:03:19Z</time>
      </trkpt>
      <trkpt lat="45.22956" lon="5.99169">
        <ele>1251.4449462891</ele>
        <time>2017-12-06T08:03:23Z</time>
      </trkpt>
      <trkpt lat="45.22951" lon="5.99169">
        <ele>1254.4449462891</ele>
        <time>2017-12-06T08:03:27Z</time>
      </trkpt>
      <trkpt lat="45.22946" lon="5.99168">
        <ele>1254.4449462891</ele>
        <time>2017-12-06T08:03:30Z</time>
      </trkpt>
      <trkpt lat="45.22941" lon="5.99167">
        <ele>1255.4449462891</ele>
        <time>2017-12-06T08:03:34Z</time>
      </trkpt>
      <trkpt lat="45.22936" lon="5.99167">
        <ele>1256.4449462891</ele>
        <time>2017-12-06T08:03:38Z</time>
      </trkpt>
      <trkpt lat="45.22931" lon="5.99167">
        <ele>1257.4449462891</ele>
        <time>2017-12-06T08:03:42Z</time>
      </trkpt>
      <trkpt lat="45.22926" lon="5.99169">
        <ele>1257.4449462891</ele>
        <time>2017-12-06T08:03:46Z</time>
      </trkpt>
      <trkpt lat="45.22921" lon="5.9917">
        <ele>1256.4449462891</ele>
        <time>2017-12-06T08:03:49Z</time>
      </trkpt>
      <trkpt lat="45.22917" lon="5.99174">
        <ele>1257.4449462891</ele>
        <time>2017-12-06T08:03:53Z</time>
      </trkpt>
      <trkpt lat="45.22913" lon="5.99178">
        <ele>1258.4449462891</ele>
        <time>2017-12-06T08:03:57Z</time>
      </trkpt>
      <trkpt lat="45.22909" lon="5.99183">
        <ele>1258.4449462891</ele>
        <time>2017-12-06T08:04:00Z</time>
      </trkpt>
      <trkpt lat="45.22904" lon="5.99188">
        <ele>1258.4449462891</ele>
        <time>2017-12-06T08:04:04Z</time>
      </trkpt>
      <trkpt lat="45.229" lon="5.99194">
        <ele>1257.4449462891</ele>
        <time>2017-12-06T08:04:08Z</time>
      </trkpt>
      <trkpt lat="45.22896" lon="5.99198">
        <ele>1258.4449462891</ele>
        <time>2017-12-06T08:04:11Z</time>
      </trkpt>
      <trkpt lat="45.22893" lon="5.99204">
        <ele>1260.4449462891</ele>
        <time>2017-12-06T08:04:15Z</time>
      </trkpt>
      <trkpt lat="45.22889" lon="5.99209">
        <ele>1263.4449462891</ele>
        <time>2017-12-06T08:04:19Z</time>
      </trkpt>
      <trkpt lat="45.22884" lon="5.99215">
        <ele>1265.4449462891</ele>
        <time>2017-12-06T08:04:23Z</time>
      </trkpt>
      <trkpt lat="45.2288" lon="5.99219">
        <ele>1267.4449462891</ele>
        <time>2017-12-06T08:04:26Z</time>
      </trkpt>
      <trkpt lat="45.22875" lon="5.99224">
        <ele>1267.4449462891</ele>
        <time>2017-12-06T08:04:30Z</time>
      </trkpt>
      <trkpt lat="45.22872" lon="5.9923">
        <ele>1266.4449462891</ele>
        <time>2017-12-06T08:04:33Z</time>
      </trkpt>
      <trkpt lat="45.2287" lon="5.99237">
        <ele>1265.4449462891</ele>
        <time>2017-12-06T08:04:36Z</time>
      </trkpt>
      <trkpt lat="45.22865" lon="5.99241">
        <ele>1266.4449462891</ele>
        <time>2017-12-06T08:04:40Z</time>
      </trkpt>
      <trkpt lat="45.22862" lon="5.99246">
        <ele>1267.4449462891</ele>
        <time>2017-12-06T08:04:44Z</time>
      </trkpt>
      <trkpt lat="45.2286" lon="5.99252">
        <ele>1267.4449462891</ele>
        <time>2017-12-06T08:04:47Z</time>
      </trkpt>
      <trkpt lat="45.22856" lon="5.99257">
        <ele>1266.4449462891</ele>
        <time>2017-12-06T08:04:51Z</time>
      </trkpt>
      <trkpt lat="45.22853" lon="5.99263">
        <ele>1267.4449462891</ele>
        <time>2017-12-06T08:04:55Z</time>
      </trkpt>
      <trkpt lat="45.22848" lon="5.99265">
        <ele>1265.4449462891</ele>
        <time>2017-12-06T08:04:58Z</time>
      </trkpt>
      <trkpt lat="45.22845" lon="5.99269">
        <ele>1265.4449462891</ele>
        <time>2017-12-06T08:05:02Z</time>
      </trkpt>
      <trkpt lat="45.2284" lon="5.99272">
        <ele>1265.4449462891</ele>
        <time>2017-12-06T08:05:05Z</time>
      </trkpt>
      <trkpt lat="45.22835" lon="5.99275">
        <ele>1264.4449462891</ele>
        <time>2017-12-06T08:05:09Z</time>
      </trkpt>
      <trkpt lat="45.22832" lon="5.9928">
        <ele>1265.4449462891</ele>
        <time>2017-12-06T08:05:13Z</time>
      </trkpt>
      <trkpt lat="45.22826" lon="5.99283">
        <ele>1265.4449462891</ele>
        <time>2017-12-06T08:05:17Z</time>
      </trkpt>
      <trkpt lat="45.22822" lon="5.99285">
        <ele>1264.4449462891</ele>
        <time>2017-12-06T08:05:20Z</time>
      </trkpt>
      <trkpt lat="45.22818" lon="5.99288">
        <ele>1264.4449462891</ele>
        <time>2017-12-06T08:05:23Z</time>
      </trkpt>
      <trkpt lat="45.22813" lon="5.9929">
        <ele>1267.4449462891</ele>
        <time>2017-12-06T08:05:27Z</time>
      </trkpt>
      <trkpt lat="45.22808" lon="5.99294">
        <ele>1266.4449462891</ele>
        <time>2017-12-06T08:05:31Z</time>
      </trkpt>
      <trkpt lat="45.22804" lon="5.99298">
        <ele>1265.4449462891</ele>
        <time>2017-12-06T08:05:35Z</time>
      </trkpt>
      <trkpt lat="45.228" lon="5.99301">
        <ele>1267.4449462891</ele>
        <time>2017-12-06T08:05:38Z</time>
      </trkpt>
      <trkpt lat="45.22795" lon="5.99304">
        <ele>1267.4449462891</ele>
        <time>2017-12-06T08:05:42Z</time>
      </trkpt>
      <trkpt lat="45.22793" lon="5.9931">
        <ele>1268.4449462891</ele>
        <time>2017-12-06T08:05:45Z</time>
      </trkpt>
      <trkpt lat="45.22789" lon="5.99315">
        <ele>1268.4449462891</ele>
        <time>2017-12-06T08:05:47Z</time>
      </trkpt>
      <trkpt lat="45.22784" lon="5.99317">
        <ele>1268.4449462891</ele>
        <time>2017-12-06T08:05:50Z</time>
      </trkpt>
      <trkpt lat="45.2278" lon="5.99321">
        <ele>1270.4449462891</ele>
        <time>2017-12-06T08:05:53Z</time>
      </trkpt>
      <trkpt lat="45.22775" lon="5.99327">
        <ele>1270.4449462891</ele>
        <time>2017-12-06T08:05:57Z</time>
      </trkpt>
      <trkpt lat="45.22772" lon="5.99332">
        <ele>1269.4449462891</ele>
        <time>2017-12-06T08:06:00Z</time>
      </trkpt>
      <trkpt lat="45.22767" lon="5.99338">
        <ele>1271.4449462891</ele>
        <time>2017-12-06T08:06:03Z</time>
      </trkpt>
      <trkpt lat="45.22764" lon="5.99342">
        <ele>1274.4449462891</ele>
        <time>2017-12-06T08:06:06Z</time>
      </trkpt>
      <trkpt lat="45.22759" lon="5.99348">
        <ele>1275.4449462891</ele>
        <time>2017-12-06T08:06:10Z</time>
      </trkpt>
      <trkpt lat="45.22756" lon="5.99354">
        <ele>1274.4449462891</ele>
        <time>2017-12-06T08:06:13Z</time>
      </trkpt>
      <trkpt lat="45.22752" lon="5.99358">
        <ele>1274.4449462891</ele>
        <time>2017-12-06T08:06:16Z</time>
      </trkpt>
      <trkpt lat="45.22749" lon="5.99363">
        <ele>1274.4449462891</ele>
        <time>2017-12-06T08:06:19Z</time>
      </trkpt>
      <trkpt lat="45.22744" lon="5.99367">
        <ele>1275.4449462891</ele>
        <time>2017-12-06T08:06:23Z</time>
      </trkpt>
      <trkpt lat="45.2274" lon="5.99373">
        <ele>1275.4449462891</ele>
        <time>2017-12-06T08:06:27Z</time>
      </trkpt>
      <trkpt lat="45.22735" lon="5.99377">
        <ele>1276.4449462891</ele>
        <time>2017-12-06T08:06:31Z</time>
      </trkpt>
      <trkpt lat="45.22731" lon="5.99382">
        <ele>1276.4449462891</ele>
        <time>2017-12-06T08:06:35Z</time>
      </trkpt>
      <trkpt lat="45.22727" lon="5.99386">
        <ele>1278.4449462891</ele>
        <time>2017-12-06T08:06:38Z</time>
      </trkpt>
      <trkpt lat="45.22722" lon="5.99391">
        <ele>1279.4449462891</ele>
        <time>2017-12-06T08:06:42Z</time>
      </trkpt>
      <trkpt lat="45.22718" lon="5.99397">
        <ele>1280.4449462891</ele>
        <time>2017-12-06T08:06:46Z</time>
      </trkpt>
      <trkpt lat="45.22712" lon="5.994">
        <ele>1279.4449462891</ele>
        <time>2017-12-06T08:06:50Z</time>
      </trkpt>
      <trkpt lat="45.22707" lon="5.99402">
        <ele>1280.4449462891</ele>
        <time>2017-12-06T08:06:54Z</time>
      </trkpt>
      <trkpt lat="45.22702" lon="5.99405">
        <ele>1281.4449462891</ele>
        <time>2017-12-06T08:06:57Z</time>
      </trkpt>
      <trkpt lat="45.22698" lon="5.99409">
        <ele>1282.4449462891</ele>
        <time>2017-12-06T08:07:00Z</time>
      </trkpt>
      <trkpt lat="45.22693" lon="5.99413">
        <ele>1281.4449462891</ele>
        <time>2017-12-06T08:07:05Z</time>
      </trkpt>
      <trkpt lat="45.22688" lon="5.99416">
        <ele>1283.4449462891</ele>
        <time>2017-12-06T08:07:09Z</time>
      </trkpt>
      <trkpt lat="45.22683" lon="5.9942">
        <ele>1283.4449462891</ele>
        <time>2017-12-06T08:07:13Z</time>
      </trkpt>
      <trkpt lat="45.22678" lon="5.99424">
        <ele>1280.4449462891</ele>
        <time>2017-12-06T08:07:17Z</time>
      </trkpt>
      <trkpt lat="45.22672" lon="5.99427">
        <ele>1280.4449462891</ele>
        <time>2017-12-06T08:07:21Z</time>
      </trkpt>
      <trkpt lat="45.22666" lon="5.99427">
        <ele>1283.4449462891</ele>
        <time>2017-12-06T08:07:25Z</time>
      </trkpt>
      <trkpt lat="45.2266" lon="5.99429">
        <ele>1284.4449462891</ele>
        <time>2017-12-06T08:07:29Z</time>
      </trkpt>
      <trkpt lat="45.22655" lon="5.9943">
        <ele>1286.4449462891</ele>
        <time>2017-12-06T08:07:32Z</time>
      </trkpt>
      <trkpt lat="45.2265" lon="5.99431">
        <ele>1289.4449462891</ele>
        <time>2017-12-06T08:07:35Z</time>
      </trkpt>
      <trkpt lat="45.22645" lon="5.99432">
        <ele>1290.4449462891</ele>
        <time>2017-12-06T08:07:38Z</time>
      </trkpt>
      <trkpt lat="45.2264" lon="5.99436">
        <ele>1292.4449462891</ele>
        <time>2017-12-06T08:07:43Z</time>
      </trkpt>
      <trkpt lat="45.22634" lon="5.99442">
        <ele>1297.4439697266</ele>
        <time>2017-12-06T08:07:48Z</time>
      </trkpt>
      <trkpt lat="45.2263" lon="5.99448">
        <ele>1301.4439697266</ele>
        <time>2017-12-06T08:07:53Z</time>
      </trkpt>
      <trkpt lat="45.22626" lon="5.99454">
        <ele>1301.4439697266</ele>
        <time>2017-12-06T08:07:58Z</time>
      </trkpt>
      <trkpt lat="45.22623" lon="5.99459">
        <ele>1302.4439697266</ele>
        <time>2017-12-06T08:08:02Z</time>
      </trkpt>
      <trkpt lat="45.22619" lon="5.99464">
        <ele>1300.4439697266</ele>
        <time>2017-12-06T08:08:06Z</time>
      </trkpt>
      <trkpt lat="45.22614" lon="5.99468">
        <ele>1303.4439697266</ele>
        <time>2017-12-06T08:08:09Z</time>
      </trkpt>
      <trkpt lat="45.22611" lon="5.99473">
        <ele>1301.4439697266</ele>
        <time>2017-12-06T08:08:12Z</time>
      </trkpt>
      <trkpt lat="45.22608" lon="5.99479">
        <ele>1302.4439697266</ele>
        <time>2017-12-06T08:08:15Z</time>
      </trkpt>
      <trkpt lat="45.22604" lon="5.99481">
        <ele>1303.4439697266</ele>
        <time>2017-12-06T08:08:19Z</time>
      </trkpt>
      <trkpt lat="45.22603" lon="5.99488">
        <ele>1301.4439697266</ele>
        <time>2017-12-06T08:08:23Z</time>
      </trkpt>
      <trkpt lat="45.22599" lon="5.99492">
        <ele>1301.4439697266</ele>
        <time>2017-12-06T08:08:26Z</time>
      </trkpt>
      <trkpt lat="45.22596" lon="5.99498">
        <ele>1302.4439697266</ele>
        <time>2017-12-06T08:08:29Z</time>
      </trkpt>
      <trkpt lat="45.22592" lon="5.99502">
        <ele>1303.4439697266</ele>
        <time>2017-12-06T08:08:33Z</time>
      </trkpt>
      <trkpt lat="45.22587" lon="5.99506">
        <ele>1302.4439697266</ele>
        <time>2017-12-06T08:08:37Z</time>
      </trkpt>
      <trkpt lat="45.22583" lon="5.99511">
        <ele>1303.4439697266</ele>
        <time>2017-12-06T08:08:40Z</time>
      </trkpt>
      <trkpt lat="45.2258" lon="5.99517">
        <ele>1304.4439697266</ele>
        <time>2017-12-06T08:08:44Z</time>
      </trkpt>
      <trkpt lat="45.22576" lon="5.99521">
        <ele>1305.4439697266</ele>
        <time>2017-12-06T08:08:48Z</time>
      </trkpt>
      <trkpt lat="45.22573" lon="5.99527">
        <ele>1306.4439697266</ele>
        <time>2017-12-06T08:08:52Z</time>
      </trkpt>
      <trkpt lat="45.22568" lon="5.99528">
        <ele>1305.4439697266</ele>
        <time>2017-12-06T08:08:56Z</time>
      </trkpt>
      <trkpt lat="45.22563" lon="5.99533">
        <ele>1306.4439697266</ele>
        <time>2017-12-06T08:09:00Z</time>
      </trkpt>
      <trkpt lat="45.22559" lon="5.99537">
        <ele>1307.4439697266</ele>
        <time>2017-12-06T08:09:04Z</time>
      </trkpt>
      <trkpt lat="45.22556" lon="5.99542">
        <ele>1307.4439697266</ele>
        <time>2017-12-06T08:09:07Z</time>
      </trkpt>
      <trkpt lat="45.22553" lon="5.99547">
        <ele>1307.4439697266</ele>
        <time>2017-12-06T08:09:10Z</time>
      </trkpt>
      <trkpt lat="45.2255" lon="5.99553">
        <ele>1307.4439697266</ele>
        <time>2017-12-06T08:09:14Z</time>
      </trkpt>
      <trkpt lat="45.22545" lon="5.9956">
        <ele>1306.4439697266</ele>
        <time>2017-12-06T08:09:18Z</time>
      </trkpt>
      <trkpt lat="45.22542" lon="5.99565">
        <ele>1305.4439697266</ele>
        <time>2017-12-06T08:09:21Z</time>
      </trkpt>
      <trkpt lat="45.2254" lon="5.99573">
        <ele>1305.4439697266</ele>
        <time>2017-12-06T08:09:25Z</time>
      </trkpt>
      <trkpt lat="45.22535" lon="5.99573">
        <ele>1307.4439697266</ele>
        <time>2017-12-06T08:09:28Z</time>
      </trkpt>
      <trkpt lat="45.22531" lon="5.99576">
        <ele>1307.4439697266</ele>
        <time>2017-12-06T08:09:31Z</time>
      </trkpt>
      <trkpt lat="45.22528" lon="5.9958">
        <ele>1309.4439697266</ele>
        <time>2017-12-06T08:09:34Z</time>
      </trkpt>
      <trkpt lat="45.22523" lon="5.99585">
        <ele>1311.4439697266</ele>
        <time>2017-12-06T08:09:38Z</time>
      </trkpt>
      <trkpt lat="45.22519" lon="5.99588">
        <ele>1311.4439697266</ele>
        <time>2017-12-06T08:09:41Z</time>
      </trkpt>
      <trkpt lat="45.22519" lon="5.99596">
        <ele>1312.4439697266</ele>
        <time>2017-12-06T08:09:44Z</time>
      </trkpt>
      <trkpt lat="45.22517" lon="5.99603">
        <ele>1317.4439697266</ele>
        <time>2017-12-06T08:09:47Z</time>
      </trkpt>
      <trkpt lat="45.22515" lon="5.9961">
        <ele>1320.4439697266</ele>
        <time>2017-12-06T08:09:50Z</time>
      </trkpt>
      <trkpt lat="45.22513" lon="5.99617">
        <ele>1320.4439697266</ele>
        <time>2017-12-06T08:09:53Z</time>
      </trkpt>
      <trkpt lat="45.22513" lon="5.99624">
        <ele>1322.4449462891</ele>
        <time>2017-12-06T08:09:56Z</time>
      </trkpt>
      <trkpt lat="45.22514" lon="5.99632">
        <ele>1321.4449462891</ele>
        <time>2017-12-06T08:10:00Z</time>
      </trkpt>
      <trkpt lat="45.22514" lon="5.99639">
        <ele>1322.4449462891</ele>
        <time>2017-12-06T08:10:04Z</time>
      </trkpt>
      <trkpt lat="45.22515" lon="5.99647">
        <ele>1324.4449462891</ele>
        <time>2017-12-06T08:10:08Z</time>
      </trkpt>
      <trkpt lat="45.22517" lon="5.99653">
        <ele>1320.4449462891</ele>
        <time>2017-12-06T08:10:11Z</time>
      </trkpt>
      <trkpt lat="45.22516" lon="5.99661">
        <ele>1321.4449462891</ele>
        <time>2017-12-06T08:10:14Z</time>
      </trkpt>
      <trkpt lat="45.22515" lon="5.99668">
        <ele>1323.4449462891</ele>
        <time>2017-12-06T08:10:20Z</time>
      </trkpt>
      <trkpt lat="45.22513" lon="5.99674">
        <ele>1326.4449462891</ele>
        <time>2017-12-06T08:10:23Z</time>
      </trkpt>
      <trkpt lat="45.22513" lon="5.99681">
        <ele>1324.4449462891</ele>
        <time>2017-12-06T08:10:26Z</time>
      </trkpt>
      <trkpt lat="45.22512" lon="5.99689">
        <ele>1327.4449462891</ele>
        <time>2017-12-06T08:10:29Z</time>
      </trkpt>
      <trkpt lat="45.22511" lon="5.99696">
        <ele>1328.4449462891</ele>
        <time>2017-12-06T08:10:32Z</time>
      </trkpt>
      <trkpt lat="45.22509" lon="5.99702">
        <ele>1331.4449462891</ele>
        <time>2017-12-06T08:10:36Z</time>
      </trkpt>
      <trkpt lat="45.22508" lon="5.99711">
        <ele>1333.4449462891</ele>
        <time>2017-12-06T08:10:40Z</time>
      </trkpt>
      <trkpt lat="45.22505" lon="5.99717">
        <ele>1333.4449462891</ele>
        <time>2017-12-06T08:10:43Z</time>
      </trkpt>
      <trkpt lat="45.22507" lon="5.99724">
        <ele>1332.4449462891</ele>
        <time>2017-12-06T08:10:45Z</time>
      </trkpt>
      <trkpt lat="45.22506" lon="5.99731">
        <ele>1333.4449462891</ele>
        <time>2017-12-06T08:10:48Z</time>
      </trkpt>
      <trkpt lat="45.22505" lon="5.99738">
        <ele>1333.4449462891</ele>
        <time>2017-12-06T08:10:51Z</time>
      </trkpt>
      <trkpt lat="45.22505" lon="5.99745">
        <ele>1333.4449462891</ele>
        <time>2017-12-06T08:10:55Z</time>
      </trkpt>
      <trkpt lat="45.22504" lon="5.99753">
        <ele>1334.4449462891</ele>
        <time>2017-12-06T08:10:58Z</time>
      </trkpt>
      <trkpt lat="45.22503" lon="5.9976">
        <ele>1332.4449462891</ele>
        <time>2017-12-06T08:11:02Z</time>
      </trkpt>
      <trkpt lat="45.22503" lon="5.99767">
        <ele>1329.4449462891</ele>
        <time>2017-12-06T08:11:05Z</time>
      </trkpt>
      <trkpt lat="45.22503" lon="5.99775">
        <ele>1327.4449462891</ele>
        <time>2017-12-06T08:11:08Z</time>
      </trkpt>
      <trkpt lat="45.225" lon="5.99781">
        <ele>1328.4449462891</ele>
        <time>2017-12-06T08:11:11Z</time>
      </trkpt>
      <trkpt lat="45.22499" lon="5.9979">
        <ele>1334.4449462891</ele>
        <time>2017-12-06T08:11:14Z</time>
      </trkpt>
      <trkpt lat="45.22498" lon="5.99797">
        <ele>1337.4449462891</ele>
        <time>2017-12-06T08:11:17Z</time>
      </trkpt>
      <trkpt lat="45.22493" lon="5.998">
        <ele>1339.4449462891</ele>
        <time>2017-12-06T08:11:21Z</time>
      </trkpt>
      <trkpt lat="45.22489" lon="5.99805">
        <ele>1341.4449462891</ele>
        <time>2017-12-06T08:11:25Z</time>
      </trkpt>
      <trkpt lat="45.22484" lon="5.99817">
        <ele>1340.4449462891</ele>
        <time>2017-12-06T08:11:30Z</time>
      </trkpt>
      <trkpt lat="45.22481" lon="5.99823">
        <ele>1341.4449462891</ele>
        <time>2017-12-06T08:11:34Z</time>
      </trkpt>
      <trkpt lat="45.22476" lon="5.99828">
        <ele>1342.4449462891</ele>
        <time>2017-12-06T08:11:38Z</time>
      </trkpt>
      <trkpt lat="45.22471" lon="5.99831">
        <ele>1340.4449462891</ele>
        <time>2017-12-06T08:11:41Z</time>
      </trkpt>
      <trkpt lat="45.22466" lon="5.99835">
        <ele>1339.4449462891</ele>
        <time>2017-12-06T08:11:44Z</time>
      </trkpt>
      <trkpt lat="45.22461" lon="5.99837">
        <ele>1338.4449462891</ele>
        <time>2017-12-06T08:11:46Z</time>
      </trkpt>
      <trkpt lat="45.22456" lon="5.99843">
        <ele>1342.4449462891</ele>
        <time>2017-12-06T08:11:49Z</time>
      </trkpt>
      <trkpt lat="45.22452" lon="5.99847">
        <ele>1342.4449462891</ele>
        <time>2017-12-06T08:11:53Z</time>
      </trkpt>
      <trkpt lat="45.22449" lon="5.99853">
        <ele>1339.4449462891</ele>
        <time>2017-12-06T08:11:57Z</time>
      </trkpt>
      <trkpt lat="45.22447" lon="5.99859">
        <ele>1341.4449462891</ele>
        <time>2017-12-06T08:12:00Z</time>
      </trkpt>
      <trkpt lat="45.22445" lon="5.99865">
        <ele>1340.4449462891</ele>
        <time>2017-12-06T08:12:04Z</time>
      </trkpt>
      <trkpt lat="45.22446" lon="5.99872">
        <ele>1341.4449462891</ele>
        <time>2017-12-06T08:12:08Z</time>
      </trkpt>
      <trkpt lat="45.22446" lon="5.99879">
        <ele>1342.4449462891</ele>
        <time>2017-12-06T08:12:13Z</time>
      </trkpt>
      <trkpt lat="45.22447" lon="5.99886">
        <ele>1342.4449462891</ele>
        <time>2017-12-06T08:12:19Z</time>
      </trkpt>
      <trkpt lat="45.2245" lon="5.99892">
        <ele>1341.4449462891</ele>
        <time>2017-12-06T08:12:24Z</time>
      </trkpt>
      <trkpt lat="45.2245" lon="5.99899">
        <ele>1339.4449462891</ele>
        <time>2017-12-06T08:12:28Z</time>
      </trkpt>
      <trkpt lat="45.22451" lon="5.99907">
        <ele>1340.4449462891</ele>
        <time>2017-12-06T08:12:32Z</time>
      </trkpt>
      <trkpt lat="45.22454" lon="5.99912">
        <ele>1343.4449462891</ele>
        <time>2017-12-06T08:12:37Z</time>
      </trkpt>
      <trkpt lat="45.22455" lon="5.99919">
        <ele>1344.4449462891</ele>
        <time>2017-12-06T08:12:43Z</time>
      </trkpt>
      <trkpt lat="45.22457" lon="5.99927">
        <ele>1345.4449462891</ele>
        <time>2017-12-06T08:12:49Z</time>
      </trkpt>
      <trkpt lat="45.22456" lon="5.99933">
        <ele>1347.4449462891</ele>
        <time>2017-12-06T08:12:57Z</time>
      </trkpt>
      <trkpt lat="45.22455" lon="5.99941">
        <ele>1348.4449462891</ele>
        <time>2017-12-06T08:13:00Z</time>
      </trkpt>
      <trkpt lat="45.22456" lon="5.99947">
        <ele>1350.4449462891</ele>
        <time>2017-12-06T08:13:04Z</time>
      </trkpt>
      <trkpt lat="45.22456" lon="5.99955">
        <ele>1352.4449462891</ele>
        <time>2017-12-06T08:13:08Z</time>
      </trkpt>
      <trkpt lat="45.22455" lon="5.99961">
        <ele>1354.4449462891</ele>
        <time>2017-12-06T08:13:14Z</time>
      </trkpt>
      <trkpt lat="45.22456" lon="5.99968">
        <ele>1353.4449462891</ele>
        <time>2017-12-06T08:13:17Z</time>
      </trkpt>
      <trkpt lat="45.22453" lon="5.99973">
        <ele>1355.4449462891</ele>
        <time>2017-12-06T08:13:23Z</time>
      </trkpt>
      <trkpt lat="45.22452" lon="5.9998">
        <ele>1361.4449462891</ele>
        <time>2017-12-06T08:13:34Z</time>
      </trkpt>
      <trkpt lat="45.22456" lon="5.99983">
        <ele>1359.4449462891</ele>
        <time>2017-12-06T08:13:37Z</time>
      </trkpt>
      <trkpt lat="45.22459" lon="5.99989">
        <ele>1354.4449462891</ele>
        <time>2017-12-06T08:13:40Z</time>
      </trkpt>
      <trkpt lat="45.22463" lon="5.99993">
        <ele>1359.4449462891</ele>
        <time>2017-12-06T08:13:47Z</time>
      </trkpt>
      <trkpt lat="45.22468" lon="5.99994">
        <ele>1360.4449462891</ele>
        <time>2017-12-06T08:13:52Z</time>
      </trkpt>
      <trkpt lat="45.22472" lon="5.99995">
        <ele>1359.4449462891</ele>
        <time>2017-12-06T08:13:57Z</time>
      </trkpt>
      <trkpt lat="45.22474" lon="6.00001">
        <ele>1362.4449462891</ele>
        <time>2017-12-06T08:14:11Z</time>
      </trkpt>
      <trkpt lat="45.22474" lon="6.00008">
        <ele>1364.4449462891</ele>
        <time>2017-12-06T08:14:36Z</time>
      </trkpt>
      <trkpt lat="45.22478" lon="6.00012">
        <ele>1365.4449462891</ele>
        <time>2017-12-06T08:14:43Z</time>
      </trkpt>
      <trkpt lat="45.22476" lon="6.0002">
        <ele>1369.4449462891</ele>
        <time>2017-12-06T08:15:01Z</time>
      </trkpt>
      <trkpt lat="45.22474" lon="6.00027">
        <ele>1371.4449462891</ele>
        <time>2017-12-06T08:15:08Z</time>
      </trkpt>
      <trkpt lat="45.22474" lon="6.00033">
        <ele>1375.4449462891</ele>
        <time>2017-12-06T08:15:14Z</time>
      </trkpt>
      <trkpt lat="45.22474" lon="6.0004">
        <ele>1373.4449462891</ele>
        <time>2017-12-06T08:15:27Z</time>
      </trkpt>
      <trkpt lat="45.22477" lon="6.00045">
        <ele>1376.4449462891</ele>
        <time>2017-12-06T08:15:53Z</time>
      </trkpt>
      <trkpt lat="45.22475" lon="6.00052">
        <ele>1376.4449462891</ele>
        <time>2017-12-06T08:15:59Z</time>
      </trkpt>
      <trkpt lat="45.22471" lon="6.00056">
        <ele>1378.4449462891</ele>
        <time>2017-12-06T08:16:04Z</time>
      </trkpt>
      <trkpt lat="45.22468" lon="6.00062">
        <ele>1378.4449462891</ele>
        <time>2017-12-06T08:16:09Z</time>
      </trkpt>
      <trkpt lat="45.22464" lon="6.00067">
        <ele>1383.4449462891</ele>
        <time>2017-12-06T08:16:14Z</time>
      </trkpt>
      <trkpt lat="45.22459" lon="6.00071">
        <ele>1382.4449462891</ele>
        <time>2017-12-06T08:16:19Z</time>
      </trkpt>
      <trkpt lat="45.22456" lon="6.00078">
        <ele>1382.4449462891</ele>
        <time>2017-12-06T08:16:24Z</time>
      </trkpt>
      <trkpt lat="45.22453" lon="6.00084">
        <ele>1386.4449462891</ele>
        <time>2017-12-06T08:16:29Z</time>
      </trkpt>
      <trkpt lat="45.2245" lon="6.00089">
        <ele>1387.4449462891</ele>
        <time>2017-12-06T08:16:32Z</time>
      </trkpt>
      <trkpt lat="45.22448" lon="6.00096">
        <ele>1385.4449462891</ele>
        <time>2017-12-06T08:16:38Z</time>
      </trkpt>
      <trkpt lat="45.22444" lon="6.001">
        <ele>1385.4449462891</ele>
        <time>2017-12-06T08:16:43Z</time>
      </trkpt>
      <trkpt lat="45.22441" lon="6.00105">
        <ele>1384.4449462891</ele>
        <time>2017-12-06T08:16:47Z</time>
      </trkpt>
      <trkpt lat="45.22436" lon="6.00107">
        <ele>1382.4449462891</ele>
        <time>2017-12-06T08:16:52Z</time>
      </trkpt>
      <trkpt lat="45.22432" lon="6.00111">
        <ele>1382.4449462891</ele>
        <time>2017-12-06T08:16:56Z</time>
      </trkpt>
      <trkpt lat="45.22429" lon="6.00116">
        <ele>1383.4449462891</ele>
        <time>2017-12-06T08:16:59Z</time>
      </trkpt>
      <trkpt lat="45.22425" lon="6.00121">
        <ele>1383.4449462891</ele>
        <time>2017-12-06T08:17:03Z</time>
      </trkpt>
      <trkpt lat="45.22421" lon="6.00128">
        <ele>1383.4449462891</ele>
        <time>2017-12-06T08:17:07Z</time>
      </trkpt>
      <trkpt lat="45.22417" lon="6.0013">
        <ele>1383.4449462891</ele>
        <time>2017-12-06T08:17:11Z</time>
      </trkpt>
      <trkpt lat="45.22413" lon="6.00136">
        <ele>1381.4449462891</ele>
        <time>2017-12-06T08:17:15Z</time>
      </trkpt>
      <trkpt lat="45.2241" lon="6.0014">
        <ele>1379.4449462891</ele>
        <time>2017-12-06T08:17:19Z</time>
      </trkpt>
      <trkpt lat="45.22405" lon="6.00142">
        <ele>1377.4449462891</ele>
        <time>2017-12-06T08:17:23Z</time>
      </trkpt>
      <trkpt lat="45.224" lon="6.00146">
        <ele>1376.4449462891</ele>
        <time>2017-12-06T08:17:27Z</time>
      </trkpt>
      <trkpt lat="45.22395" lon="6.00146">
        <ele>1377.4449462891</ele>
        <time>2017-12-06T08:17:31Z</time>
      </trkpt>
      <trkpt lat="45.22389" lon="6.00146">
        <ele>1378.4449462891</ele>
        <time>2017-12-06T08:17:34Z</time>
      </trkpt>
      <trkpt lat="45.22384" lon="6.00148">
        <ele>1380.4449462891</ele>
        <time>2017-12-06T08:17:37Z</time>
      </trkpt>
      <trkpt lat="45.2238" lon="6.00151">
        <ele>1379.4449462891</ele>
        <time>2017-12-06T08:17:41Z</time>
      </trkpt>
      <trkpt lat="45.22376" lon="6.00155">
        <ele>1380.4449462891</ele>
        <time>2017-12-06T08:17:47Z</time>
      </trkpt>
      <trkpt lat="45.22373" lon="6.00162">
        <ele>1377.4449462891</ele>
        <time>2017-12-06T08:17:51Z</time>
      </trkpt>
      <trkpt lat="45.22368" lon="6.00165">
        <ele>1380.4449462891</ele>
        <time>2017-12-06T08:17:54Z</time>
      </trkpt>
      <trkpt lat="45.22362" lon="6.00168">
        <ele>1381.4449462891</ele>
        <time>2017-12-06T08:17:57Z</time>
      </trkpt>
      <trkpt lat="45.22359" lon="6.00172">
        <ele>1383.4449462891</ele>
        <time>2017-12-06T08:18:00Z</time>
      </trkpt>
      <trkpt lat="45.22355" lon="6.00177">
        <ele>1245.4449462891</ele>
        <time>2017-12-06T08:18:03Z</time>
      </trkpt>
      <trkpt lat="45.22351" lon="6.00182">
        <ele>1330.4449462891</ele>
        <time>2017-12-06T08:18:08Z</time>
      </trkpt>
      <trkpt lat="45.22348" lon="6.00188">
        <ele>1360.4449462891</ele>
        <time>2017-12-06T08:18:12Z</time>
      </trkpt>
      <trkpt lat="45.22344" lon="6.00191">
        <ele>1372.4449462891</ele>
        <time>2017-12-06T08:18:16Z</time>
      </trkpt>
      <trkpt lat="45.2234" lon="6.00196">
        <ele>1378.4449462891</ele>
        <time>2017-12-06T08:18:19Z</time>
      </trkpt>
      <trkpt lat="45.22336" lon="6.002">
        <ele>1390.4449462891</ele>
        <time>2017-12-06T08:18:22Z</time>
      </trkpt>
      <trkpt lat="45.22332" lon="6.00203">
        <ele>1394.4449462891</ele>
        <time>2017-12-06T08:18:25Z</time>
      </trkpt>
      <trkpt lat="45.22327" lon="6.00206">
        <ele>1399.4449462891</ele>
        <time>2017-12-06T08:18:28Z</time>
      </trkpt>
      <trkpt lat="45.22321" lon="6.00208">
        <ele>1401.4449462891</ele>
        <time>2017-12-06T08:18:32Z</time>
      </trkpt>
      <trkpt lat="45.22316" lon="6.00209">
        <ele>1402.4449462891</ele>
        <time>2017-12-06T08:18:38Z</time>
      </trkpt>
      <trkpt lat="45.22311" lon="6.00212">
        <ele>1399.4449462891</ele>
        <time>2017-12-06T08:18:44Z</time>
      </trkpt>
      <trkpt lat="45.22308" lon="6.00217">
        <ele>1401.4449462891</ele>
        <time>2017-12-06T08:18:51Z</time>
      </trkpt>
      <trkpt lat="45.22308" lon="6.00224">
        <ele>1400.4449462891</ele>
        <time>2017-12-06T08:18:58Z</time>
      </trkpt>
      <trkpt lat="45.22306" lon="6.00231">
        <ele>1399.4449462891</ele>
        <time>2017-12-06T08:19:04Z</time>
      </trkpt>
      <trkpt lat="45.22305" lon="6.00238">
        <ele>1401.4449462891</ele>
        <time>2017-12-06T08:19:10Z</time>
      </trkpt>
      <trkpt lat="45.22308" lon="6.00243">
        <ele>1405.4449462891</ele>
        <time>2017-12-06T08:19:16Z</time>
      </trkpt>
      <trkpt lat="45.22312" lon="6.00248">
        <ele>1406.4449462891</ele>
        <time>2017-12-06T08:19:22Z</time>
      </trkpt>
      <trkpt lat="45.22315" lon="6.00254">
        <ele>1406.4449462891</ele>
        <time>2017-12-06T08:19:28Z</time>
      </trkpt>
      <trkpt lat="45.22317" lon="6.0026">
        <ele>1405.4449462891</ele>
        <time>2017-12-06T08:19:33Z</time>
      </trkpt>
      <trkpt lat="45.22319" lon="6.00267">
        <ele>1406.4449462891</ele>
        <time>2017-12-06T08:19:40Z</time>
      </trkpt>
      <trkpt lat="45.22317" lon="6.00274">
        <ele>1407.4449462891</ele>
        <time>2017-12-06T08:19:45Z</time>
      </trkpt>
      <trkpt lat="45.22316" lon="6.00281">
        <ele>1409.4449462891</ele>
        <time>2017-12-06T08:19:49Z</time>
      </trkpt>
      <trkpt lat="45.22317" lon="6.00288">
        <ele>1409.4449462891</ele>
        <time>2017-12-06T08:19:53Z</time>
      </trkpt>
      <trkpt lat="45.22319" lon="6.00295">
        <ele>1411.4449462891</ele>
        <time>2017-12-06T08:19:58Z</time>
      </trkpt>
      <trkpt lat="45.22319" lon="6.00301">
        <ele>1411.4449462891</ele>
        <time>2017-12-06T08:20:02Z</time>
      </trkpt>
      <trkpt lat="45.22317" lon="6.00309">
        <ele>1410.4449462891</ele>
        <time>2017-12-06T08:20:07Z</time>
      </trkpt>
      <trkpt lat="45.22317" lon="6.00316">
        <ele>1411.4449462891</ele>
        <time>2017-12-06T08:20:12Z</time>
      </trkpt>
      <trkpt lat="45.22317" lon="6.00324">
        <ele>1413.4449462891</ele>
        <time>2017-12-06T08:20:16Z</time>
      </trkpt>
      <trkpt lat="45.22316" lon="6.0033">
        <ele>1410.4449462891</ele>
        <time>2017-12-06T08:20:21Z</time>
      </trkpt>
      <trkpt lat="45.22315" lon="6.00337">
        <ele>1408.4449462891</ele>
        <time>2017-12-06T08:20:26Z</time>
      </trkpt>
      <trkpt lat="45.22314" lon="6.00344">
        <ele>1411.4449462891</ele>
        <time>2017-12-06T08:20:31Z</time>
      </trkpt>
      <trkpt lat="45.22311" lon="6.00349">
        <ele>1415.4449462891</ele>
        <time>2017-12-06T08:20:36Z</time>
      </trkpt>
      <trkpt lat="45.22308" lon="6.00354">
        <ele>1416.4449462891</ele>
        <time>2017-12-06T08:20:41Z</time>
      </trkpt>
      <trkpt lat="45.22305" lon="6.00359">
        <ele>1415.4449462891</ele>
        <time>2017-12-06T08:20:46Z</time>
      </trkpt>
      <trkpt lat="45.22301" lon="6.00365">
        <ele>1417.4449462891</ele>
        <time>2017-12-06T08:20:51Z</time>
      </trkpt>
      <trkpt lat="45.223" lon="6.00371">
        <ele>1417.4449462891</ele>
        <time>2017-12-06T08:20:55Z</time>
      </trkpt>
      <trkpt lat="45.22297" lon="6.00377">
        <ele>1422.4449462891</ele>
        <time>2017-12-06T08:21:00Z</time>
      </trkpt>
      <trkpt lat="45.22294" lon="6.00382">
        <ele>1423.4449462891</ele>
        <time>2017-12-06T08:21:06Z</time>
      </trkpt>
      <trkpt lat="45.22291" lon="6.00387">
        <ele>1424.4449462891</ele>
        <time>2017-12-06T08:21:12Z</time>
      </trkpt>
      <trkpt lat="45.22287" lon="6.00391">
        <ele>1428.4449462891</ele>
        <time>2017-12-06T08:21:18Z</time>
      </trkpt>
      <trkpt lat="45.22285" lon="6.00397">
        <ele>1429.4449462891</ele>
        <time>2017-12-06T08:21:25Z</time>
      </trkpt>
      <trkpt lat="45.22284" lon="6.00403">
        <ele>1432.4449462891</ele>
        <time>2017-12-06T08:21:33Z</time>
      </trkpt>
      <trkpt lat="45.22283" lon="6.00409">
        <ele>1435.4449462891</ele>
        <time>2017-12-06T08:21:38Z</time>
      </trkpt>
      <trkpt lat="45.2228" lon="6.00414">
        <ele>1436.4449462891</ele>
        <time>2017-12-06T08:21:47Z</time>
      </trkpt>
      <trkpt lat="45.22276" lon="6.00419">
        <ele>1436.4449462891</ele>
        <time>2017-12-06T08:21:53Z</time>
      </trkpt>
      <trkpt lat="45.22273" lon="6.00425">
        <ele>1437.4449462891</ele>
        <time>2017-12-06T08:21:58Z</time>
      </trkpt>
      <trkpt lat="45.22269" lon="6.00427">
        <ele>1439.4449462891</ele>
        <time>2017-12-06T08:22:03Z</time>
      </trkpt>
      <trkpt lat="45.22264" lon="6.00427">
        <ele>1442.4449462891</ele>
        <time>2017-12-06T08:22:09Z</time>
      </trkpt>
      <trkpt lat="45.22259" lon="6.00427">
        <ele>1445.4449462891</ele>
        <time>2017-12-06T08:22:14Z</time>
      </trkpt>
      <trkpt lat="45.22254" lon="6.00427">
        <ele>1449.4449462891</ele>
        <time>2017-12-06T08:22:21Z</time>
      </trkpt>
      <trkpt lat="45.22249" lon="6.00425">
        <ele>1452.4449462891</ele>
        <time>2017-12-06T08:22:28Z</time>
      </trkpt>
      <trkpt lat="45.22244" lon="6.00425">
        <ele>1455.4449462891</ele>
        <time>2017-12-06T08:22:36Z</time>
      </trkpt>
      <trkpt lat="45.22243" lon="6.00433">
        <ele>1454.4449462891</ele>
        <time>2017-12-06T08:22:45Z</time>
      </trkpt>
      <trkpt lat="45.22239" lon="6.00437">
        <ele>1453.4449462891</ele>
        <time>2017-12-06T08:22:49Z</time>
      </trkpt>
      <trkpt lat="45.22238" lon="6.00444">
        <ele>1455.4449462891</ele>
        <time>2017-12-06T08:22:55Z</time>
      </trkpt>
      <trkpt lat="45.22238" lon="6.00451">
        <ele>1456.4449462891</ele>
        <time>2017-12-06T08:23:00Z</time>
      </trkpt>
      <trkpt lat="45.22237" lon="6.00458">
        <ele>1457.4449462891</ele>
        <time>2017-12-06T08:23:06Z</time>
      </trkpt>
      <trkpt lat="45.22237" lon="6.00465">
        <ele>1459.4449462891</ele>
        <time>2017-12-06T08:23:11Z</time>
      </trkpt>
      <trkpt lat="45.22237" lon="6.00473">
        <ele>1464.4449462891</ele>
        <time>2017-12-06T08:23:17Z</time>
      </trkpt>
      <trkpt lat="45.22239" lon="6.00478">
        <ele>1466.4449462891</ele>
        <time>2017-12-06T08:23:23Z</time>
      </trkpt>
      <trkpt lat="45.22239" lon="6.00485">
        <ele>1465.4449462891</ele>
        <time>2017-12-06T08:23:28Z</time>
      </trkpt>
      <trkpt lat="45.22236" lon="6.0049">
        <ele>1466.4449462891</ele>
        <time>2017-12-06T08:23:34Z</time>
      </trkpt>
      <trkpt lat="45.22234" lon="6.00496">
        <ele>1469.4449462891</ele>
        <time>2017-12-06T08:23:43Z</time>
      </trkpt>
      <trkpt lat="45.22231" lon="6.00501">
        <ele>1471.4449462891</ele>
        <time>2017-12-06T08:23:50Z</time>
      </trkpt>
      <trkpt lat="45.22227" lon="6.00505">
        <ele>1475.4449462891</ele>
        <time>2017-12-06T08:23:55Z</time>
      </trkpt>
      <trkpt lat="45.22229" lon="6.00512">
        <ele>1476.4449462891</ele>
        <time>2017-12-06T08:24:02Z</time>
      </trkpt>
      <trkpt lat="45.22227" lon="6.00518">
        <ele>1478.4449462891</ele>
        <time>2017-12-06T08:24:07Z</time>
      </trkpt>
      <trkpt lat="45.22229" lon="6.00523">
        <ele>1480.4449462891</ele>
        <time>2017-12-06T08:24:11Z</time>
      </trkpt>
      <trkpt lat="45.22229" lon="6.0053">
        <ele>1480.4449462891</ele>
        <time>2017-12-06T08:24:16Z</time>
      </trkpt>
      <trkpt lat="45.22232" lon="6.00537">
        <ele>1482.4449462891</ele>
        <time>2017-12-06T08:24:20Z</time>
      </trkpt>
      <trkpt lat="45.22233" lon="6.00543">
        <ele>1485.4449462891</ele>
        <time>2017-12-06T08:24:26Z</time>
      </trkpt>
      <trkpt lat="45.22232" lon="6.0055">
        <ele>1485.4449462891</ele>
        <time>2017-12-06T08:24:32Z</time>
      </trkpt>
      <trkpt lat="45.22233" lon="6.00558">
        <ele>1489.4449462891</ele>
        <time>2017-12-06T08:24:38Z</time>
      </trkpt>
      <trkpt lat="45.22233" lon="6.00565">
        <ele>1490.4449462891</ele>
        <time>2017-12-06T08:24:44Z</time>
      </trkpt>
      <trkpt lat="45.22233" lon="6.00573">
        <ele>1491.4449462891</ele>
        <time>2017-12-06T08:24:51Z</time>
      </trkpt>
      <trkpt lat="45.22233" lon="6.0058">
        <ele>1496.4449462891</ele>
        <time>2017-12-06T08:24:57Z</time>
      </trkpt>
      <trkpt lat="45.22234" lon="6.00587">
        <ele>1494.4449462891</ele>
        <time>2017-12-06T08:25:04Z</time>
      </trkpt>
      <trkpt lat="45.22235" lon="6.00593">
        <ele>1495.4449462891</ele>
        <time>2017-12-06T08:25:09Z</time>
      </trkpt>
      <trkpt lat="45.22237" lon="6.00599">
        <ele>1493.4449462891</ele>
        <time>2017-12-06T08:25:15Z</time>
      </trkpt>
      <trkpt lat="45.22239" lon="6.00606">
        <ele>1495.4449462891</ele>
        <time>2017-12-06T08:25:21Z</time>
      </trkpt>
      <trkpt lat="45.2224" lon="6.00612">
        <ele>1496.4449462891</ele>
        <time>2017-12-06T08:25:27Z</time>
      </trkpt>
      <trkpt lat="45.22242" lon="6.00619">
        <ele>1498.4449462891</ele>
        <time>2017-12-06T08:25:33Z</time>
      </trkpt>
      <trkpt lat="45.22245" lon="6.00624">
        <ele>1500.4449462891</ele>
        <time>2017-12-06T08:25:38Z</time>
      </trkpt>
      <trkpt lat="45.22248" lon="6.0063">
        <ele>1501.4449462891</ele>
        <time>2017-12-06T08:25:44Z</time>
      </trkpt>
      <trkpt lat="45.22251" lon="6.00634">
        <ele>1503.4449462891</ele>
        <time>2017-12-06T08:25:49Z</time>
      </trkpt>
      <trkpt lat="45.22251" lon="6.00641">
        <ele>1504.4449462891</ele>
        <time>2017-12-06T08:25:55Z</time>
      </trkpt>
      <trkpt lat="45.2225" lon="6.00648">
        <ele>1503.4449462891</ele>
        <time>2017-12-06T08:26:01Z</time>
      </trkpt>
      <trkpt lat="45.2225" lon="6.00654">
        <ele>1503.4449462891</ele>
        <time>2017-12-06T08:26:06Z</time>
      </trkpt>
      <trkpt lat="45.2225" lon="6.00661">
        <ele>1503.4449462891</ele>
        <time>2017-12-06T08:26:10Z</time>
      </trkpt>
      <trkpt lat="45.2225" lon="6.00669">
        <ele>1504.4449462891</ele>
        <time>2017-12-06T08:26:14Z</time>
      </trkpt>
      <trkpt lat="45.22249" lon="6.00676">
        <ele>1505.4449462891</ele>
        <time>2017-12-06T08:26:18Z</time>
      </trkpt>
      <trkpt lat="45.22249" lon="6.00684">
        <ele>1506.4449462891</ele>
        <time>2017-12-06T08:26:23Z</time>
      </trkpt>
      <trkpt lat="45.22248" lon="6.00691">
        <ele>1508.4449462891</ele>
        <time>2017-12-06T08:26:27Z</time>
      </trkpt>
      <trkpt lat="45.22246" lon="6.00697">
        <ele>1512.4449462891</ele>
        <time>2017-12-06T08:26:32Z</time>
      </trkpt>
      <trkpt lat="45.22247" lon="6.00705">
        <ele>1512.4449462891</ele>
        <time>2017-12-06T08:26:36Z</time>
      </trkpt>
      <trkpt lat="45.22247" lon="6.00713">
        <ele>1512.4449462891</ele>
        <time>2017-12-06T08:26:41Z</time>
      </trkpt>
      <trkpt lat="45.22246" lon="6.00719">
        <ele>1517.4449462891</ele>
        <time>2017-12-06T08:26:45Z</time>
      </trkpt>
      <trkpt lat="45.22246" lon="6.00727">
        <ele>1519.4460449219</ele>
        <time>2017-12-06T08:26:51Z</time>
      </trkpt>
      <trkpt lat="45.22244" lon="6.00735">
        <ele>1522.4460449219</ele>
        <time>2017-12-06T08:26:57Z</time>
      </trkpt>
      <trkpt lat="45.22243" lon="6.00741">
        <ele>1524.4460449219</ele>
        <time>2017-12-06T08:27:02Z</time>
      </trkpt>
      <trkpt lat="45.2224" lon="6.00749">
        <ele>1530.4460449219</ele>
        <time>2017-12-06T08:27:05Z</time>
      </trkpt>
      <trkpt lat="45.22238" lon="6.00756">
        <ele>1533.4460449219</ele>
        <time>2017-12-06T08:27:09Z</time>
      </trkpt>
      <trkpt lat="45.22236" lon="6.00762">
        <ele>1534.4460449219</ele>
        <time>2017-12-06T08:27:13Z</time>
      </trkpt>
      <trkpt lat="45.22233" lon="6.00767">
        <ele>1537.4460449219</ele>
        <time>2017-12-06T08:27:19Z</time>
      </trkpt>
      <trkpt lat="45.22233" lon="6.00774">
        <ele>1537.4460449219</ele>
        <time>2017-12-06T08:27:24Z</time>
      </trkpt>
      <trkpt lat="45.22235" lon="6.00781">
        <ele>1537.4460449219</ele>
        <time>2017-12-06T08:27:30Z</time>
      </trkpt>
      <trkpt lat="45.22234" lon="6.00789">
        <ele>1537.4460449219</ele>
        <time>2017-12-06T08:27:37Z</time>
      </trkpt>
      <trkpt lat="45.22233" lon="6.00796">
        <ele>1538.4460449219</ele>
        <time>2017-12-06T08:27:45Z</time>
      </trkpt>
      <trkpt lat="45.22232" lon="6.00802">
        <ele>1540.4460449219</ele>
        <time>2017-12-06T08:27:50Z</time>
      </trkpt>
      <trkpt lat="45.22231" lon="6.00808">
        <ele>1540.4460449219</ele>
        <time>2017-12-06T08:27:54Z</time>
      </trkpt>
      <trkpt lat="45.2223" lon="6.00815">
        <ele>1542.4460449219</ele>
        <time>2017-12-06T08:28:00Z</time>
      </trkpt>
      <trkpt lat="45.22227" lon="6.00821">
        <ele>1544.4460449219</ele>
        <time>2017-12-06T08:28:05Z</time>
      </trkpt>
      <trkpt lat="45.22229" lon="6.00827">
        <ele>1542.4460449219</ele>
        <time>2017-12-06T08:28:12Z</time>
      </trkpt>
      <trkpt lat="45.22233" lon="6.00831">
        <ele>1543.4460449219</ele>
        <time>2017-12-06T08:28:17Z</time>
      </trkpt>
      <trkpt lat="45.22237" lon="6.00836">
        <ele>1544.4460449219</ele>
        <time>2017-12-06T08:28:23Z</time>
      </trkpt>
      <trkpt lat="45.2224" lon="6.00842">
        <ele>1546.4460449219</ele>
        <time>2017-12-06T08:28:29Z</time>
      </trkpt>
      <trkpt lat="45.22244" lon="6.00847">
        <ele>1548.4460449219</ele>
        <time>2017-12-06T08:28:34Z</time>
      </trkpt>
      <trkpt lat="45.22247" lon="6.00852">
        <ele>1547.4460449219</ele>
        <time>2017-12-06T08:28:38Z</time>
      </trkpt>
      <trkpt lat="45.22249" lon="6.00859">
        <ele>1544.4460449219</ele>
        <time>2017-12-06T08:28:43Z</time>
      </trkpt>
      <trkpt lat="45.22251" lon="6.00865">
        <ele>1545.4460449219</ele>
        <time>2017-12-06T08:28:48Z</time>
      </trkpt>
      <trkpt lat="45.22252" lon="6.00872">
        <ele>1545.4460449219</ele>
        <time>2017-12-06T08:28:52Z</time>
      </trkpt>
      <trkpt lat="45.22251" lon="6.00878">
        <ele>1548.4460449219</ele>
        <time>2017-12-06T08:28:58Z</time>
      </trkpt>
      <trkpt lat="45.22252" lon="6.00885">
        <ele>1550.4460449219</ele>
        <time>2017-12-06T08:29:02Z</time>
      </trkpt>
      <trkpt lat="45.22251" lon="6.00892">
        <ele>1549.4460449219</ele>
        <time>2017-12-06T08:29:08Z</time>
      </trkpt>
      <trkpt lat="45.22253" lon="6.00899">
        <ele>1548.4460449219</ele>
        <time>2017-12-06T08:29:14Z</time>
      </trkpt>
      <trkpt lat="45.22253" lon="6.00908">
        <ele>1552.4460449219</ele>
        <time>2017-12-06T08:29:24Z</time>
      </trkpt>
      <trkpt lat="45.22252" lon="6.00914">
        <ele>1552.4460449219</ele>
        <time>2017-12-06T08:29:29Z</time>
      </trkpt>
      <trkpt lat="45.22248" lon="6.00919">
        <ele>1553.4460449219</ele>
        <time>2017-12-06T08:29:35Z</time>
      </trkpt>
      <trkpt lat="45.22244" lon="6.00922">
        <ele>1553.4460449219</ele>
        <time>2017-12-06T08:29:40Z</time>
      </trkpt>
      <trkpt lat="45.22239" lon="6.0092">
        <ele>1558.4460449219</ele>
        <time>2017-12-06T08:29:48Z</time>
      </trkpt>
      <trkpt lat="45.22236" lon="6.00926">
        <ele>1558.4460449219</ele>
        <time>2017-12-06T08:29:54Z</time>
      </trkpt>
      <trkpt lat="45.22236" lon="6.00932">
        <ele>1560.4460449219</ele>
        <time>2017-12-06T08:30:03Z</time>
      </trkpt>
      <trkpt lat="45.22235" lon="6.0094">
        <ele>1560.4460449219</ele>
        <time>2017-12-06T08:30:12Z</time>
      </trkpt>
      <trkpt lat="45.22236" lon="6.00947">
        <ele>1562.4460449219</ele>
        <time>2017-12-06T08:30:17Z</time>
      </trkpt>
      <trkpt lat="45.22235" lon="6.00954">
        <ele>1563.4460449219</ele>
        <time>2017-12-06T08:30:22Z</time>
      </trkpt>
      <trkpt lat="45.22234" lon="6.00962">
        <ele>1562.4460449219</ele>
        <time>2017-12-06T08:30:27Z</time>
      </trkpt>
      <trkpt lat="45.22234" lon="6.00968">
        <ele>1564.4460449219</ele>
        <time>2017-12-06T08:30:32Z</time>
      </trkpt>
      <trkpt lat="45.22234" lon="6.00975">
        <ele>1568.4460449219</ele>
        <time>2017-12-06T08:30:38Z</time>
      </trkpt>
      <trkpt lat="45.22236" lon="6.00982">
        <ele>1571.4460449219</ele>
        <time>2017-12-06T08:30:43Z</time>
      </trkpt>
      <trkpt lat="45.22239" lon="6.00988">
        <ele>1573.4460449219</ele>
        <time>2017-12-06T08:30:47Z</time>
      </trkpt>
      <trkpt lat="45.2224" lon="6.00995">
        <ele>1575.4460449219</ele>
        <time>2017-12-06T08:30:51Z</time>
      </trkpt>
      <trkpt lat="45.22242" lon="6.01001">
        <ele>1577.4460449219</ele>
        <time>2017-12-06T08:30:55Z</time>
      </trkpt>
      <trkpt lat="45.22242" lon="6.01008">
        <ele>1580.4460449219</ele>
        <time>2017-12-06T08:30:59Z</time>
      </trkpt>
      <trkpt lat="45.22239" lon="6.01014">
        <ele>1580.4460449219</ele>
        <time>2017-12-06T08:31:02Z</time>
      </trkpt>
      <trkpt lat="45.22237" lon="6.0102">
        <ele>1579.4460449219</ele>
        <time>2017-12-06T08:31:07Z</time>
      </trkpt>
      <trkpt lat="45.22237" lon="6.01027">
        <ele>1578.4460449219</ele>
        <time>2017-12-06T08:31:11Z</time>
      </trkpt>
      <trkpt lat="45.22237" lon="6.01035">
        <ele>1578.4460449219</ele>
        <time>2017-12-06T08:31:16Z</time>
      </trkpt>
      <trkpt lat="45.22239" lon="6.01043">
        <ele>1580.4460449219</ele>
        <time>2017-12-06T08:31:21Z</time>
      </trkpt>
      <trkpt lat="45.22236" lon="6.0105">
        <ele>1580.4460449219</ele>
        <time>2017-12-06T08:31:26Z</time>
      </trkpt>
      <trkpt lat="45.22234" lon="6.01057">
        <ele>1578.4460449219</ele>
        <time>2017-12-06T08:31:31Z</time>
      </trkpt>
      <trkpt lat="45.22235" lon="6.01065">
        <ele>1580.4460449219</ele>
        <time>2017-12-06T08:31:36Z</time>
      </trkpt>
      <trkpt lat="45.22235" lon="6.01073">
        <ele>1581.4460449219</ele>
        <time>2017-12-06T08:31:40Z</time>
      </trkpt>
      <trkpt lat="45.22237" lon="6.0108">
        <ele>1581.4460449219</ele>
        <time>2017-12-06T08:31:45Z</time>
      </trkpt>
      <trkpt lat="45.22238" lon="6.01087">
        <ele>1584.4460449219</ele>
        <time>2017-12-06T08:31:53Z</time>
      </trkpt>
      <trkpt lat="45.22236" lon="6.01094">
        <ele>1583.4460449219</ele>
        <time>2017-12-06T08:31:56Z</time>
      </trkpt>
      <trkpt lat="45.22237" lon="6.01101">
        <ele>1585.4460449219</ele>
        <time>2017-12-06T08:32:01Z</time>
      </trkpt>
      <trkpt lat="45.22237" lon="6.01108">
        <ele>1586.4460449219</ele>
        <time>2017-12-06T08:32:05Z</time>
      </trkpt>
      <trkpt lat="45.22241" lon="6.01114">
        <ele>1588.4460449219</ele>
        <time>2017-12-06T08:32:09Z</time>
      </trkpt>
      <trkpt lat="45.22243" lon="6.01121">
        <ele>1589.4460449219</ele>
        <time>2017-12-06T08:32:13Z</time>
      </trkpt>
      <trkpt lat="45.22244" lon="6.01127">
        <ele>1592.4460449219</ele>
        <time>2017-12-06T08:32:18Z</time>
      </trkpt>
      <trkpt lat="45.22245" lon="6.01134">
        <ele>1594.4460449219</ele>
        <time>2017-12-06T08:32:22Z</time>
      </trkpt>
      <trkpt lat="45.22248" lon="6.0114">
        <ele>1598.4460449219</ele>
        <time>2017-12-06T08:32:25Z</time>
      </trkpt>
      <trkpt lat="45.22249" lon="6.01147">
        <ele>1598.4460449219</ele>
        <time>2017-12-06T08:32:31Z</time>
      </trkpt>
      <trkpt lat="45.22253" lon="6.01151">
        <ele>1599.4460449219</ele>
        <time>2017-12-06T08:32:35Z</time>
      </trkpt>
      <trkpt lat="45.22257" lon="6.01157">
        <ele>1602.4460449219</ele>
        <time>2017-12-06T08:32:40Z</time>
      </trkpt>
      <trkpt lat="45.22259" lon="6.01164">
        <ele>1604.4460449219</ele>
        <time>2017-12-06T08:32:45Z</time>
      </trkpt>
      <trkpt lat="45.22263" lon="6.01169">
        <ele>1608.4460449219</ele>
        <time>2017-12-06T08:32:52Z</time>
      </trkpt>
      <trkpt lat="45.22263" lon="6.01176">
        <ele>1608.4460449219</ele>
        <time>2017-12-06T08:32:57Z</time>
      </trkpt>
      <trkpt lat="45.22267" lon="6.01183">
        <ele>1611.4460449219</ele>
        <time>2017-12-06T08:33:04Z</time>
      </trkpt>
      <trkpt lat="45.22266" lon="6.01191">
        <ele>1611.4460449219</ele>
        <time>2017-12-06T08:33:08Z</time>
      </trkpt>
      <trkpt lat="45.22264" lon="6.01198">
        <ele>1613.4460449219</ele>
        <time>2017-12-06T08:33:15Z</time>
      </trkpt>
      <trkpt lat="45.22262" lon="6.01205">
        <ele>1615.4460449219</ele>
        <time>2017-12-06T08:33:21Z</time>
      </trkpt>
      <trkpt lat="45.22259" lon="6.01209">
        <ele>1618.4460449219</ele>
        <time>2017-12-06T08:33:27Z</time>
      </trkpt>
      <trkpt lat="45.22253" lon="6.01214">
        <ele>1619.4460449219</ele>
        <time>2017-12-06T08:33:32Z</time>
      </trkpt>
      <trkpt lat="45.2225" lon="6.01219">
        <ele>1619.4460449219</ele>
        <time>2017-12-06T08:33:36Z</time>
      </trkpt>
      <trkpt lat="45.22246" lon="6.01226">
        <ele>1622.4460449219</ele>
        <time>2017-12-06T08:33:41Z</time>
      </trkpt>
      <trkpt lat="45.22243" lon="6.01234">
        <ele>1622.4460449219</ele>
        <time>2017-12-06T08:33:48Z</time>
      </trkpt>
      <trkpt lat="45.22243" lon="6.01241">
        <ele>1622.4460449219</ele>
        <time>2017-12-06T08:33:53Z</time>
      </trkpt>
      <trkpt lat="45.22245" lon="6.01247">
        <ele>1625.4460449219</ele>
        <time>2017-12-06T08:33:59Z</time>
      </trkpt>
      <trkpt lat="45.22244" lon="6.01254">
        <ele>1625.4460449219</ele>
        <time>2017-12-06T08:34:06Z</time>
      </trkpt>
      <trkpt lat="45.2224" lon="6.0126">
        <ele>1626.4460449219</ele>
        <time>2017-12-06T08:34:10Z</time>
      </trkpt>
      <trkpt lat="45.2224" lon="6.01268">
        <ele>1629.4460449219</ele>
        <time>2017-12-06T08:34:14Z</time>
      </trkpt>
      <trkpt lat="45.22239" lon="6.01276">
        <ele>1632.4460449219</ele>
        <time>2017-12-06T08:34:19Z</time>
      </trkpt>
      <trkpt lat="45.22238" lon="6.01282">
        <ele>1632.4460449219</ele>
        <time>2017-12-06T08:34:24Z</time>
      </trkpt>
      <trkpt lat="45.22241" lon="6.01288">
        <ele>1635.4460449219</ele>
        <time>2017-12-06T08:34:28Z</time>
      </trkpt>
      <trkpt lat="45.22244" lon="6.01292">
        <ele>1637.4460449219</ele>
        <time>2017-12-06T08:34:33Z</time>
      </trkpt>
      <trkpt lat="45.22249" lon="6.01295">
        <ele>1638.4460449219</ele>
        <time>2017-12-06T08:34:40Z</time>
      </trkpt>
      <trkpt lat="45.22253" lon="6.01298">
        <ele>1640.4460449219</ele>
        <time>2017-12-06T08:34:44Z</time>
      </trkpt>
      <trkpt lat="45.22258" lon="6.01301">
        <ele>1644.4460449219</ele>
        <time>2017-12-06T08:34:49Z</time>
      </trkpt>
      <trkpt lat="45.22263" lon="6.01301">
        <ele>1646.4460449219</ele>
        <time>2017-12-06T08:34:56Z</time>
      </trkpt>
      <trkpt lat="45.22268" lon="6.01299">
        <ele>1649.4460449219</ele>
        <time>2017-12-06T08:35:03Z</time>
      </trkpt>
      <trkpt lat="45.22274" lon="6.01297">
        <ele>1649.4460449219</ele>
        <time>2017-12-06T08:35:06Z</time>
      </trkpt>
      <trkpt lat="45.22279" lon="6.01298">
        <ele>1650.4460449219</ele>
        <time>2017-12-06T08:35:10Z</time>
      </trkpt>
      <trkpt lat="45.22283" lon="6.01297">
        <ele>1649.4460449219</ele>
        <time>2017-12-06T08:35:14Z</time>
      </trkpt>
      <trkpt lat="45.22289" lon="6.01297">
        <ele>1651.4460449219</ele>
        <time>2017-12-06T08:35:18Z</time>
      </trkpt>
      <trkpt lat="45.22293" lon="6.01302">
        <ele>1652.4460449219</ele>
        <time>2017-12-06T08:35:23Z</time>
      </trkpt>
      <trkpt lat="45.22289" lon="6.01308">
        <ele>1651.4460449219</ele>
        <time>2017-12-06T08:35:29Z</time>
      </trkpt>
      <trkpt lat="45.22286" lon="6.01313">
        <ele>1655.4460449219</ele>
        <time>2017-12-06T08:35:34Z</time>
      </trkpt>
      <trkpt lat="45.22282" lon="6.01319">
        <ele>1653.4460449219</ele>
        <time>2017-12-06T08:35:37Z</time>
      </trkpt>
      <trkpt lat="45.22285" lon="6.01325">
        <ele>1653.4460449219</ele>
        <time>2017-12-06T08:35:42Z</time>
      </trkpt>
      <trkpt lat="45.22286" lon="6.01331">
        <ele>1653.4460449219</ele>
        <time>2017-12-06T08:35:47Z</time>
      </trkpt>
      <trkpt lat="45.22288" lon="6.01338">
        <ele>1654.4460449219</ele>
        <time>2017-12-06T08:35:53Z</time>
      </trkpt>
      <trkpt lat="45.22284" lon="6.01346">
        <ele>1654.4460449219</ele>
        <time>2017-12-06T08:35:57Z</time>
      </trkpt>
      <trkpt lat="45.2228" lon="6.01352">
        <ele>1654.4460449219</ele>
        <time>2017-12-06T08:36:00Z</time>
      </trkpt>
      <trkpt lat="45.22276" lon="6.01357">
        <ele>1657.4460449219</ele>
        <time>2017-12-06T08:36:05Z</time>
      </trkpt>
      <trkpt lat="45.22271" lon="6.0136">
        <ele>1657.4460449219</ele>
        <time>2017-12-06T08:36:10Z</time>
      </trkpt>
      <trkpt lat="45.22266" lon="6.01364">
        <ele>1658.4460449219</ele>
        <time>2017-12-06T08:36:13Z</time>
      </trkpt>
      <trkpt lat="45.22262" lon="6.01369">
        <ele>1661.4460449219</ele>
        <time>2017-12-06T08:36:17Z</time>
      </trkpt>
      <trkpt lat="45.22258" lon="6.01373">
        <ele>1664.4460449219</ele>
        <time>2017-12-06T08:36:27Z</time>
      </trkpt>
      <trkpt lat="45.22253" lon="6.01377">
        <ele>1664.4460449219</ele>
        <time>2017-12-06T08:36:32Z</time>
      </trkpt>
      <trkpt lat="45.22249" lon="6.0138">
        <ele>1666.4460449219</ele>
        <time>2017-12-06T08:36:36Z</time>
      </trkpt>
      <trkpt lat="45.22244" lon="6.01384">
        <ele>1666.4460449219</ele>
        <time>2017-12-06T08:36:41Z</time>
      </trkpt>
      <trkpt lat="45.22243" lon="6.01391">
        <ele>1667.4460449219</ele>
        <time>2017-12-06T08:36:46Z</time>
      </trkpt>
      <trkpt lat="45.22241" lon="6.01399">
        <ele>1671.4460449219</ele>
        <time>2017-12-06T08:36:55Z</time>
      </trkpt>
      <trkpt lat="45.22239" lon="6.01404">
        <ele>1673.4460449219</ele>
        <time>2017-12-06T08:37:02Z</time>
      </trkpt>
      <trkpt lat="45.22234" lon="6.01407">
        <ele>1671.4460449219</ele>
        <time>2017-12-06T08:37:05Z</time>
      </trkpt>
      <trkpt lat="45.22232" lon="6.01415">
        <ele>1670.4460449219</ele>
        <time>2017-12-06T08:37:09Z</time>
      </trkpt>
      <trkpt lat="45.22233" lon="6.01424">
        <ele>1671.4460449219</ele>
        <time>2017-12-06T08:37:14Z</time>
      </trkpt>
      <trkpt lat="45.22237" lon="6.01428">
        <ele>1669.4460449219</ele>
        <time>2017-12-06T08:37:16Z</time>
      </trkpt>
      <trkpt lat="45.22238" lon="6.01435">
        <ele>1666.4460449219</ele>
        <time>2017-12-06T08:37:21Z</time>
      </trkpt>
      <trkpt lat="45.22242" lon="6.01441">
        <ele>1665.4460449219</ele>
        <time>2017-12-06T08:37:24Z</time>
      </trkpt>
      <trkpt lat="45.22243" lon="6.01448">
        <ele>1663.4470214844</ele>
        <time>2017-12-06T08:37:27Z</time>
      </trkpt>
      <trkpt lat="45.22244" lon="6.01455">
        <ele>1666.4470214844</ele>
        <time>2017-12-06T08:37:31Z</time>
      </trkpt>
      <trkpt lat="45.22245" lon="6.01461">
        <ele>1668.4470214844</ele>
        <time>2017-12-06T08:37:35Z</time>
      </trkpt>
      <trkpt lat="45.22246" lon="6.0147">
        <ele>1669.4470214844</ele>
        <time>2017-12-06T08:37:41Z</time>
      </trkpt>
      <trkpt lat="45.22244" lon="6.01475">
        <ele>1670.4470214844</ele>
        <time>2017-12-06T08:37:43Z</time>
      </trkpt>
      <trkpt lat="45.22247" lon="6.01481">
        <ele>1671.4470214844</ele>
        <time>2017-12-06T08:37:46Z</time>
      </trkpt>
      <trkpt lat="45.2225" lon="6.01488">
        <ele>1673.4470214844</ele>
        <time>2017-12-06T08:37:49Z</time>
      </trkpt>
      <trkpt lat="45.2225" lon="6.01495">
        <ele>1673.4470214844</ele>
        <time>2017-12-06T08:37:51Z</time>
      </trkpt>
      <trkpt lat="45.22251" lon="6.01504">
        <ele>1673.4470214844</ele>
        <time>2017-12-06T08:37:54Z</time>
      </trkpt>
      <trkpt lat="45.22253" lon="6.0151">
        <ele>1674.4470214844</ele>
        <time>2017-12-06T08:37:56Z</time>
      </trkpt>
      <trkpt lat="45.22255" lon="6.01519">
        <ele>1673.4470214844</ele>
        <time>2017-12-06T08:37:59Z</time>
      </trkpt>
      <trkpt lat="45.22256" lon="6.01526">
        <ele>1672.4470214844</ele>
        <time>2017-12-06T08:38:02Z</time>
      </trkpt>
      <trkpt lat="45.22255" lon="6.01534">
        <ele>1671.4470214844</ele>
        <time>2017-12-06T08:38:06Z</time>
      </trkpt>
      <trkpt lat="45.22255" lon="6.01541">
        <ele>1668.4470214844</ele>
        <time>2017-12-06T08:38:09Z</time>
      </trkpt>
      <trkpt lat="45.22257" lon="6.01547">
        <ele>1669.4470214844</ele>
        <time>2017-12-06T08:38:12Z</time>
      </trkpt>
      <trkpt lat="45.22259" lon="6.01554">
        <ele>1669.4470214844</ele>
        <time>2017-12-06T08:38:15Z</time>
      </trkpt>
      <trkpt lat="45.2226" lon="6.01562">
        <ele>1670.4470214844</ele>
        <time>2017-12-06T08:38:18Z</time>
      </trkpt>
      <trkpt lat="45.2226" lon="6.01569">
        <ele>1671.4470214844</ele>
        <time>2017-12-06T08:38:21Z</time>
      </trkpt>
      <trkpt lat="45.22262" lon="6.01574">
        <ele>1671.4470214844</ele>
        <time>2017-12-06T08:38:23Z</time>
      </trkpt>
      <trkpt lat="45.22262" lon="6.01582">
        <ele>1673.4470214844</ele>
        <time>2017-12-06T08:38:26Z</time>
      </trkpt>
      <trkpt lat="45.22264" lon="6.01589">
        <ele>1672.4470214844</ele>
        <time>2017-12-06T08:38:29Z</time>
      </trkpt>
      <trkpt lat="45.22266" lon="6.01597">
        <ele>1672.4470214844</ele>
        <time>2017-12-06T08:38:32Z</time>
      </trkpt>
      <trkpt lat="45.22267" lon="6.01604">
        <ele>1672.4470214844</ele>
        <time>2017-12-06T08:38:35Z</time>
      </trkpt>
      <trkpt lat="45.22268" lon="6.01613">
        <ele>1674.4470214844</ele>
        <time>2017-12-06T08:38:38Z</time>
      </trkpt>
      <trkpt lat="45.2227" lon="6.01622">
        <ele>1674.4470214844</ele>
        <time>2017-12-06T08:38:40Z</time>
      </trkpt>
      <trkpt lat="45.22272" lon="6.01631">
        <ele>1672.4470214844</ele>
        <time>2017-12-06T08:38:44Z</time>
      </trkpt>
      <trkpt lat="45.22276" lon="6.01637">
        <ele>1674.4470214844</ele>
        <time>2017-12-06T08:38:47Z</time>
      </trkpt>
      <trkpt lat="45.22274" lon="6.01644">
        <ele>1673.4470214844</ele>
        <time>2017-12-06T08:38:49Z</time>
      </trkpt>
      <trkpt lat="45.22275" lon="6.01653">
        <ele>1678.4470214844</ele>
        <time>2017-12-06T08:38:51Z</time>
      </trkpt>
      <trkpt lat="45.22273" lon="6.01661">
        <ele>1677.4470214844</ele>
        <time>2017-12-06T08:38:53Z</time>
      </trkpt>
      <trkpt lat="45.22271" lon="6.0167">
        <ele>1679.4470214844</ele>
        <time>2017-12-06T08:38:55Z</time>
      </trkpt>
      <trkpt lat="45.22272" lon="6.01678">
        <ele>1679.4470214844</ele>
        <time>2017-12-06T08:38:57Z</time>
      </trkpt>
      <trkpt lat="45.22272" lon="6.01687">
        <ele>1678.4470214844</ele>
        <time>2017-12-06T08:39:00Z</time>
      </trkpt>
      <trkpt lat="45.22274" lon="6.01694">
        <ele>1678.4470214844</ele>
        <time>2017-12-06T08:39:02Z</time>
      </trkpt>
      <trkpt lat="45.22274" lon="6.01701">
        <ele>1678.4470214844</ele>
        <time>2017-12-06T08:39:04Z</time>
      </trkpt>
      <trkpt lat="45.22275" lon="6.01709">
        <ele>1678.4470214844</ele>
        <time>2017-12-06T08:39:06Z</time>
      </trkpt>
      <trkpt lat="45.22272" lon="6.01718">
        <ele>1678.4470214844</ele>
        <time>2017-12-06T08:39:09Z</time>
      </trkpt>
      <trkpt lat="45.22271" lon="6.01725">
        <ele>1679.4470214844</ele>
        <time>2017-12-06T08:39:11Z</time>
      </trkpt>
      <trkpt lat="45.22271" lon="6.01731">
        <ele>1678.4470214844</ele>
        <time>2017-12-06T08:39:14Z</time>
      </trkpt>
      <trkpt lat="45.2227" lon="6.01739">
        <ele>1674.4470214844</ele>
        <time>2017-12-06T08:39:18Z</time>
      </trkpt>
      <trkpt lat="45.22267" lon="6.01745">
        <ele>1674.4470214844</ele>
        <time>2017-12-06T08:39:20Z</time>
      </trkpt>
      <trkpt lat="45.22269" lon="6.01752">
        <ele>1677.4470214844</ele>
        <time>2017-12-06T08:39:24Z</time>
      </trkpt>
      <trkpt lat="45.22271" lon="6.01758">
        <ele>1679.4470214844</ele>
        <time>2017-12-06T08:39:28Z</time>
      </trkpt>
      <trkpt lat="45.2227" lon="6.01765">
        <ele>1679.4470214844</ele>
        <time>2017-12-06T08:39:33Z</time>
      </trkpt>
      <trkpt lat="45.22272" lon="6.01773">
        <ele>1680.4470214844</ele>
        <time>2017-12-06T08:39:40Z</time>
      </trkpt>
      <trkpt lat="45.22275" lon="6.01779">
        <ele>1679.4470214844</ele>
        <time>2017-12-06T08:39:45Z</time>
      </trkpt>
      <trkpt lat="45.22273" lon="6.01786">
        <ele>1681.4470214844</ele>
        <time>2017-12-06T08:39:52Z</time>
      </trkpt>
      <trkpt lat="45.22275" lon="6.01792">
        <ele>1679.4470214844</ele>
        <time>2017-12-06T08:40:01Z</time>
      </trkpt>
      <trkpt lat="45.22275" lon="6.01799">
        <ele>1678.4470214844</ele>
        <time>2017-12-06T08:40:09Z</time>
      </trkpt>
      <trkpt lat="45.22275" lon="6.01806">
        <ele>1681.4470214844</ele>
        <time>2017-12-06T08:40:15Z</time>
      </trkpt>
      <trkpt lat="45.22279" lon="6.0181">
        <ele>1684.4470214844</ele>
        <time>2017-12-06T08:40:24Z</time>
      </trkpt>
      <trkpt lat="45.22274" lon="6.01813">
        <ele>1688.4470214844</ele>
        <time>2017-12-06T08:40:31Z</time>
      </trkpt>
      <trkpt lat="45.2227" lon="6.01817">
        <ele>1690.4470214844</ele>
        <time>2017-12-06T08:40:36Z</time>
      </trkpt>
      <trkpt lat="45.22268" lon="6.01823">
        <ele>1691.4470214844</ele>
        <time>2017-12-06T08:40:43Z</time>
      </trkpt>
      <trkpt lat="45.22266" lon="6.0183">
        <ele>1689.4470214844</ele>
        <time>2017-12-06T08:40:48Z</time>
      </trkpt>
      <trkpt lat="45.22267" lon="6.01837">
        <ele>1692.4470214844</ele>
        <time>2017-12-06T08:40:54Z</time>
      </trkpt>
      <trkpt lat="45.22265" lon="6.01843">
        <ele>1699.4470214844</ele>
        <time>2017-12-06T08:41:11Z</time>
      </trkpt>
      <trkpt lat="45.22263" lon="6.01849">
        <ele>1698.4470214844</ele>
        <time>2017-12-06T08:41:14Z</time>
      </trkpt>
      <trkpt lat="45.2226" lon="6.01856">
        <ele>1697.4470214844</ele>
        <time>2017-12-06T08:41:17Z</time>
      </trkpt>
      <trkpt lat="45.2226" lon="6.01864">
        <ele>1697.4470214844</ele>
        <time>2017-12-06T08:41:22Z</time>
      </trkpt>
      <trkpt lat="45.22258" lon="6.01871">
        <ele>1698.4470214844</ele>
        <time>2017-12-06T08:41:25Z</time>
      </trkpt>
      <trkpt lat="45.22258" lon="6.01877">
        <ele>1696.4470214844</ele>
        <time>2017-12-06T08:41:29Z</time>
      </trkpt>
      <trkpt lat="45.22257" lon="6.01885">
        <ele>1693.4470214844</ele>
        <time>2017-12-06T08:41:33Z</time>
      </trkpt>
      <trkpt lat="45.22256" lon="6.01892">
        <ele>1693.4470214844</ele>
        <time>2017-12-06T08:41:37Z</time>
      </trkpt>
      <trkpt lat="45.22257" lon="6.01899">
        <ele>1693.4470214844</ele>
        <time>2017-12-06T08:41:40Z</time>
      </trkpt>
      <trkpt lat="45.2226" lon="6.01906">
        <ele>1693.4470214844</ele>
        <time>2017-12-06T08:41:44Z</time>
      </trkpt>
      <trkpt lat="45.22264" lon="6.01911">
        <ele>1695.4470214844</ele>
        <time>2017-12-06T08:41:48Z</time>
      </trkpt>
      <trkpt lat="45.22265" lon="6.01918">
        <ele>1695.4470214844</ele>
        <time>2017-12-06T08:41:52Z</time>
      </trkpt>
      <trkpt lat="45.22263" lon="6.01924">
        <ele>1695.4470214844</ele>
        <time>2017-12-06T08:41:55Z</time>
      </trkpt>
      <trkpt lat="45.22262" lon="6.01932">
        <ele>1696.4470214844</ele>
        <time>2017-12-06T08:41:59Z</time>
      </trkpt>
      <trkpt lat="45.2226" lon="6.01939">
        <ele>1697.4470214844</ele>
        <time>2017-12-06T08:42:03Z</time>
      </trkpt>
      <trkpt lat="45.22258" lon="6.01944">
        <ele>1695.4470214844</ele>
        <time>2017-12-06T08:42:06Z</time>
      </trkpt>
      <trkpt lat="45.22259" lon="6.01952">
        <ele>1695.4470214844</ele>
        <time>2017-12-06T08:42:10Z</time>
      </trkpt>
      <trkpt lat="45.22258" lon="6.0196">
        <ele>1694.4470214844</ele>
        <time>2017-12-06T08:42:13Z</time>
      </trkpt>
      <trkpt lat="45.22257" lon="6.01966">
        <ele>1694.4470214844</ele>
        <time>2017-12-06T08:42:15Z</time>
      </trkpt>
      <trkpt lat="45.22255" lon="6.01974">
        <ele>1695.4470214844</ele>
        <time>2017-12-06T08:42:17Z</time>
      </trkpt>
      <trkpt lat="45.22254" lon="6.01981">
        <ele>1696.4470214844</ele>
        <time>2017-12-06T08:42:22Z</time>
      </trkpt>
      <trkpt lat="45.22254" lon="6.01988">
        <ele>1695.4470214844</ele>
        <time>2017-12-06T08:42:27Z</time>
      </trkpt>
      <trkpt lat="45.22252" lon="6.01994">
        <ele>1692.4470214844</ele>
        <time>2017-12-06T08:42:31Z</time>
      </trkpt>
      <trkpt lat="45.22251" lon="6.02">
        <ele>1691.4470214844</ele>
        <time>2017-12-06T08:42:35Z</time>
      </trkpt>
      <trkpt lat="45.2225" lon="6.02006">
        <ele>1691.4470214844</ele>
        <time>2017-12-06T08:42:39Z</time>
      </trkpt>
      <trkpt lat="45.22249" lon="6.02013">
        <ele>1690.4470214844</ele>
        <time>2017-12-06T08:42:44Z</time>
      </trkpt>
      <trkpt lat="45.22247" lon="6.02019">
        <ele>1688.4470214844</ele>
        <time>2017-12-06T08:42:49Z</time>
      </trkpt>
      <trkpt lat="45.22248" lon="6.02027">
        <ele>1690.4470214844</ele>
        <time>2017-12-06T08:42:54Z</time>
      </trkpt>
      <trkpt lat="45.22249" lon="6.02033">
        <ele>1693.4470214844</ele>
        <time>2017-12-06T08:43:00Z</time>
      </trkpt>
      <trkpt lat="45.22251" lon="6.0204">
        <ele>1697.4470214844</ele>
        <time>2017-12-06T08:43:05Z</time>
      </trkpt>
      <trkpt lat="45.22251" lon="6.02046">
        <ele>1699.4470214844</ele>
        <time>2017-12-06T08:43:11Z</time>
      </trkpt>
      <trkpt lat="45.22248" lon="6.02052">
        <ele>1698.4470214844</ele>
        <time>2017-12-06T08:43:15Z</time>
      </trkpt>
      <trkpt lat="45.22246" lon="6.02057">
        <ele>1697.4470214844</ele>
        <time>2017-12-06T08:43:20Z</time>
      </trkpt>
      <trkpt lat="45.22248" lon="6.02065">
        <ele>1700.4470214844</ele>
        <time>2017-12-06T08:43:26Z</time>
      </trkpt>
      <trkpt lat="45.22248" lon="6.02071">
        <ele>1699.4470214844</ele>
        <time>2017-12-06T08:43:32Z</time>
      </trkpt>
      <trkpt lat="45.22251" lon="6.02077">
        <ele>1701.4470214844</ele>
        <time>2017-12-06T08:43:38Z</time>
      </trkpt>
      <trkpt lat="45.22251" lon="6.02084">
        <ele>1700.4470214844</ele>
        <time>2017-12-06T08:43:42Z</time>
      </trkpt>
      <trkpt lat="45.22249" lon="6.0209">
        <ele>1699.4470214844</ele>
        <time>2017-12-06T08:43:47Z</time>
      </trkpt>
      <trkpt lat="45.22248" lon="6.02098">
        <ele>1700.4470214844</ele>
        <time>2017-12-06T08:43:52Z</time>
      </trkpt>
      <trkpt lat="45.22251" lon="6.02104">
        <ele>1703.4470214844</ele>
        <time>2017-12-06T08:43:56Z</time>
      </trkpt>
      <trkpt lat="45.22249" lon="6.02111">
        <ele>1702.4470214844</ele>
        <time>2017-12-06T08:43:59Z</time>
      </trkpt>
      <trkpt lat="45.22248" lon="6.02118">
        <ele>1700.4470214844</ele>
        <time>2017-12-06T08:44:02Z</time>
      </trkpt>
      <trkpt lat="45.22247" lon="6.02125">
        <ele>1702.4470214844</ele>
        <time>2017-12-06T08:44:05Z</time>
      </trkpt>
      <trkpt lat="45.22245" lon="6.02132">
        <ele>1702.4470214844</ele>
        <time>2017-12-06T08:44:08Z</time>
      </trkpt>
      <trkpt lat="45.22244" lon="6.02139">
        <ele>1702.4470214844</ele>
        <time>2017-12-06T08:44:12Z</time>
      </trkpt>
      <trkpt lat="45.22243" lon="6.02146">
        <ele>1704.4470214844</ele>
        <time>2017-12-06T08:44:16Z</time>
      </trkpt>
      <trkpt lat="45.22242" lon="6.02153">
        <ele>1706.4470214844</ele>
        <time>2017-12-06T08:44:21Z</time>
      </trkpt>
      <trkpt lat="45.22245" lon="6.02158">
        <ele>1707.4470214844</ele>
        <time>2017-12-06T08:44:25Z</time>
      </trkpt>
      <trkpt lat="45.22251" lon="6.02161">
        <ele>1710.4479980469</ele>
        <time>2017-12-06T08:44:28Z</time>
      </trkpt>
      <trkpt lat="45.22256" lon="6.02161">
        <ele>1713.4479980469</ele>
        <time>2017-12-06T08:44:31Z</time>
      </trkpt>
      <trkpt lat="45.22262" lon="6.02161">
        <ele>1715.4479980469</ele>
        <time>2017-12-06T08:44:35Z</time>
      </trkpt>
      <trkpt lat="45.22267" lon="6.02162">
        <ele>1718.4479980469</ele>
        <time>2017-12-06T08:44:38Z</time>
      </trkpt>
      <trkpt lat="45.22272" lon="6.02163">
        <ele>1719.4479980469</ele>
        <time>2017-12-06T08:44:41Z</time>
      </trkpt>
      <trkpt lat="45.22277" lon="6.02164">
        <ele>1722.4479980469</ele>
        <time>2017-12-06T08:44:44Z</time>
      </trkpt>
      <trkpt lat="45.22282" lon="6.02163">
        <ele>1724.4479980469</ele>
        <time>2017-12-06T08:44:47Z</time>
      </trkpt>
      <trkpt lat="45.22288" lon="6.02164">
        <ele>1727.4479980469</ele>
        <time>2017-12-06T08:44:52Z</time>
      </trkpt>
      <trkpt lat="45.22292" lon="6.02165">
        <ele>1730.4479980469</ele>
        <time>2017-12-06T08:44:56Z</time>
      </trkpt>
      <trkpt lat="45.22297" lon="6.02168">
        <ele>1731.4479980469</ele>
        <time>2017-12-06T08:45:01Z</time>
      </trkpt>
      <trkpt lat="45.22302" lon="6.02169">
        <ele>1735.4479980469</ele>
        <time>2017-12-06T08:45:06Z</time>
      </trkpt>
      <trkpt lat="45.22307" lon="6.02172">
        <ele>1736.4479980469</ele>
        <time>2017-12-06T08:45:11Z</time>
      </trkpt>
      <trkpt lat="45.22312" lon="6.02173">
        <ele>1738.4479980469</ele>
        <time>2017-12-06T08:45:15Z</time>
      </trkpt>
      <trkpt lat="45.22315" lon="6.02179">
        <ele>1740.4479980469</ele>
        <time>2017-12-06T08:45:21Z</time>
      </trkpt>
      <trkpt lat="45.22319" lon="6.02182">
        <ele>1742.4479980469</ele>
        <time>2017-12-06T08:45:25Z</time>
      </trkpt>
      <trkpt lat="45.22321" lon="6.02189">
        <ele>1742.4479980469</ele>
        <time>2017-12-06T08:45:32Z</time>
      </trkpt>
      <trkpt lat="45.22324" lon="6.02195">
        <ele>1740.4479980469</ele>
        <time>2017-12-06T08:45:36Z</time>
      </trkpt>
      <trkpt lat="45.22327" lon="6.022">
        <ele>1740.4479980469</ele>
        <time>2017-12-06T08:45:41Z</time>
      </trkpt>
      <trkpt lat="45.22326" lon="6.02208">
        <ele>1736.4479980469</ele>
        <time>2017-12-06T08:45:46Z</time>
      </trkpt>
      <trkpt lat="45.22327" lon="6.02214">
        <ele>1734.4479980469</ele>
        <time>2017-12-06T08:45:50Z</time>
      </trkpt>
      <trkpt lat="45.22332" lon="6.02218">
        <ele>1735.4479980469</ele>
        <time>2017-12-06T08:45:54Z</time>
      </trkpt>
      <trkpt lat="45.22335" lon="6.02223">
        <ele>1736.4479980469</ele>
        <time>2017-12-06T08:45:59Z</time>
      </trkpt>
      <trkpt lat="45.22338" lon="6.02229">
        <ele>1736.4479980469</ele>
        <time>2017-12-06T08:46:05Z</time>
      </trkpt>
      <trkpt lat="45.22344" lon="6.02233">
        <ele>1738.4479980469</ele>
        <time>2017-12-06T08:46:10Z</time>
      </trkpt>
      <trkpt lat="45.22346" lon="6.02239">
        <ele>1737.4479980469</ele>
        <time>2017-12-06T08:46:15Z</time>
      </trkpt>
      <trkpt lat="45.22346" lon="6.02246">
        <ele>1734.4479980469</ele>
        <time>2017-12-06T08:46:21Z</time>
      </trkpt>
      <trkpt lat="45.22349" lon="6.02251">
        <ele>1735.4479980469</ele>
        <time>2017-12-06T08:46:28Z</time>
      </trkpt>
      <trkpt lat="45.22348" lon="6.02259">
        <ele>1739.4479980469</ele>
        <time>2017-12-06T08:46:33Z</time>
      </trkpt>
      <trkpt lat="45.22346" lon="6.02265">
        <ele>1738.4479980469</ele>
        <time>2017-12-06T08:46:36Z</time>
      </trkpt>
      <trkpt lat="45.22349" lon="6.0227">
        <ele>1741.4479980469</ele>
        <time>2017-12-06T08:46:39Z</time>
      </trkpt>
      <trkpt lat="45.22354" lon="6.02273">
        <ele>1749.4479980469</ele>
        <time>2017-12-06T08:46:44Z</time>
      </trkpt>
      <trkpt lat="45.22357" lon="6.02277">
        <ele>1753.4479980469</ele>
        <time>2017-12-06T08:46:49Z</time>
      </trkpt>
      <trkpt lat="45.22361" lon="6.02281">
        <ele>1754.4479980469</ele>
        <time>2017-12-06T08:46:54Z</time>
      </trkpt>
      <trkpt lat="45.22364" lon="6.02287">
        <ele>1756.4479980469</ele>
        <time>2017-12-06T08:47:00Z</time>
      </trkpt>
      <trkpt lat="45.22365" lon="6.02293">
        <ele>1756.4479980469</ele>
        <time>2017-12-06T08:47:05Z</time>
      </trkpt>
      <trkpt lat="45.2237" lon="6.02295">
        <ele>1760.4479980469</ele>
        <time>2017-12-06T08:47:10Z</time>
      </trkpt>
      <trkpt lat="45.22374" lon="6.02298">
        <ele>1764.4479980469</ele>
        <time>2017-12-06T08:47:16Z</time>
      </trkpt>
      <trkpt lat="45.22378" lon="6.02303">
        <ele>1765.4479980469</ele>
        <time>2017-12-06T08:47:21Z</time>
      </trkpt>
      <trkpt lat="45.22381" lon="6.02308">
        <ele>1769.4479980469</ele>
        <time>2017-12-06T08:47:29Z</time>
      </trkpt>
      <trkpt lat="45.22382" lon="6.02315">
        <ele>1772.4479980469</ele>
        <time>2017-12-06T08:47:37Z</time>
      </trkpt>
      <trkpt lat="45.22384" lon="6.02321">
        <ele>1774.4479980469</ele>
        <time>2017-12-06T08:47:42Z</time>
      </trkpt>
      <trkpt lat="45.22387" lon="6.02327">
        <ele>1774.4479980469</ele>
        <time>2017-12-06T08:47:48Z</time>
      </trkpt>
      <trkpt lat="45.22388" lon="6.02334">
        <ele>1775.4479980469</ele>
        <time>2017-12-06T08:47:56Z</time>
      </trkpt>
      <trkpt lat="45.2239" lon="6.0234">
        <ele>1778.4479980469</ele>
        <time>2017-12-06T08:48:03Z</time>
      </trkpt>
      <trkpt lat="45.22395" lon="6.02341">
        <ele>1781.4479980469</ele>
        <time>2017-12-06T08:48:08Z</time>
      </trkpt>
      <trkpt lat="45.22399" lon="6.02342">
        <ele>1785.4479980469</ele>
        <time>2017-12-06T08:48:14Z</time>
      </trkpt>
      <trkpt lat="45.22404" lon="6.02341">
        <ele>1786.4479980469</ele>
        <time>2017-12-06T08:48:19Z</time>
      </trkpt>
      <trkpt lat="45.22409" lon="6.02342">
        <ele>1787.4479980469</ele>
        <time>2017-12-06T08:48:24Z</time>
      </trkpt>
      <trkpt lat="45.22413" lon="6.02338">
        <ele>1790.4479980469</ele>
        <time>2017-12-06T08:48:33Z</time>
      </trkpt>
      <trkpt lat="45.22417" lon="6.02342">
        <ele>1793.4479980469</ele>
        <time>2017-12-06T08:48:46Z</time>
      </trkpt>
      <trkpt lat="45.22417" lon="6.0235">
        <ele>1794.4479980469</ele>
        <time>2017-12-06T08:48:53Z</time>
      </trkpt>
      <trkpt lat="45.22418" lon="6.02357">
        <ele>1795.4479980469</ele>
        <time>2017-12-06T08:48:58Z</time>
      </trkpt>
      <trkpt lat="45.22418" lon="6.02364">
        <ele>1797.4479980469</ele>
        <time>2017-12-06T08:49:05Z</time>
      </trkpt>
      <trkpt lat="45.2242" lon="6.02369">
        <ele>1798.4479980469</ele>
        <time>2017-12-06T08:49:09Z</time>
      </trkpt>
      <trkpt lat="45.22421" lon="6.02376">
        <ele>1799.4479980469</ele>
        <time>2017-12-06T08:49:16Z</time>
      </trkpt>
      <trkpt lat="45.22424" lon="6.02381">
        <ele>1801.4479980469</ele>
        <time>2017-12-06T08:49:23Z</time>
      </trkpt>
      <trkpt lat="45.22427" lon="6.02388">
        <ele>1801.4479980469</ele>
        <time>2017-12-06T08:49:29Z</time>
      </trkpt>
      <trkpt lat="45.22428" lon="6.02395">
        <ele>1803.4479980469</ele>
        <time>2017-12-06T08:49:36Z</time>
      </trkpt>
      <trkpt lat="45.22428" lon="6.02401">
        <ele>1803.4479980469</ele>
        <time>2017-12-06T08:49:42Z</time>
      </trkpt>
      <trkpt lat="45.2243" lon="6.02408">
        <ele>1803.4479980469</ele>
        <time>2017-12-06T08:49:48Z</time>
      </trkpt>
      <trkpt lat="45.22435" lon="6.02413">
        <ele>1806.4479980469</ele>
        <time>2017-12-06T08:49:55Z</time>
      </trkpt>
      <trkpt lat="45.22441" lon="6.02414">
        <ele>1811.4479980469</ele>
        <time>2017-12-06T08:50:08Z</time>
      </trkpt>
      <trkpt lat="45.22443" lon="6.0242">
        <ele>1810.4479980469</ele>
        <time>2017-12-06T08:50:20Z</time>
      </trkpt>
      <trkpt lat="45.22442" lon="6.02427">
        <ele>1812.4479980469</ele>
        <time>2017-12-06T08:50:25Z</time>
      </trkpt>
      <trkpt lat="45.22442" lon="6.02434">
        <ele>1813.4479980469</ele>
        <time>2017-12-06T08:50:29Z</time>
      </trkpt>
      <trkpt lat="45.22441" lon="6.0244">
        <ele>1814.4479980469</ele>
        <time>2017-12-06T08:50:34Z</time>
      </trkpt>
      <trkpt lat="45.22439" lon="6.02446">
        <ele>1814.4479980469</ele>
        <time>2017-12-06T08:50:38Z</time>
      </trkpt>
      <trkpt lat="45.22441" lon="6.02452">
        <ele>1816.4479980469</ele>
        <time>2017-12-06T08:50:47Z</time>
      </trkpt>
      <trkpt lat="45.22441" lon="6.02459">
        <ele>1816.4479980469</ele>
        <time>2017-12-06T08:50:54Z</time>
      </trkpt>
      <trkpt lat="45.22442" lon="6.02466">
        <ele>1815.4479980469</ele>
        <time>2017-12-06T08:50:59Z</time>
      </trkpt>
      <trkpt lat="45.22443" lon="6.02472">
        <ele>1814.4479980469</ele>
        <time>2017-12-06T08:51:03Z</time>
      </trkpt>
      <trkpt lat="45.22445" lon="6.02478">
        <ele>1817.4479980469</ele>
        <time>2017-12-06T08:51:10Z</time>
      </trkpt>
      <trkpt lat="45.22446" lon="6.02486">
        <ele>1818.4479980469</ele>
        <time>2017-12-06T08:51:17Z</time>
      </trkpt>
      <trkpt lat="45.2245" lon="6.0249">
        <ele>1820.4479980469</ele>
        <time>2017-12-06T08:51:23Z</time>
      </trkpt>
      <trkpt lat="45.22454" lon="6.0249">
        <ele>1822.4479980469</ele>
        <time>2017-12-06T08:51:31Z</time>
      </trkpt>
      <trkpt lat="45.22459" lon="6.02489">
        <ele>1824.4479980469</ele>
        <time>2017-12-06T08:51:36Z</time>
      </trkpt>
      <trkpt lat="45.22463" lon="6.02492">
        <ele>1826.4479980469</ele>
        <time>2017-12-06T08:51:40Z</time>
      </trkpt>
      <trkpt lat="45.22464" lon="6.02499">
        <ele>1827.4479980469</ele>
        <time>2017-12-06T08:51:45Z</time>
      </trkpt>
      <trkpt lat="45.22467" lon="6.02505">
        <ele>1823.4479980469</ele>
        <time>2017-12-06T08:51:52Z</time>
      </trkpt>
      <trkpt lat="45.22471" lon="6.02511">
        <ele>1828.4479980469</ele>
        <time>2017-12-06T08:51:58Z</time>
      </trkpt>
      <trkpt lat="45.22473" lon="6.02518">
        <ele>1830.4479980469</ele>
        <time>2017-12-06T08:52:04Z</time>
      </trkpt>
      <trkpt lat="45.22476" lon="6.02525">
        <ele>1837.4479980469</ele>
        <time>2017-12-06T08:52:10Z</time>
      </trkpt>
      <trkpt lat="45.22477" lon="6.02531">
        <ele>1834.4479980469</ele>
        <time>2017-12-06T08:52:14Z</time>
      </trkpt>
      <trkpt lat="45.22476" lon="6.02539">
        <ele>1834.4479980469</ele>
        <time>2017-12-06T08:52:20Z</time>
      </trkpt>
      <trkpt lat="45.22479" lon="6.02545">
        <ele>1835.4479980469</ele>
        <time>2017-12-06T08:52:27Z</time>
      </trkpt>
      <trkpt lat="45.22484" lon="6.02549">
        <ele>1837.4489746094</ele>
        <time>2017-12-06T08:52:33Z</time>
      </trkpt>
      <trkpt lat="45.22486" lon="6.02555">
        <ele>1838.4489746094</ele>
        <time>2017-12-06T08:52:41Z</time>
      </trkpt>
      <trkpt lat="45.22492" lon="6.02554">
        <ele>1840.4489746094</ele>
        <time>2017-12-06T08:52:50Z</time>
      </trkpt>
      <trkpt lat="45.22496" lon="6.02552">
        <ele>1841.4489746094</ele>
        <time>2017-12-06T08:52:55Z</time>
      </trkpt>
      <trkpt lat="45.22501" lon="6.02555">
        <ele>1843.4489746094</ele>
        <time>2017-12-06T08:53:01Z</time>
      </trkpt>
      <trkpt lat="45.22503" lon="6.02561">
        <ele>1846.4489746094</ele>
        <time>2017-12-06T08:53:09Z</time>
      </trkpt>
      <trkpt lat="45.22506" lon="6.02567">
        <ele>1845.4489746094</ele>
        <time>2017-12-06T08:53:14Z</time>
      </trkpt>
      <trkpt lat="45.2251" lon="6.0257">
        <ele>1850.4489746094</ele>
        <time>2017-12-06T08:53:20Z</time>
      </trkpt>
      <trkpt lat="45.22513" lon="6.02574">
        <ele>1850.4489746094</ele>
        <time>2017-12-06T08:53:25Z</time>
      </trkpt>
      <trkpt lat="45.22515" lon="6.0258">
        <ele>1851.4489746094</ele>
        <time>2017-12-06T08:53:31Z</time>
      </trkpt>
      <trkpt lat="45.22517" lon="6.02587">
        <ele>1851.4489746094</ele>
        <time>2017-12-06T08:53:37Z</time>
      </trkpt>
      <trkpt lat="45.2252" lon="6.02592">
        <ele>1854.4489746094</ele>
        <time>2017-12-06T08:53:43Z</time>
      </trkpt>
      <trkpt lat="45.22525" lon="6.02595">
        <ele>1856.4489746094</ele>
        <time>2017-12-06T08:53:57Z</time>
      </trkpt>
      <trkpt lat="45.22529" lon="6.026">
        <ele>1854.4489746094</ele>
        <time>2017-12-06T08:54:03Z</time>
      </trkpt>
      <trkpt lat="45.22533" lon="6.02605">
        <ele>1856.4489746094</ele>
        <time>2017-12-06T08:54:09Z</time>
      </trkpt>
      <trkpt lat="45.22538" lon="6.02604">
        <ele>1860.4489746094</ele>
        <time>2017-12-06T08:54:16Z</time>
      </trkpt>
      <trkpt lat="45.22542" lon="6.02608">
        <ele>1863.4489746094</ele>
        <time>2017-12-06T08:54:22Z</time>
      </trkpt>
      <trkpt lat="45.22546" lon="6.02612">
        <ele>1866.4489746094</ele>
        <time>2017-12-06T08:54:27Z</time>
      </trkpt>
      <trkpt lat="45.22549" lon="6.02617">
        <ele>1866.4489746094</ele>
        <time>2017-12-06T08:54:31Z</time>
      </trkpt>
      <trkpt lat="45.2255" lon="6.02623">
        <ele>1866.4489746094</ele>
        <time>2017-12-06T08:54:36Z</time>
      </trkpt>
      <trkpt lat="45.22546" lon="6.02626">
        <ele>1865.4489746094</ele>
        <time>2017-12-06T08:54:42Z</time>
      </trkpt>
      <trkpt lat="45.2255" lon="6.02633">
        <ele>1869.4489746094</ele>
        <time>2017-12-06T08:54:49Z</time>
      </trkpt>
      <trkpt lat="45.22554" lon="6.02634">
        <ele>1870.4489746094</ele>
        <time>2017-12-06T08:54:54Z</time>
      </trkpt>
      <trkpt lat="45.22559" lon="6.02633">
        <ele>1871.4489746094</ele>
        <time>2017-12-06T08:54:59Z</time>
      </trkpt>
      <trkpt lat="45.22564" lon="6.02632">
        <ele>1872.4489746094</ele>
        <time>2017-12-06T08:55:04Z</time>
      </trkpt>
      <trkpt lat="45.22569" lon="6.02632">
        <ele>1874.4489746094</ele>
        <time>2017-12-06T08:55:09Z</time>
      </trkpt>
      <trkpt lat="45.22572" lon="6.02636">
        <ele>1874.4489746094</ele>
        <time>2017-12-06T08:55:14Z</time>
      </trkpt>
      <trkpt lat="45.22576" lon="6.02641">
        <ele>1874.4489746094</ele>
        <time>2017-12-06T08:55:19Z</time>
      </trkpt>
      <trkpt lat="45.22582" lon="6.02642">
        <ele>1874.4489746094</ele>
        <time>2017-12-06T08:57:12Z</time>
      </trkpt>
      <trkpt lat="45.22587" lon="6.02646">
        <ele>1875.4489746094</ele>
        <time>2017-12-06T08:57:15Z</time>
      </trkpt>
      <trkpt lat="45.22592" lon="6.02649">
        <ele>1877.4489746094</ele>
        <time>2017-12-06T08:57:19Z</time>
      </trkpt>
      <trkpt lat="45.22597" lon="6.02652">
        <ele>1877.4489746094</ele>
        <time>2017-12-06T08:57:22Z</time>
      </trkpt>
      <trkpt lat="45.226" lon="6.02658">
        <ele>1877.4489746094</ele>
        <time>2017-12-06T08:57:24Z</time>
      </trkpt>
      <trkpt lat="45.22603" lon="6.02664">
        <ele>1879.4489746094</ele>
        <time>2017-12-06T08:57:27Z</time>
      </trkpt>
      <trkpt lat="45.22606" lon="6.02669">
        <ele>1874.4489746094</ele>
        <time>2017-12-06T08:57:31Z</time>
      </trkpt>
      <trkpt lat="45.22612" lon="6.02681">
        <ele>1873.4489746094</ele>
        <time>2017-12-06T08:57:36Z</time>
      </trkpt>
      <trkpt lat="45.22616" lon="6.02686">
        <ele>1874.4489746094</ele>
        <time>2017-12-06T08:57:38Z</time>
      </trkpt>
      <trkpt lat="45.2262" lon="6.02689">
        <ele>1872.4489746094</ele>
        <time>2017-12-06T08:57:41Z</time>
      </trkpt>
      <trkpt lat="45.22626" lon="6.0269">
        <ele>1872.4489746094</ele>
        <time>2017-12-06T08:57:47Z</time>
      </trkpt>
      <trkpt lat="45.22632" lon="6.0269">
        <ele>1873.4489746094</ele>
        <time>2017-12-06T08:57:51Z</time>
      </trkpt>
      <trkpt lat="45.22636" lon="6.02691">
        <ele>1874.4489746094</ele>
        <time>2017-12-06T08:57:56Z</time>
      </trkpt>
      <trkpt lat="45.22641" lon="6.02694">
        <ele>1878.4489746094</ele>
        <time>2017-12-06T08:58:01Z</time>
      </trkpt>
      <trkpt lat="45.22647" lon="6.02698">
        <ele>1878.4489746094</ele>
        <time>2017-12-06T08:58:06Z</time>
      </trkpt>
      <trkpt lat="45.22652" lon="6.02699">
        <ele>1880.4489746094</ele>
        <time>2017-12-06T08:58:10Z</time>
      </trkpt>
      <trkpt lat="45.22657" lon="6.027">
        <ele>1881.4489746094</ele>
        <time>2017-12-06T08:58:14Z</time>
      </trkpt>
      <trkpt lat="45.22663" lon="6.02705">
        <ele>1880.4489746094</ele>
        <time>2017-12-06T08:58:18Z</time>
      </trkpt>
      <trkpt lat="45.22665" lon="6.02712">
        <ele>1879.4489746094</ele>
        <time>2017-12-06T08:58:23Z</time>
      </trkpt>
      <trkpt lat="45.22664" lon="6.0272">
        <ele>1879.4489746094</ele>
        <time>2017-12-06T08:58:27Z</time>
      </trkpt>
      <trkpt lat="45.22668" lon="6.02727">
        <ele>1878.4489746094</ele>
        <time>2017-12-06T08:58:30Z</time>
      </trkpt>
      <trkpt lat="45.22671" lon="6.02732">
        <ele>1879.4489746094</ele>
        <time>2017-12-06T08:58:32Z</time>
      </trkpt>
      <trkpt lat="45.22675" lon="6.02737">
        <ele>1880.4489746094</ele>
        <time>2017-12-06T08:58:36Z</time>
      </trkpt>
      <trkpt lat="45.22678" lon="6.02742">
        <ele>1882.4489746094</ele>
        <time>2017-12-06T08:58:39Z</time>
      </trkpt>
      <trkpt lat="45.22683" lon="6.02743">
        <ele>1882.4489746094</ele>
        <time>2017-12-06T08:58:42Z</time>
      </trkpt>
      <trkpt lat="45.22688" lon="6.02743">
        <ele>1880.4489746094</ele>
        <time>2017-12-06T08:58:46Z</time>
      </trkpt>
      <trkpt lat="45.22686" lon="6.02749">
        <ele>1881.4489746094</ele>
        <time>2017-12-06T08:58:52Z</time>
      </trkpt>
      <trkpt lat="45.22689" lon="6.02754">
        <ele>1885.4489746094</ele>
        <time>2017-12-06T08:59:02Z</time>
      </trkpt>
      <trkpt lat="45.22691" lon="6.02762">
        <ele>1887.4489746094</ele>
        <time>2017-12-06T08:59:10Z</time>
      </trkpt>
      <trkpt lat="45.22696" lon="6.02764">
        <ele>1895.4489746094</ele>
        <time>2017-12-06T08:59:22Z</time>
      </trkpt>
      <trkpt lat="45.227" lon="6.02768">
        <ele>1899.4489746094</ele>
        <time>2017-12-06T08:59:33Z</time>
      </trkpt>
      <trkpt lat="45.22701" lon="6.02775">
        <ele>1897.4489746094</ele>
        <time>2017-12-06T08:59:36Z</time>
      </trkpt>
      <trkpt lat="45.22706" lon="6.02779">
        <ele>1897.4489746094</ele>
        <time>2017-12-06T08:59:41Z</time>
      </trkpt>
      <trkpt lat="45.22711" lon="6.02781">
        <ele>1897.4489746094</ele>
        <time>2017-12-06T08:59:50Z</time>
      </trkpt>
      <trkpt lat="45.22716" lon="6.0278">
        <ele>1901.4489746094</ele>
        <time>2017-12-06T08:59:55Z</time>
      </trkpt>
      <trkpt lat="45.22722" lon="6.02782">
        <ele>1900.4489746094</ele>
        <time>2017-12-06T09:00:02Z</time>
      </trkpt>
      <trkpt lat="45.22724" lon="6.02787">
        <ele>1906.4489746094</ele>
        <time>2017-12-06T09:00:21Z</time>
      </trkpt>
      <trkpt lat="45.22723" lon="6.02793">
        <ele>1908.4489746094</ele>
        <time>2017-12-06T09:00:28Z</time>
      </trkpt>
      <trkpt lat="45.2272" lon="6.028">
        <ele>1909.4489746094</ele>
        <time>2017-12-06T09:00:34Z</time>
      </trkpt>
      <trkpt lat="45.22718" lon="6.02806">
        <ele>1908.4489746094</ele>
        <time>2017-12-06T09:00:45Z</time>
      </trkpt>
      <trkpt lat="45.22715" lon="6.02811">
        <ele>1905.4489746094</ele>
        <time>2017-12-06T09:00:50Z</time>
      </trkpt>
      <trkpt lat="45.22711" lon="6.02815">
        <ele>1903.4489746094</ele>
        <time>2017-12-06T09:00:53Z</time>
      </trkpt>
      <trkpt lat="45.22708" lon="6.0282">
        <ele>1904.4489746094</ele>
        <time>2017-12-06T09:00:56Z</time>
      </trkpt>
      <trkpt lat="45.22705" lon="6.02825">
        <ele>1909.4489746094</ele>
        <time>2017-12-06T09:01:01Z</time>
      </trkpt>
      <trkpt lat="45.22701" lon="6.02831">
        <ele>1912.4489746094</ele>
        <time>2017-12-06T09:01:12Z</time>
      </trkpt>
      <trkpt lat="45.227" lon="6.02838">
        <ele>1912.4489746094</ele>
        <time>2017-12-06T09:01:16Z</time>
      </trkpt>
      <trkpt lat="45.22696" lon="6.02843">
        <ele>1912.4489746094</ele>
        <time>2017-12-06T09:01:24Z</time>
      </trkpt>
      <trkpt lat="45.22698" lon="6.02849">
        <ele>1919.4489746094</ele>
        <time>2017-12-06T09:01:35Z</time>
      </trkpt>
      <trkpt lat="45.22702" lon="6.02854">
        <ele>1919.4489746094</ele>
        <time>2017-12-06T09:01:38Z</time>
      </trkpt>
      <trkpt lat="45.22707" lon="6.02857">
        <ele>1878.4489746094</ele>
        <time>2017-12-06T09:01:47Z</time>
      </trkpt>
      <trkpt lat="45.2271" lon="6.02863">
        <ele>1893.4489746094</ele>
        <time>2017-12-06T09:01:50Z</time>
      </trkpt>
      <trkpt lat="45.22716" lon="6.02864">
        <ele>1908.4489746094</ele>
        <time>2017-12-06T09:01:56Z</time>
      </trkpt>
      <trkpt lat="45.22721" lon="6.02866">
        <ele>1918.4489746094</ele>
        <time>2017-12-06T09:02:03Z</time>
      </trkpt>
      <trkpt lat="45.22726" lon="6.02869">
        <ele>1923.4489746094</ele>
        <time>2017-12-06T09:02:10Z</time>
      </trkpt>
      <trkpt lat="45.2273" lon="6.02871">
        <ele>1928.4489746094</ele>
        <time>2017-12-06T09:02:16Z</time>
      </trkpt>
      <trkpt lat="45.22735" lon="6.02871">
        <ele>1932.4489746094</ele>
        <time>2017-12-06T09:02:23Z</time>
      </trkpt>
      <trkpt lat="45.2274" lon="6.02872">
        <ele>1937.4489746094</ele>
        <time>2017-12-06T09:02:35Z</time>
      </trkpt>
      <trkpt lat="45.22745" lon="6.02871">
        <ele>1939.4489746094</ele>
        <time>2017-12-06T09:02:47Z</time>
      </trkpt>
      <trkpt lat="45.22749" lon="6.02871">
        <ele>1940.4489746094</ele>
        <time>2017-12-06T09:02:51Z</time>
      </trkpt>
      <trkpt lat="45.22755" lon="6.02869">
        <ele>1942.4489746094</ele>
        <time>2017-12-06T09:02:59Z</time>
      </trkpt>
      <trkpt lat="45.2276" lon="6.02867">
        <ele>1948.4489746094</ele>
        <time>2017-12-06T09:03:05Z</time>
      </trkpt>
      <trkpt lat="45.22765" lon="6.02867">
        <ele>1949.4499511719</ele>
        <time>2017-12-06T09:03:12Z</time>
      </trkpt>
      <trkpt lat="45.2277" lon="6.02866">
        <ele>1948.4499511719</ele>
        <time>2017-12-06T09:03:22Z</time>
      </trkpt>
      <trkpt lat="45.22775" lon="6.02869">
        <ele>1949.4499511719</ele>
        <time>2017-12-06T09:03:27Z</time>
      </trkpt>
      <trkpt lat="45.2278" lon="6.0287">
        <ele>1951.4499511719</ele>
        <time>2017-12-06T09:03:34Z</time>
      </trkpt>
      <trkpt lat="45.22785" lon="6.02869">
        <ele>1954.4499511719</ele>
        <time>2017-12-06T09:03:38Z</time>
      </trkpt>
      <trkpt lat="45.2279" lon="6.02869">
        <ele>1956.4499511719</ele>
        <time>2017-12-06T09:03:43Z</time>
      </trkpt>
      <trkpt lat="45.22795" lon="6.02869">
        <ele>1961.4499511719</ele>
        <time>2017-12-06T09:03:58Z</time>
      </trkpt>
      <trkpt lat="45.22795" lon="6.02876">
        <ele>1961.4499511719</ele>
        <time>2017-12-06T09:04:11Z</time>
      </trkpt>
      <trkpt lat="45.22793" lon="6.02883">
        <ele>1965.4499511719</ele>
        <time>2017-12-06T09:04:19Z</time>
      </trkpt>
      <trkpt lat="45.22794" lon="6.0289">
        <ele>1966.4499511719</ele>
        <time>2017-12-06T09:04:22Z</time>
      </trkpt>
      <trkpt lat="45.22794" lon="6.02897">
        <ele>1966.4499511719</ele>
        <time>2017-12-06T09:04:27Z</time>
      </trkpt>
      <trkpt lat="45.22799" lon="6.029">
        <ele>1962.4499511719</ele>
        <time>2017-12-06T09:04:40Z</time>
      </trkpt>
      <trkpt lat="45.22803" lon="6.02903">
        <ele>1956.4499511719</ele>
        <time>2017-12-06T09:04:54Z</time>
      </trkpt>
      <trkpt lat="45.22803" lon="6.02896">
        <ele>1964.4499511719</ele>
        <time>2017-12-06T09:04:58Z</time>
      </trkpt>
      <trkpt lat="45.22808" lon="6.02899">
        <ele>1969.4499511719</ele>
        <time>2017-12-06T09:05:10Z</time>
      </trkpt>
      <trkpt lat="45.22813" lon="6.02901">
        <ele>1968.4499511719</ele>
        <time>2017-12-06T09:05:15Z</time>
      </trkpt>
      <trkpt lat="45.22817" lon="6.02905">
        <ele>1967.4499511719</ele>
        <time>2017-12-06T09:05:19Z</time>
      </trkpt>
      <trkpt lat="45.22821" lon="6.02904">
        <ele>1968.4499511719</ele>
        <time>2017-12-06T09:05:27Z</time>
      </trkpt>
      <trkpt lat="45.22817" lon="6.02903">
        <ele>1980.4499511719</ele>
        <time>2017-12-06T09:06:21Z</time>
      </trkpt>
      <trkpt lat="45.22818" lon="6.0291">
        <ele>1981.4499511719</ele>
        <time>2017-12-06T09:06:33Z</time>
      </trkpt>
      <trkpt lat="45.22814" lon="6.02914">
        <ele>1981.4499511719</ele>
        <time>2017-12-06T09:06:41Z</time>
      </trkpt>
      <trkpt lat="45.22815" lon="6.02922">
        <ele>1979.4499511719</ele>
        <time>2017-12-06T09:06:51Z</time>
      </trkpt>
      <trkpt lat="45.22816" lon="6.02928">
        <ele>1982.4499511719</ele>
        <time>2017-12-06T09:06:56Z</time>
      </trkpt>
      <trkpt lat="45.2282" lon="6.02931">
        <ele>1989.4499511719</ele>
        <time>2017-12-06T09:07:06Z</time>
      </trkpt>
      <trkpt lat="45.22825" lon="6.02935">
        <ele>1988.4499511719</ele>
        <time>2017-12-06T09:07:14Z</time>
      </trkpt>
      <trkpt lat="45.2283" lon="6.02933">
        <ele>1994.4499511719</ele>
        <time>2017-12-06T09:07:20Z</time>
      </trkpt>
      <trkpt lat="45.22834" lon="6.02937">
        <ele>1994.4499511719</ele>
        <time>2017-12-06T09:07:25Z</time>
      </trkpt>
      <trkpt lat="45.22839" lon="6.0294">
        <ele>1998.4499511719</ele>
        <time>2017-12-06T09:07:33Z</time>
      </trkpt>
      <trkpt lat="45.22845" lon="6.0294">
        <ele>1997.4499511719</ele>
        <time>2017-12-06T09:07:43Z</time>
      </trkpt>
      <trkpt lat="45.2285" lon="6.02942">
        <ele>1995.4499511719</ele>
        <time>2017-12-06T09:07:47Z</time>
      </trkpt>
      <trkpt lat="45.22855" lon="6.02947">
        <ele>1992.4499511719</ele>
        <time>2017-12-06T09:07:50Z</time>
      </trkpt>
      <trkpt lat="45.2286" lon="6.02946">
        <ele>1990.4499511719</ele>
        <time>2017-12-06T09:07:55Z</time>
      </trkpt>
      <trkpt lat="45.22865" lon="6.02947">
        <ele>1990.4499511719</ele>
        <time>2017-12-06T09:07:59Z</time>
      </trkpt>
      <trkpt lat="45.2287" lon="6.02946">
        <ele>1996.4499511719</ele>
        <time>2017-12-06T09:08:08Z</time>
      </trkpt>
      <trkpt lat="45.22875" lon="6.02951">
        <ele>1994.4499511719</ele>
        <time>2017-12-06T09:08:12Z</time>
      </trkpt>
      <trkpt lat="45.22877" lon="6.02957">
        <ele>1998.4499511719</ele>
        <time>2017-12-06T09:08:24Z</time>
      </trkpt>
      <trkpt lat="45.22879" lon="6.02962">
        <ele>2002.4499511719</ele>
        <time>2017-12-06T09:08:30Z</time>
      </trkpt>
      <trkpt lat="45.2288" lon="6.02969">
        <ele>2003.4499511719</ele>
        <time>2017-12-06T09:08:36Z</time>
      </trkpt>
      <trkpt lat="45.22883" lon="6.02974">
        <ele>2008.4499511719</ele>
        <time>2017-12-06T09:08:43Z</time>
      </trkpt>
      <trkpt lat="45.22887" lon="6.0298">
        <ele>2009.4499511719</ele>
        <time>2017-12-06T09:08:49Z</time>
      </trkpt>
      <trkpt lat="45.2289" lon="6.02984">
        <ele>2007.4499511719</ele>
        <time>2017-12-06T09:08:56Z</time>
      </trkpt>
      <trkpt lat="45.22892" lon="6.02991">
        <ele>2005.4499511719</ele>
        <time>2017-12-06T09:09:02Z</time>
      </trkpt>
      <trkpt lat="45.22896" lon="6.02996">
        <ele>2006.4499511719</ele>
        <time>2017-12-06T09:09:12Z</time>
      </trkpt>
      <trkpt lat="45.22899" lon="6.03001">
        <ele>2004.4499511719</ele>
        <time>2017-12-06T09:09:17Z</time>
      </trkpt>
      <trkpt lat="45.22902" lon="6.03006">
        <ele>2004.4499511719</ele>
        <time>2017-12-06T09:09:21Z</time>
      </trkpt>
      <trkpt lat="45.22905" lon="6.03011">
        <ele>2004.4499511719</ele>
        <time>2017-12-06T09:09:25Z</time>
      </trkpt>
      <trkpt lat="45.2291" lon="6.03014">
        <ele>2007.4499511719</ele>
        <time>2017-12-06T09:09:32Z</time>
      </trkpt>
      <trkpt lat="45.22914" lon="6.03018">
        <ele>2008.4499511719</ele>
        <time>2017-12-06T09:09:42Z</time>
      </trkpt>
      <trkpt lat="45.22919" lon="6.0302">
        <ele>2014.4499511719</ele>
        <time>2017-12-06T09:09:48Z</time>
      </trkpt>
      <trkpt lat="45.22923" lon="6.03016">
        <ele>2021.4499511719</ele>
        <time>2017-12-06T09:09:54Z</time>
      </trkpt>
      <trkpt lat="45.22928" lon="6.03017">
        <ele>2024.4499511719</ele>
        <time>2017-12-06T09:10:00Z</time>
      </trkpt>
      <trkpt lat="45.22933" lon="6.03016">
        <ele>2026.4499511719</ele>
        <time>2017-12-06T09:10:06Z</time>
      </trkpt>
      <trkpt lat="45.22938" lon="6.03015">
        <ele>2030.4499511719</ele>
        <time>2017-12-06T09:10:11Z</time>
      </trkpt>
      <trkpt lat="45.22943" lon="6.03013">
        <ele>2033.4499511719</ele>
        <time>2017-12-06T09:10:16Z</time>
      </trkpt>
      <trkpt lat="45.22948" lon="6.0301">
        <ele>2034.4499511719</ele>
        <time>2017-12-06T09:10:22Z</time>
      </trkpt>
      <trkpt lat="45.22953" lon="6.03009">
        <ele>2035.4499511719</ele>
        <time>2017-12-06T09:10:27Z</time>
      </trkpt>
      <trkpt lat="45.22957" lon="6.03006">
        <ele>2037.4499511719</ele>
        <time>2017-12-06T09:10:32Z</time>
      </trkpt>
      <trkpt lat="45.22962" lon="6.03003">
        <ele>2039.4499511719</ele>
        <time>2017-12-06T09:10:37Z</time>
      </trkpt>
      <trkpt lat="45.22967" lon="6.03002">
        <ele>2039.4499511719</ele>
        <time>2017-12-06T09:10:43Z</time>
      </trkpt>
      <trkpt lat="45.22972" lon="6.02999">
        <ele>2039.4499511719</ele>
        <time>2017-12-06T09:10:48Z</time>
      </trkpt>
      <trkpt lat="45.22977" lon="6.02998">
        <ele>2041.4499511719</ele>
        <time>2017-12-06T09:10:53Z</time>
      </trkpt>
      <trkpt lat="45.22982" lon="6.02995">
        <ele>2045.4499511719</ele>
        <time>2017-12-06T09:10:59Z</time>
      </trkpt>
      <trkpt lat="45.22987" lon="6.02993">
        <ele>2047.4499511719</ele>
        <time>2017-12-06T09:11:05Z</time>
      </trkpt>
      <trkpt lat="45.22991" lon="6.02992">
        <ele>2049.4499511719</ele>
        <time>2017-12-06T09:11:15Z</time>
      </trkpt>
      <trkpt lat="45.22997" lon="6.0299">
        <ele>2052.4499511719</ele>
        <time>2017-12-06T09:11:24Z</time>
      </trkpt>
      <trkpt lat="45.23001" lon="6.02989">
        <ele>2052.4499511719</ele>
        <time>2017-12-06T09:11:31Z</time>
      </trkpt>
      <trkpt lat="45.23006" lon="6.02988">
        <ele>2055.4499511719</ele>
        <time>2017-12-06T09:11:37Z</time>
      </trkpt>
      <trkpt lat="45.23011" lon="6.02987">
        <ele>2057.4499511719</ele>
        <time>2017-12-06T09:11:42Z</time>
      </trkpt>
      <trkpt lat="45.23016" lon="6.02985">
        <ele>2059.4499511719</ele>
        <time>2017-12-06T09:11:50Z</time>
      </trkpt>
      <trkpt lat="45.2302" lon="6.02983">
        <ele>2061.4499511719</ele>
        <time>2017-12-06T09:11:57Z</time>
      </trkpt>
      <trkpt lat="45.23022" lon="6.02989">
        <ele>2064.4499511719</ele>
        <time>2017-12-06T09:12:16Z</time>
      </trkpt>
      <trkpt lat="45.23021" lon="6.02995">
        <ele>2065.4499511719</ele>
        <time>2017-12-06T09:12:29Z</time>
      </trkpt>
      <trkpt lat="45.23025" lon="6.02999">
        <ele>2067.4499511719</ele>
        <time>2017-12-06T09:12:39Z</time>
      </trkpt>
      <trkpt lat="45.23029" lon="6.03">
        <ele>2070.4499511719</ele>
        <time>2017-12-06T09:12:45Z</time>
      </trkpt>
      <trkpt lat="45.23034" lon="6.02995">
        <ele>2080.4499511719</ele>
        <time>2017-12-06T09:12:57Z</time>
      </trkpt>
      <trkpt lat="45.23036" lon="6.02988">
        <ele>2082.4499511719</ele>
        <time>2017-12-06T09:13:02Z</time>
      </trkpt>
      <trkpt lat="45.2304" lon="6.02993">
        <ele>2080.4499511719</ele>
        <time>2017-12-06T09:13:07Z</time>
      </trkpt>
      <trkpt lat="45.23044" lon="6.02992">
        <ele>2082.4499511719</ele>
        <time>2017-12-06T09:13:11Z</time>
      </trkpt>
      <trkpt lat="45.23049" lon="6.02993">
        <ele>2082.4499511719</ele>
        <time>2017-12-06T09:13:15Z</time>
      </trkpt>
      <trkpt lat="45.23054" lon="6.02995">
        <ele>2078.4499511719</ele>
        <time>2017-12-06T09:13:19Z</time>
      </trkpt>
      <trkpt lat="45.23059" lon="6.02997">
        <ele>2070.4499511719</ele>
        <time>2017-12-06T09:13:23Z</time>
      </trkpt>
      <trkpt lat="45.23064" lon="6.02995">
        <ele>2080.4499511719</ele>
        <time>2017-12-06T09:13:29Z</time>
      </trkpt>
      <trkpt lat="45.2307" lon="6.02995">
        <ele>2085.4499511719</ele>
        <time>2017-12-06T09:13:35Z</time>
      </trkpt>
      <trkpt lat="45.23076" lon="6.02995">
        <ele>2086.4499511719</ele>
        <time>2017-12-06T09:13:40Z</time>
      </trkpt>
      <trkpt lat="45.2308" lon="6.02995">
        <ele>2087.4499511719</ele>
        <time>2017-12-06T09:13:50Z</time>
      </trkpt>
      <trkpt lat="45.23085" lon="6.02998">
        <ele>2089.4499511719</ele>
        <time>2017-12-06T09:16:58Z</time>
      </trkpt>
      <trkpt lat="45.23089" lon="6.03002">
        <ele>2086.4499511719</ele>
        <time>2017-12-06T09:17:02Z</time>
      </trkpt>
      <trkpt lat="45.23094" lon="6.03002">
        <ele>2085.4499511719</ele>
        <time>2017-12-06T09:17:06Z</time>
      </trkpt>
      <trkpt lat="45.23098" lon="6.03006">
        <ele>2090.4499511719</ele>
        <time>2017-12-06T09:17:11Z</time>
      </trkpt>
      <trkpt lat="45.23104" lon="6.03011">
        <ele>2089.4499511719</ele>
        <time>2017-12-06T09:17:16Z</time>
      </trkpt>
      <trkpt lat="45.23107" lon="6.03016">
        <ele>2086.4499511719</ele>
        <time>2017-12-06T09:17:23Z</time>
      </trkpt>
      <trkpt lat="45.23111" lon="6.0302">
        <ele>2087.4499511719</ele>
        <time>2017-12-06T09:17:31Z</time>
      </trkpt>
      <trkpt lat="45.23115" lon="6.03026">
        <ele>2087.4499511719</ele>
        <time>2017-12-06T09:17:35Z</time>
      </trkpt>
      <trkpt lat="45.2312" lon="6.03029">
        <ele>2085.4499511719</ele>
        <time>2017-12-06T09:17:43Z</time>
      </trkpt>
      <trkpt lat="45.23124" lon="6.03032">
        <ele>2085.4499511719</ele>
        <time>2017-12-06T09:17:48Z</time>
      </trkpt>
      <trkpt lat="45.23125" lon="6.03038">
        <ele>2084.4499511719</ele>
        <time>2017-12-06T09:17:52Z</time>
      </trkpt>
      <trkpt lat="45.23129" lon="6.03042">
        <ele>2087.4499511719</ele>
        <time>2017-12-06T09:17:59Z</time>
      </trkpt>
      <trkpt lat="45.23134" lon="6.03044">
        <ele>2089.4499511719</ele>
        <time>2017-12-06T09:18:04Z</time>
      </trkpt>
      <trkpt lat="45.2314" lon="6.03049">
        <ele>2078.4509277344</ele>
        <time>2017-12-06T09:18:07Z</time>
      </trkpt>
      <trkpt lat="45.23146" lon="6.03049">
        <ele>2087.4509277344</ele>
        <time>2017-12-06T09:18:11Z</time>
      </trkpt>
      <trkpt lat="45.23149" lon="6.03054">
        <ele>2089.4509277344</ele>
        <time>2017-12-06T09:18:16Z</time>
      </trkpt>
      <trkpt lat="45.23155" lon="6.03056">
        <ele>2088.4509277344</ele>
        <time>2017-12-06T09:18:21Z</time>
      </trkpt>
      <trkpt lat="45.23159" lon="6.0306">
        <ele>2092.4509277344</ele>
        <time>2017-12-06T09:18:27Z</time>
      </trkpt>
      <trkpt lat="45.23162" lon="6.03065">
        <ele>2092.4509277344</ele>
        <time>2017-12-06T09:18:35Z</time>
      </trkpt>
      <trkpt lat="45.23166" lon="6.03068">
        <ele>2093.4509277344</ele>
        <time>2017-12-06T09:18:38Z</time>
      </trkpt>
      <trkpt lat="45.23171" lon="6.03072">
        <ele>2097.4509277344</ele>
        <time>2017-12-06T09:18:43Z</time>
      </trkpt>
      <trkpt lat="45.23175" lon="6.03075">
        <ele>2097.4509277344</ele>
        <time>2017-12-06T09:18:50Z</time>
      </trkpt>
      <trkpt lat="45.2318" lon="6.03077">
        <ele>2097.4509277344</ele>
        <time>2017-12-06T09:18:55Z</time>
      </trkpt>
      <trkpt lat="45.23186" lon="6.03079">
        <ele>2100.4509277344</ele>
        <time>2017-12-06T09:19:00Z</time>
      </trkpt>
      <trkpt lat="45.2319" lon="6.03082">
        <ele>2104.4509277344</ele>
        <time>2017-12-06T09:19:05Z</time>
      </trkpt>
      <trkpt lat="45.23194" lon="6.03086">
        <ele>2106.4509277344</ele>
        <time>2017-12-06T09:19:10Z</time>
      </trkpt>
      <trkpt lat="45.23199" lon="6.03089">
        <ele>2108.4509277344</ele>
        <time>2017-12-06T09:19:14Z</time>
      </trkpt>
      <trkpt lat="45.23204" lon="6.0309">
        <ele>2109.4509277344</ele>
        <time>2017-12-06T09:19:22Z</time>
      </trkpt>
      <trkpt lat="45.23207" lon="6.03095">
        <ele>2115.4509277344</ele>
        <time>2017-12-06T09:19:33Z</time>
      </trkpt>
      <trkpt lat="45.2321" lon="6.03099">
        <ele>2111.4509277344</ele>
        <time>2017-12-06T09:19:35Z</time>
      </trkpt>
      <trkpt lat="45.23214" lon="6.03095">
        <ele>2123.4509277344</ele>
        <time>2017-12-06T09:19:57Z</time>
      </trkpt>
      <trkpt lat="45.23218" lon="6.03097">
        <ele>2120.4509277344</ele>
        <time>2017-12-06T09:20:01Z</time>
      </trkpt>
      <trkpt lat="45.23222" lon="6.03101">
        <ele>2117.4509277344</ele>
        <time>2017-12-06T09:20:03Z</time>
      </trkpt>
      <trkpt lat="45.23225" lon="6.03106">
        <ele>2115.4509277344</ele>
        <time>2017-12-06T09:20:09Z</time>
      </trkpt>
      <trkpt lat="45.23231" lon="6.03108">
        <ele>2120.4509277344</ele>
        <time>2017-12-06T09:20:15Z</time>
      </trkpt>
      <trkpt lat="45.23236" lon="6.03111">
        <ele>2115.4509277344</ele>
        <time>2017-12-06T09:20:19Z</time>
      </trkpt>
      <trkpt lat="45.23236" lon="6.03101">
        <ele>2126.4509277344</ele>
        <time>2017-12-06T09:20:24Z</time>
      </trkpt>
      <trkpt lat="45.2324" lon="6.03097">
        <ele>2128.4509277344</ele>
        <time>2017-12-06T09:20:28Z</time>
      </trkpt>
      <trkpt lat="45.23246" lon="6.03098">
        <ele>2138.4509277344</ele>
        <time>2017-12-06T09:20:39Z</time>
      </trkpt>
      <trkpt lat="45.23248" lon="6.03105">
        <ele>2136.4509277344</ele>
        <time>2017-12-06T09:20:43Z</time>
      </trkpt>
      <trkpt lat="45.2325" lon="6.03111">
        <ele>2136.4509277344</ele>
        <time>2017-12-06T09:20:47Z</time>
      </trkpt>
      <trkpt lat="45.23254" lon="6.03115">
        <ele>2135.4509277344</ele>
        <time>2017-12-06T09:21:10Z</time>
      </trkpt>
      <trkpt lat="45.23258" lon="6.03119">
        <ele>2134.4509277344</ele>
        <time>2017-12-06T09:21:14Z</time>
      </trkpt>
      <trkpt lat="45.23261" lon="6.03125">
        <ele>2136.4509277344</ele>
        <time>2017-12-06T09:21:32Z</time>
      </trkpt>
      <trkpt lat="45.23265" lon="6.03129">
        <ele>2138.4509277344</ele>
        <time>2017-12-06T09:21:35Z</time>
      </trkpt>
      <trkpt lat="45.23271" lon="6.0313">
        <ele>2139.4509277344</ele>
        <time>2017-12-06T09:21:39Z</time>
      </trkpt>
      <trkpt lat="45.23275" lon="6.03131">
        <ele>2140.4509277344</ele>
        <time>2017-12-06T09:21:45Z</time>
      </trkpt>
      <trkpt lat="45.2328" lon="6.03128">
        <ele>2142.4509277344</ele>
        <time>2017-12-06T09:21:50Z</time>
      </trkpt>
      <trkpt lat="45.23286" lon="6.03128">
        <ele>2141.4509277344</ele>
        <time>2017-12-06T09:21:56Z</time>
      </trkpt>
      <trkpt lat="45.23291" lon="6.03131">
        <ele>2142.4509277344</ele>
        <time>2017-12-06T09:22:01Z</time>
      </trkpt>
      <trkpt lat="45.23295" lon="6.03132">
        <ele>2142.4509277344</ele>
        <time>2017-12-06T09:22:06Z</time>
      </trkpt>
      <trkpt lat="45.233" lon="6.0313">
        <ele>2142.4509277344</ele>
        <time>2017-12-06T09:22:12Z</time>
      </trkpt>
      <trkpt lat="45.23305" lon="6.03128">
        <ele>2144.4509277344</ele>
        <time>2017-12-06T09:22:18Z</time>
      </trkpt>
      <trkpt lat="45.23309" lon="6.03127">
        <ele>2144.4509277344</ele>
        <time>2017-12-06T09:22:25Z</time>
      </trkpt>
      <trkpt lat="45.23314" lon="6.03123">
        <ele>2145.4509277344</ele>
        <time>2017-12-06T09:22:30Z</time>
      </trkpt>
      <trkpt lat="45.23316" lon="6.03116">
        <ele>2149.4509277344</ele>
        <time>2017-12-06T09:22:35Z</time>
      </trkpt>
      <trkpt lat="45.23319" lon="6.03108">
        <ele>2150.4509277344</ele>
        <time>2017-12-06T09:22:40Z</time>
      </trkpt>
      <trkpt lat="45.23322" lon="6.03103">
        <ele>2152.4509277344</ele>
        <time>2017-12-06T09:22:44Z</time>
      </trkpt>
      <trkpt lat="45.23324" lon="6.03096">
        <ele>2152.4509277344</ele>
        <time>2017-12-06T09:22:48Z</time>
      </trkpt>
      <trkpt lat="45.23327" lon="6.03089">
        <ele>2153.4509277344</ele>
        <time>2017-12-06T09:22:52Z</time>
      </trkpt>
      <trkpt lat="45.23329" lon="6.03081">
        <ele>2152.4509277344</ele>
        <time>2017-12-06T09:22:56Z</time>
      </trkpt>
      <trkpt lat="45.23331" lon="6.03075">
        <ele>2152.4509277344</ele>
        <time>2017-12-06T09:23:00Z</time>
      </trkpt>
      <trkpt lat="45.23333" lon="6.03068">
        <ele>2153.4509277344</ele>
        <time>2017-12-06T09:23:15Z</time>
      </trkpt>
      <trkpt lat="45.23335" lon="6.03062">
        <ele>2153.4509277344</ele>
        <time>2017-12-06T09:23:18Z</time>
      </trkpt>
      <trkpt lat="45.23338" lon="6.03056">
        <ele>2154.4509277344</ele>
        <time>2017-12-06T09:23:22Z</time>
      </trkpt>
      <trkpt lat="45.23339" lon="6.03049">
        <ele>2153.4509277344</ele>
        <time>2017-12-06T09:23:27Z</time>
      </trkpt>
      <trkpt lat="45.23344" lon="6.03048">
        <ele>2151.4509277344</ele>
        <time>2017-12-06T09:23:34Z</time>
      </trkpt>
      <trkpt lat="45.23349" lon="6.03046">
        <ele>2151.4509277344</ele>
        <time>2017-12-06T09:23:41Z</time>
      </trkpt>
      <trkpt lat="45.23354" lon="6.03044">
        <ele>2150.4509277344</ele>
        <time>2017-12-06T09:23:44Z</time>
      </trkpt>
      <trkpt lat="45.23358" lon="6.03039">
        <ele>2149.4509277344</ele>
        <time>2017-12-06T09:23:47Z</time>
      </trkpt>
      <trkpt lat="45.23363" lon="6.03038">
        <ele>2150.4509277344</ele>
        <time>2017-12-06T09:23:51Z</time>
      </trkpt>
      <trkpt lat="45.23369" lon="6.03036">
        <ele>2148.4509277344</ele>
        <time>2017-12-06T09:23:56Z</time>
      </trkpt>
      <trkpt lat="45.23373" lon="6.03034">
        <ele>2147.4509277344</ele>
        <time>2017-12-06T09:24:01Z</time>
      </trkpt>
      <trkpt lat="45.23377" lon="6.03031">
        <ele>2148.4509277344</ele>
        <time>2017-12-06T09:24:07Z</time>
      </trkpt>
      <trkpt lat="45.23383" lon="6.03029">
        <ele>2147.4509277344</ele>
        <time>2017-12-06T09:24:15Z</time>
      </trkpt>
      <trkpt lat="45.23388" lon="6.0303">
        <ele>2150.4509277344</ele>
        <time>2017-12-06T09:24:20Z</time>
      </trkpt>
      <trkpt lat="45.23393" lon="6.03034">
        <ele>2151.4509277344</ele>
        <time>2017-12-06T09:24:26Z</time>
      </trkpt>
      <trkpt lat="45.23398" lon="6.03036">
        <ele>2151.4509277344</ele>
        <time>2017-12-06T09:24:31Z</time>
      </trkpt>
      <trkpt lat="45.23403" lon="6.03036">
        <ele>2151.4509277344</ele>
        <time>2017-12-06T09:24:34Z</time>
      </trkpt>
      <trkpt lat="45.23408" lon="6.03034">
        <ele>2149.4509277344</ele>
        <time>2017-12-06T09:24:37Z</time>
      </trkpt>
      <trkpt lat="45.23413" lon="6.03033">
        <ele>2151.4509277344</ele>
        <time>2017-12-06T09:24:44Z</time>
      </trkpt>
      <trkpt lat="45.23418" lon="6.03032">
        <ele>2151.4509277344</ele>
        <time>2017-12-06T09:24:53Z</time>
      </trkpt>
      <trkpt lat="45.23423" lon="6.03032">
        <ele>2150.4509277344</ele>
        <time>2017-12-06T09:25:02Z</time>
      </trkpt>
      <trkpt lat="45.23427" lon="6.03031">
        <ele>2148.4509277344</ele>
        <time>2017-12-06T09:25:08Z</time>
      </trkpt>
      <trkpt lat="45.23432" lon="6.0303">
        <ele>2146.4509277344</ele>
        <time>2017-12-06T09:25:15Z</time>
      </trkpt>
      <trkpt lat="45.23437" lon="6.0303">
        <ele>2145.4509277344</ele>
        <time>2017-12-06T09:25:20Z</time>
      </trkpt>
      <trkpt lat="45.23442" lon="6.0303">
        <ele>2145.4509277344</ele>
        <time>2017-12-06T09:25:32Z</time>
      </trkpt>
      <trkpt lat="45.23447" lon="6.03028">
        <ele>2145.4509277344</ele>
        <time>2017-12-06T09:25:38Z</time>
      </trkpt>
      <trkpt lat="45.23452" lon="6.03027">
        <ele>2147.4509277344</ele>
        <time>2017-12-06T09:25:43Z</time>
      </trkpt>
      <trkpt lat="45.23456" lon="6.03025">
        <ele>2148.4509277344</ele>
        <time>2017-12-06T09:25:48Z</time>
      </trkpt>
      <trkpt lat="45.23461" lon="6.03022">
        <ele>2149.4509277344</ele>
        <time>2017-12-06T09:25:56Z</time>
      </trkpt>
      <trkpt lat="45.23466" lon="6.03021">
        <ele>2147.4509277344</ele>
        <time>2017-12-06T09:26:03Z</time>
      </trkpt>
      <trkpt lat="45.23471" lon="6.03021">
        <ele>2147.4509277344</ele>
        <time>2017-12-06T09:26:12Z</time>
      </trkpt>
      <trkpt lat="45.23476" lon="6.03021">
        <ele>2148.4509277344</ele>
        <time>2017-12-06T09:26:17Z</time>
      </trkpt>
      <trkpt lat="45.23482" lon="6.03021">
        <ele>2149.4509277344</ele>
        <time>2017-12-06T09:26:23Z</time>
      </trkpt>
      <trkpt lat="45.23487" lon="6.03019">
        <ele>2151.4509277344</ele>
        <time>2017-12-06T09:26:27Z</time>
      </trkpt>
      <trkpt lat="45.23492" lon="6.03018">
        <ele>2154.4509277344</ele>
        <time>2017-12-06T09:26:32Z</time>
      </trkpt>
      <trkpt lat="45.23496" lon="6.03019">
        <ele>2159.4509277344</ele>
        <time>2017-12-06T09:26:40Z</time>
      </trkpt>
      <trkpt lat="45.23502" lon="6.03018">
        <ele>2158.4509277344</ele>
        <time>2017-12-06T09:26:47Z</time>
      </trkpt>
      <trkpt lat="45.23507" lon="6.03017">
        <ele>2156.4509277344</ele>
        <time>2017-12-06T09:26:53Z</time>
      </trkpt>
      <trkpt lat="45.23511" lon="6.03018">
        <ele>2155.4509277344</ele>
        <time>2017-12-06T09:26:58Z</time>
      </trkpt>
      <trkpt lat="45.23516" lon="6.03017">
        <ele>2154.4509277344</ele>
        <time>2017-12-06T09:27:02Z</time>
      </trkpt>
      <trkpt lat="45.23521" lon="6.03017">
        <ele>2151.4509277344</ele>
        <time>2017-12-06T09:27:06Z</time>
      </trkpt>
      <trkpt lat="45.23527" lon="6.03015">
        <ele>2152.4509277344</ele>
        <time>2017-12-06T09:27:10Z</time>
      </trkpt>
      <trkpt lat="45.23532" lon="6.03015">
        <ele>2152.4509277344</ele>
        <time>2017-12-06T09:27:14Z</time>
      </trkpt>
      <trkpt lat="45.23537" lon="6.03016">
        <ele>2151.4509277344</ele>
        <time>2017-12-06T09:27:20Z</time>
      </trkpt>
      <trkpt lat="45.23542" lon="6.03018">
        <ele>2151.4509277344</ele>
        <time>2017-12-06T09:27:25Z</time>
      </trkpt>
      <trkpt lat="45.23547" lon="6.03019">
        <ele>2151.4509277344</ele>
        <time>2017-12-06T09:27:30Z</time>
      </trkpt>
      <trkpt lat="45.23551" lon="6.03021">
        <ele>2151.4509277344</ele>
        <time>2017-12-06T09:27:35Z</time>
      </trkpt>
      <trkpt lat="45.23556" lon="6.03023">
        <ele>2152.4509277344</ele>
        <time>2017-12-06T09:27:40Z</time>
      </trkpt>
      <trkpt lat="45.2356" lon="6.03026">
        <ele>2156.4509277344</ele>
        <time>2017-12-06T09:27:44Z</time>
      </trkpt>
      <trkpt lat="45.23565" lon="6.03028">
        <ele>2158.4509277344</ele>
        <time>2017-12-06T09:27:48Z</time>
      </trkpt>
      <trkpt lat="45.2357" lon="6.0303">
        <ele>2159.4509277344</ele>
        <time>2017-12-06T09:27:53Z</time>
      </trkpt>
      <trkpt lat="45.23577" lon="6.03032">
        <ele>2158.4509277344</ele>
        <time>2017-12-06T09:27:59Z</time>
      </trkpt>
      <trkpt lat="45.23582" lon="6.03035">
        <ele>2161.4509277344</ele>
        <time>2017-12-06T09:28:03Z</time>
      </trkpt>
      <trkpt lat="45.23586" lon="6.03037">
        <ele>2160.4509277344</ele>
        <time>2017-12-06T09:28:09Z</time>
      </trkpt>
      <trkpt lat="45.23591" lon="6.03041">
        <ele>2161.4509277344</ele>
        <time>2017-12-06T09:28:13Z</time>
      </trkpt>
      <trkpt lat="45.23596" lon="6.03043">
        <ele>2161.4509277344</ele>
        <time>2017-12-06T09:28:18Z</time>
      </trkpt>
      <trkpt lat="45.236" lon="6.03045">
        <ele>2162.4509277344</ele>
        <time>2017-12-06T09:28:23Z</time>
      </trkpt>
      <trkpt lat="45.23604" lon="6.03047">
        <ele>2163.4509277344</ele>
        <time>2017-12-06T09:28:27Z</time>
      </trkpt>
      <trkpt lat="45.23609" lon="6.03051">
        <ele>2161.4509277344</ele>
        <time>2017-12-06T09:28:31Z</time>
      </trkpt>
      <trkpt lat="45.23614" lon="6.03053">
        <ele>2165.4509277344</ele>
        <time>2017-12-06T09:28:36Z</time>
      </trkpt>
      <trkpt lat="45.23618" lon="6.03056">
        <ele>2167.4509277344</ele>
        <time>2017-12-06T09:28:41Z</time>
      </trkpt>
      <trkpt lat="45.23622" lon="6.03059">
        <ele>2167.4509277344</ele>
        <time>2017-12-06T09:28:47Z</time>
      </trkpt>
      <trkpt lat="45.23626" lon="6.03064">
        <ele>2169.4509277344</ele>
        <time>2017-12-06T09:28:55Z</time>
      </trkpt>
      <trkpt lat="45.23631" lon="6.03064">
        <ele>2168.4509277344</ele>
        <time>2017-12-06T09:29:00Z</time>
      </trkpt>
      <trkpt lat="45.23637" lon="6.03065">
        <ele>2172.4519042969</ele>
        <time>2017-12-06T09:29:06Z</time>
      </trkpt>
      <trkpt lat="45.23641" lon="6.03068">
        <ele>2179.4519042969</ele>
        <time>2017-12-06T09:29:14Z</time>
      </trkpt>
      <trkpt lat="45.23646" lon="6.03068">
        <ele>2181.4519042969</ele>
        <time>2017-12-06T09:29:20Z</time>
      </trkpt>
      <trkpt lat="45.2365" lon="6.0307">
        <ele>2182.4519042969</ele>
        <time>2017-12-06T09:29:31Z</time>
      </trkpt>
      <trkpt lat="45.23656" lon="6.03072">
        <ele>2184.4519042969</ele>
        <time>2017-12-06T09:29:37Z</time>
      </trkpt>
      <trkpt lat="45.23661" lon="6.03078">
        <ele>2187.4519042969</ele>
        <time>2017-12-06T09:29:44Z</time>
      </trkpt>
      <trkpt lat="45.23663" lon="6.03084">
        <ele>2187.4519042969</ele>
        <time>2017-12-06T09:29:50Z</time>
      </trkpt>
      <trkpt lat="45.23667" lon="6.03086">
        <ele>2191.4519042969</ele>
        <time>2017-12-06T09:29:57Z</time>
      </trkpt>
      <trkpt lat="45.23672" lon="6.03086">
        <ele>2193.4519042969</ele>
        <time>2017-12-06T09:30:04Z</time>
      </trkpt>
      <trkpt lat="45.23676" lon="6.03087">
        <ele>2193.4519042969</ele>
        <time>2017-12-06T09:30:12Z</time>
      </trkpt>
      <trkpt lat="45.23681" lon="6.03088">
        <ele>2193.4519042969</ele>
        <time>2017-12-06T09:30:18Z</time>
      </trkpt>
      <trkpt lat="45.23686" lon="6.03088">
        <ele>2195.4519042969</ele>
        <time>2017-12-06T09:30:27Z</time>
      </trkpt>
      <trkpt lat="45.2369" lon="6.03085">
        <ele>2197.4519042969</ele>
        <time>2017-12-06T09:30:34Z</time>
      </trkpt>
      <trkpt lat="45.23695" lon="6.03084">
        <ele>2199.4519042969</ele>
        <time>2017-12-06T09:30:47Z</time>
      </trkpt>
      <trkpt lat="45.237" lon="6.03085">
        <ele>2198.4519042969</ele>
        <time>2017-12-06T09:30:52Z</time>
      </trkpt>
      <trkpt lat="45.23705" lon="6.03083">
        <ele>2200.4519042969</ele>
        <time>2017-12-06T09:30:59Z</time>
      </trkpt>
      <trkpt lat="45.23709" lon="6.03082">
        <ele>2200.4519042969</ele>
        <time>2017-12-06T09:31:04Z</time>
      </trkpt>
      <trkpt lat="45.23713" lon="6.03078">
        <ele>2200.4519042969</ele>
        <time>2017-12-06T09:31:11Z</time>
      </trkpt>
      <trkpt lat="45.23717" lon="6.03076">
        <ele>2201.4519042969</ele>
        <time>2017-12-06T09:31:19Z</time>
      </trkpt>
      <trkpt lat="45.23722" lon="6.03071">
        <ele>2204.4519042969</ele>
        <time>2017-12-06T09:31:29Z</time>
      </trkpt>
      <trkpt lat="45.23726" lon="6.0307">
        <ele>2203.4519042969</ele>
        <time>2017-12-06T09:31:35Z</time>
      </trkpt>
      <trkpt lat="45.2373" lon="6.03064">
        <ele>2206.4519042969</ele>
        <time>2017-12-06T09:31:44Z</time>
      </trkpt>
      <trkpt lat="45.23731" lon="6.03058">
        <ele>2208.4519042969</ele>
        <time>2017-12-06T09:31:50Z</time>
      </trkpt>
      <trkpt lat="45.23734" lon="6.03053">
        <ele>2206.4519042969</ele>
        <time>2017-12-06T09:31:59Z</time>
      </trkpt>
      <trkpt lat="45.23737" lon="6.03047">
        <ele>2206.4519042969</ele>
        <time>2017-12-06T09:32:05Z</time>
      </trkpt>
      <trkpt lat="45.23736" lon="6.0304">
        <ele>2209.4519042969</ele>
        <time>2017-12-06T09:32:12Z</time>
      </trkpt>
      <trkpt lat="45.23737" lon="6.03033">
        <ele>2210.4519042969</ele>
        <time>2017-12-06T09:32:20Z</time>
      </trkpt>
      <trkpt lat="45.23737" lon="6.03027">
        <ele>2209.4519042969</ele>
        <time>2017-12-06T09:32:30Z</time>
      </trkpt>
      <trkpt lat="45.23737" lon="6.0302">
        <ele>2210.4519042969</ele>
        <time>2017-12-06T09:32:41Z</time>
      </trkpt>
      <trkpt lat="45.23735" lon="6.03014">
        <ele>2214.4519042969</ele>
        <time>2017-12-06T09:32:49Z</time>
      </trkpt>
      <trkpt lat="45.23736" lon="6.03007">
        <ele>2219.4519042969</ele>
        <time>2017-12-06T09:33:02Z</time>
      </trkpt>
      <trkpt lat="45.23736" lon="6.03">
        <ele>2226.4519042969</ele>
        <time>2017-12-06T09:33:12Z</time>
      </trkpt>
      <trkpt lat="45.23736" lon="6.02993">
        <ele>2230.4519042969</ele>
        <time>2017-12-06T09:33:21Z</time>
      </trkpt>
      <trkpt lat="45.2374" lon="6.02987">
        <ele>2231.4519042969</ele>
        <time>2017-12-06T09:33:36Z</time>
      </trkpt>
      <trkpt lat="45.23738" lon="6.0298">
        <ele>2074.4519042969</ele>
        <time>2017-12-06T09:33:50Z</time>
      </trkpt>
      <trkpt lat="45.23739" lon="6.02973">
        <ele>2086.4519042969</ele>
        <time>2017-12-06T09:33:53Z</time>
      </trkpt>
      <trkpt lat="45.23737" lon="6.02967">
        <ele>2167.4519042969</ele>
        <time>2017-12-06T09:34:05Z</time>
      </trkpt>
      <trkpt lat="45.23741" lon="6.02968">
        <ele>2252.4519042969</ele>
        <time>2017-12-06T09:34:47Z</time>
      </trkpt>
      <trkpt lat="45.23746" lon="6.02967">
        <ele>2257.4519042969</ele>
        <time>2017-12-06T09:34:53Z</time>
      </trkpt>
      <trkpt lat="45.23751" lon="6.02968">
        <ele>2255.4519042969</ele>
        <time>2017-12-06T09:35:07Z</time>
      </trkpt>
      <trkpt lat="45.23756" lon="6.02969">
        <ele>2250.4519042969</ele>
        <time>2017-12-06T09:35:12Z</time>
      </trkpt>
      <trkpt lat="45.2376" lon="6.02965">
        <ele>2259.4519042969</ele>
        <time>2017-12-06T09:35:29Z</time>
      </trkpt>
      <trkpt lat="45.23762" lon="6.02959">
        <ele>2260.4519042969</ele>
        <time>2017-12-06T09:35:33Z</time>
      </trkpt>
      <trkpt lat="45.23761" lon="6.02953">
        <ele>2266.4519042969</ele>
        <time>2017-12-06T09:35:40Z</time>
      </trkpt>
      <trkpt lat="45.23762" lon="6.02946">
        <ele>2270.4519042969</ele>
        <time>2017-12-06T09:36:05Z</time>
      </trkpt>
      <trkpt lat="45.23761" lon="6.0294">
        <ele>2271.4519042969</ele>
        <time>2017-12-06T09:36:13Z</time>
      </trkpt>
      <trkpt lat="45.23766" lon="6.02936">
        <ele>2274.4519042969</ele>
        <time>2017-12-06T09:36:29Z</time>
      </trkpt>
      <trkpt lat="45.2377" lon="6.02934">
        <ele>2276.4519042969</ele>
        <time>2017-12-06T09:36:44Z</time>
      </trkpt>
      <trkpt lat="45.23775" lon="6.02933">
        <ele>2274.4519042969</ele>
        <time>2017-12-06T09:36:55Z</time>
      </trkpt>
      <trkpt lat="45.2378" lon="6.02937">
        <ele>2276.4519042969</ele>
        <time>2017-12-06T09:37:03Z</time>
      </trkpt>
      <trkpt lat="45.23785" lon="6.02936">
        <ele>2280.4519042969</ele>
        <time>2017-12-06T09:37:17Z</time>
      </trkpt>
      <trkpt lat="45.23788" lon="6.02941">
        <ele>2282.4519042969</ele>
        <time>2017-12-06T09:37:26Z</time>
      </trkpt>
      <trkpt lat="45.23792" lon="6.02938">
        <ele>2286.4519042969</ele>
        <time>2017-12-06T09:37:42Z</time>
      </trkpt>
      <trkpt lat="45.23796" lon="6.02942">
        <ele>2286.4519042969</ele>
        <time>2017-12-06T09:37:47Z</time>
      </trkpt>
      <trkpt lat="45.238" lon="6.02944">
        <ele>2287.4519042969</ele>
        <time>2017-12-06T09:37:55Z</time>
      </trkpt>
      <trkpt lat="45.23806" lon="6.02946">
        <ele>2290.4519042969</ele>
        <time>2017-12-06T09:38:04Z</time>
      </trkpt>
      <trkpt lat="45.2381" lon="6.02949">
        <ele>2292.4519042969</ele>
        <time>2017-12-06T09:38:11Z</time>
      </trkpt>
      <trkpt lat="45.23815" lon="6.02949">
        <ele>2295.4519042969</ele>
        <time>2017-12-06T09:38:19Z</time>
      </trkpt>
      <trkpt lat="45.23819" lon="6.02946">
        <ele>2297.4519042969</ele>
        <time>2017-12-06T09:38:45Z</time>
      </trkpt>
      <trkpt lat="45.23819" lon="6.02938">
        <ele>2299.4519042969</ele>
        <time>2017-12-06T09:38:54Z</time>
      </trkpt>
      <trkpt lat="45.23819" lon="6.02931">
        <ele>2302.4519042969</ele>
        <time>2017-12-06T09:39:07Z</time>
      </trkpt>
      <trkpt lat="45.23818" lon="6.02923">
        <ele>2306.4519042969</ele>
        <time>2017-12-06T09:39:18Z</time>
      </trkpt>
      <trkpt lat="45.23818" lon="6.02916">
        <ele>2310.4519042969</ele>
        <time>2017-12-06T09:39:28Z</time>
      </trkpt>
      <trkpt lat="45.23817" lon="6.0291">
        <ele>2313.4519042969</ele>
        <time>2017-12-06T09:39:37Z</time>
      </trkpt>
      <trkpt lat="45.23822" lon="6.02907">
        <ele>2317.4519042969</ele>
        <time>2017-12-06T09:39:50Z</time>
      </trkpt>
      <trkpt lat="45.23826" lon="6.02905">
        <ele>2320.4519042969</ele>
        <time>2017-12-06T09:39:59Z</time>
      </trkpt>
      <trkpt lat="45.23831" lon="6.02903">
        <ele>2326.4519042969</ele>
        <time>2017-12-06T09:40:10Z</time>
      </trkpt>
      <trkpt lat="45.23836" lon="6.02902">
        <ele>2329.4519042969</ele>
        <time>2017-12-06T09:40:18Z</time>
      </trkpt>
      <trkpt lat="45.23841" lon="6.02902">
        <ele>2332.4519042969</ele>
        <time>2017-12-06T09:40:34Z</time>
      </trkpt>
      <trkpt lat="45.23845" lon="6.02906">
        <ele>2329.4519042969</ele>
        <time>2017-12-06T09:40:41Z</time>
      </trkpt>
      <trkpt lat="45.23848" lon="6.02901">
        <ele>2327.4519042969</ele>
        <time>2017-12-06T09:40:53Z</time>
      </trkpt>
      <trkpt lat="45.23848" lon="6.02894">
        <ele>2330.4519042969</ele>
        <time>2017-12-06T09:41:04Z</time>
      </trkpt>
      <trkpt lat="45.23847" lon="6.02888">
        <ele>2331.4519042969</ele>
        <time>2017-12-06T09:41:15Z</time>
      </trkpt>
      <trkpt lat="45.23845" lon="6.02882">
        <ele>2334.4519042969</ele>
        <time>2017-12-06T09:41:28Z</time>
      </trkpt>
      <trkpt lat="45.23841" lon="6.02877">
        <ele>2337.4519042969</ele>
        <time>2017-12-06T09:41:37Z</time>
      </trkpt>
      <trkpt lat="45.2384" lon="6.02871">
        <ele>2337.4519042969</ele>
        <time>2017-12-06T09:41:51Z</time>
      </trkpt>
      <trkpt lat="45.23839" lon="6.02863">
        <ele>2341.4519042969</ele>
        <time>2017-12-06T09:41:59Z</time>
      </trkpt>
      <trkpt lat="45.23839" lon="6.02856">
        <ele>2342.4519042969</ele>
        <time>2017-12-06T09:42:07Z</time>
      </trkpt>
      <trkpt lat="45.23839" lon="6.02849">
        <ele>2345.4519042969</ele>
        <time>2017-12-06T09:42:17Z</time>
      </trkpt>
      <trkpt lat="45.23839" lon="6.02842">
        <ele>2347.4519042969</ele>
        <time>2017-12-06T09:42:27Z</time>
      </trkpt>
      <trkpt lat="45.23844" lon="6.02843">
        <ele>2348.4519042969</ele>
        <time>2017-12-06T09:42:41Z</time>
      </trkpt>
      <trkpt lat="45.23848" lon="6.02843">
        <ele>2347.4519042969</ele>
        <time>2017-12-06T09:42:51Z</time>
      </trkpt>
      <trkpt lat="45.23853" lon="6.02844">
        <ele>2348.4519042969</ele>
        <time>2017-12-06T09:43:12Z</time>
      </trkpt>
      <trkpt lat="45.23858" lon="6.02843">
        <ele>2347.4519042969</ele>
        <time>2017-12-06T09:43:23Z</time>
      </trkpt>
      <trkpt lat="45.23862" lon="6.02846">
        <ele>2350.4519042969</ele>
        <time>2017-12-06T09:43:32Z</time>
      </trkpt>
      <trkpt lat="45.23867" lon="6.02844">
        <ele>2350.4519042969</ele>
        <time>2017-12-06T09:43:39Z</time>
      </trkpt>
      <trkpt lat="45.23872" lon="6.02846">
        <ele>2356.4519042969</ele>
        <time>2017-12-06T09:43:51Z</time>
      </trkpt>
      <trkpt lat="45.23876" lon="6.02845">
        <ele>2358.4519042969</ele>
        <time>2017-12-06T09:44:01Z</time>
      </trkpt>
      <trkpt lat="45.23881" lon="6.02846">
        <ele>2360.4519042969</ele>
        <time>2017-12-06T09:44:17Z</time>
      </trkpt>
      <trkpt lat="45.23885" lon="6.02849">
        <ele>2363.4519042969</ele>
        <time>2017-12-06T09:44:20Z</time>
      </trkpt>
      <trkpt lat="45.2389" lon="6.0285">
        <ele>2365.4519042969</ele>
        <time>2017-12-06T09:44:29Z</time>
      </trkpt>
      <trkpt lat="45.23894" lon="6.02853">
        <ele>2369.4519042969</ele>
        <time>2017-12-06T09:44:38Z</time>
      </trkpt>
      <trkpt lat="45.23898" lon="6.02857">
        <ele>2372.4519042969</ele>
        <time>2017-12-06T09:44:44Z</time>
      </trkpt>
      <trkpt lat="45.23901" lon="6.02862">
        <ele>2372.4519042969</ele>
        <time>2017-12-06T09:44:57Z</time>
      </trkpt>
      <trkpt lat="45.23903" lon="6.02868">
        <ele>2374.4519042969</ele>
        <time>2017-12-06T09:45:08Z</time>
      </trkpt>
      <trkpt lat="45.23906" lon="6.02874">
        <ele>2377.4519042969</ele>
        <time>2017-12-06T09:45:24Z</time>
      </trkpt>
      <trkpt lat="45.2391" lon="6.02876">
        <ele>2385.4519042969</ele>
        <time>2017-12-06T09:45:46Z</time>
      </trkpt>
      <trkpt lat="45.23915" lon="6.02875">
        <ele>2383.4519042969</ele>
        <time>2017-12-06T09:46:04Z</time>
      </trkpt>
      <trkpt lat="45.23918" lon="6.02881">
        <ele>2386.4519042969</ele>
        <time>2017-12-06T09:46:12Z</time>
      </trkpt>
      <trkpt lat="45.2392" lon="6.02886">
        <ele>2387.4519042969</ele>
        <time>2017-12-06T09:46:22Z</time>
      </trkpt>
      <trkpt lat="45.23923" lon="6.02891">
        <ele>2389.4519042969</ele>
        <time>2017-12-06T09:46:27Z</time>
      </trkpt>
      <trkpt lat="45.23927" lon="6.02896">
        <ele>2391.4519042969</ele>
        <time>2017-12-06T09:46:36Z</time>
      </trkpt>
      <trkpt lat="45.23932" lon="6.02901">
        <ele>2395.4519042969</ele>
        <time>2017-12-06T09:46:42Z</time>
      </trkpt>
      <trkpt lat="45.23935" lon="6.02905">
        <ele>2394.4519042969</ele>
        <time>2017-12-06T09:46:48Z</time>
      </trkpt>
      <trkpt lat="45.23938" lon="6.0291">
        <ele>2394.4519042969</ele>
        <time>2017-12-06T09:46:52Z</time>
      </trkpt>
      <trkpt lat="45.23942" lon="6.02916">
        <ele>2394.4519042969</ele>
        <time>2017-12-06T09:46:58Z</time>
      </trkpt>
      <trkpt lat="45.23941" lon="6.02923">
        <ele>2397.4519042969</ele>
        <time>2017-12-06T09:47:04Z</time>
      </trkpt>
      <trkpt lat="45.23942" lon="6.0293">
        <ele>2397.4519042969</ele>
        <time>2017-12-06T09:47:14Z</time>
      </trkpt>
      <trkpt lat="45.23945" lon="6.02937">
        <ele>2398.4519042969</ele>
        <time>2017-12-06T09:47:21Z</time>
      </trkpt>
      <trkpt lat="45.23946" lon="6.02943">
        <ele>2400.4519042969</ele>
        <time>2017-12-06T09:47:36Z</time>
      </trkpt>
      <trkpt lat="45.23946" lon="6.0295">
        <ele>2399.4519042969</ele>
        <time>2017-12-06T09:47:45Z</time>
      </trkpt>
      <trkpt lat="45.23949" lon="6.02956">
        <ele>2403.4519042969</ele>
        <time>2017-12-06T09:47:55Z</time>
      </trkpt>
      <trkpt lat="45.23951" lon="6.02963">
        <ele>2404.4519042969</ele>
        <time>2017-12-06T09:48:00Z</time>
      </trkpt>
      <trkpt lat="45.23953" lon="6.0297">
        <ele>2406.4519042969</ele>
        <time>2017-12-06T09:48:06Z</time>
      </trkpt>
      <trkpt lat="45.23953" lon="6.02976">
        <ele>2406.4519042969</ele>
        <time>2017-12-06T09:48:16Z</time>
      </trkpt>
      <trkpt lat="45.23956" lon="6.02983">
        <ele>2408.4519042969</ele>
        <time>2017-12-06T09:48:21Z</time>
      </trkpt>
      <trkpt lat="45.23959" lon="6.02988">
        <ele>2410.4519042969</ele>
        <time>2017-12-06T09:48:28Z</time>
      </trkpt>
      <trkpt lat="45.23957" lon="6.02995">
        <ele>2410.4519042969</ele>
        <time>2017-12-06T09:48:42Z</time>
      </trkpt>
      <trkpt lat="45.23959" lon="6.03001">
        <ele>2414.4519042969</ele>
        <time>2017-12-06T09:48:58Z</time>
      </trkpt>
      <trkpt lat="45.2396" lon="6.03008">
        <ele>2415.4519042969</ele>
        <time>2017-12-06T09:49:04Z</time>
      </trkpt>
      <trkpt lat="45.23964" lon="6.03012">
        <ele>2413.4519042969</ele>
        <time>2017-12-06T09:50:06Z</time>
      </trkpt>
      <trkpt lat="45.2396" lon="6.03008">
        <ele>2415.4519042969</ele>
        <time>2017-12-06T09:54:20Z</time>
      </trkpt>
      <trkpt lat="45.23961" lon="6.02999">
        <ele>2414.4519042969</ele>
        <time>2017-12-06T09:54:26Z</time>
      </trkpt>
      <trkpt lat="45.23959" lon="6.02986">
        <ele>2413.4519042969</ele>
        <time>2017-12-06T09:54:28Z</time>
      </trkpt>
      <trkpt lat="45.23955" lon="6.02972">
        <ele>2413.4519042969</ele>
        <time>2017-12-06T09:54:37Z</time>
      </trkpt>
      <trkpt lat="45.23953" lon="6.02965">
        <ele>2409.4519042969</ele>
        <time>2017-12-06T09:54:40Z</time>
      </trkpt>
      <trkpt lat="45.2395" lon="6.02959">
        <ele>2408.4519042969</ele>
        <time>2017-12-06T09:54:42Z</time>
      </trkpt>
      <trkpt lat="45.2395" lon="6.0295">
        <ele>2405.4519042969</ele>
        <time>2017-12-06T09:54:44Z</time>
      </trkpt>
      <trkpt lat="45.23949" lon="6.02938">
        <ele>2403.4519042969</ele>
        <time>2017-12-06T09:54:46Z</time>
      </trkpt>
      <trkpt lat="45.23943" lon="6.02935">
        <ele>2403.4519042969</ele>
        <time>2017-12-06T09:54:48Z</time>
      </trkpt>
      <trkpt lat="45.23943" lon="6.02928">
        <ele>2402.4519042969</ele>
        <time>2017-12-06T09:54:50Z</time>
      </trkpt>
      <trkpt lat="45.23941" lon="6.02918">
        <ele>2400.4519042969</ele>
        <time>2017-12-06T09:54:52Z</time>
      </trkpt>
      <trkpt lat="45.23933" lon="6.02902">
        <ele>2398.4519042969</ele>
        <time>2017-12-06T09:54:54Z</time>
      </trkpt>
      <trkpt lat="45.23927" lon="6.02891">
        <ele>2396.4519042969</ele>
        <time>2017-12-06T09:54:56Z</time>
      </trkpt>
      <trkpt lat="45.23924" lon="6.02886">
        <ele>2396.4519042969</ele>
        <time>2017-12-06T09:54:58Z</time>
      </trkpt>
      <trkpt lat="45.23922" lon="6.02881">
        <ele>2396.4519042969</ele>
        <time>2017-12-06T09:55:00Z</time>
      </trkpt>
      <trkpt lat="45.23917" lon="6.02872">
        <ele>2393.4519042969</ele>
        <time>2017-12-06T09:55:02Z</time>
      </trkpt>
      <trkpt lat="45.23913" lon="6.0286">
        <ele>2391.4519042969</ele>
        <time>2017-12-06T09:55:04Z</time>
      </trkpt>
      <trkpt lat="45.23907" lon="6.02846">
        <ele>2389.4519042969</ele>
        <time>2017-12-06T09:55:06Z</time>
      </trkpt>
      <trkpt lat="45.23902" lon="6.02837">
        <ele>2388.4519042969</ele>
        <time>2017-12-06T09:55:07Z</time>
      </trkpt>
      <trkpt lat="45.23892" lon="6.0282">
        <ele>2386.4519042969</ele>
        <time>2017-12-06T09:55:09Z</time>
      </trkpt>
      <trkpt lat="45.23883" lon="6.02819">
        <ele>2378.4519042969</ele>
        <time>2017-12-06T09:55:23Z</time>
      </trkpt>
      <trkpt lat="45.23876" lon="6.02827">
        <ele>2373.4519042969</ele>
        <time>2017-12-06T09:55:25Z</time>
      </trkpt>
      <trkpt lat="45.23871" lon="6.02825">
        <ele>2373.4519042969</ele>
        <time>2017-12-06T09:55:27Z</time>
      </trkpt>
      <trkpt lat="45.23869" lon="6.02832">
        <ele>2370.4519042969</ele>
        <time>2017-12-06T09:55:32Z</time>
      </trkpt>
      <trkpt lat="45.23869" lon="6.02841">
        <ele>2366.4519042969</ele>
        <time>2017-12-06T09:55:34Z</time>
      </trkpt>
      <trkpt lat="45.23864" lon="6.02845">
        <ele>2362.4519042969</ele>
        <time>2017-12-06T09:55:36Z</time>
      </trkpt>
      <trkpt lat="45.23865" lon="6.02855">
        <ele>2360.4519042969</ele>
        <time>2017-12-06T09:55:38Z</time>
      </trkpt>
      <trkpt lat="45.23859" lon="6.02863">
        <ele>2358.4519042969</ele>
        <time>2017-12-06T09:55:41Z</time>
      </trkpt>
      <trkpt lat="45.23851" lon="6.02864">
        <ele>2355.4519042969</ele>
        <time>2017-12-06T09:55:43Z</time>
      </trkpt>
      <trkpt lat="45.23847" lon="6.02866">
        <ele>2352.4519042969</ele>
        <time>2017-12-06T09:55:45Z</time>
      </trkpt>
      <trkpt lat="45.23841" lon="6.02873">
        <ele>2349.4519042969</ele>
        <time>2017-12-06T09:55:47Z</time>
      </trkpt>
      <trkpt lat="45.2384" lon="6.02879">
        <ele>2346.4519042969</ele>
        <time>2017-12-06T09:56:03Z</time>
      </trkpt>
      <trkpt lat="45.23838" lon="6.02888">
        <ele>2343.4519042969</ele>
        <time>2017-12-06T09:56:05Z</time>
      </trkpt>
      <trkpt lat="45.23836" lon="6.02895">
        <ele>2341.4519042969</ele>
        <time>2017-12-06T09:56:07Z</time>
      </trkpt>
      <trkpt lat="45.2383" lon="6.02897">
        <ele>2336.4519042969</ele>
        <time>2017-12-06T09:56:09Z</time>
      </trkpt>
      <trkpt lat="45.23822" lon="6.02898">
        <ele>2332.4519042969</ele>
        <time>2017-12-06T09:56:10Z</time>
      </trkpt>
      <trkpt lat="45.23812" lon="6.02907">
        <ele>2326.4519042969</ele>
        <time>2017-12-06T09:56:13Z</time>
      </trkpt>
      <trkpt lat="45.23807" lon="6.02904">
        <ele>2325.4519042969</ele>
        <time>2017-12-06T09:56:15Z</time>
      </trkpt>
      <trkpt lat="45.23801" lon="6.02898">
        <ele>2322.4519042969</ele>
        <time>2017-12-06T09:56:17Z</time>
      </trkpt>
      <trkpt lat="45.23792" lon="6.02896">
        <ele>2319.4519042969</ele>
        <time>2017-12-06T09:56:19Z</time>
      </trkpt>
      <trkpt lat="45.23784" lon="6.02892">
        <ele>2315.4519042969</ele>
        <time>2017-12-06T09:56:21Z</time>
      </trkpt>
      <trkpt lat="45.23779" lon="6.02889">
        <ele>2315.4519042969</ele>
        <time>2017-12-06T09:56:22Z</time>
      </trkpt>
      <trkpt lat="45.23772" lon="6.02886">
        <ele>2311.4519042969</ele>
        <time>2017-12-06T09:56:24Z</time>
      </trkpt>
      <trkpt lat="45.23761" lon="6.02892">
        <ele>2302.4519042969</ele>
        <time>2017-12-06T09:56:28Z</time>
      </trkpt>
      <trkpt lat="45.23757" lon="6.02903">
        <ele>2296.4519042969</ele>
        <time>2017-12-06T09:56:30Z</time>
      </trkpt>
      <trkpt lat="45.23746" lon="6.02919">
        <ele>2293.4519042969</ele>
        <time>2017-12-06T09:56:33Z</time>
      </trkpt>
      <trkpt lat="45.23744" lon="6.02927">
        <ele>2291.4519042969</ele>
        <time>2017-12-06T09:56:34Z</time>
      </trkpt>
      <trkpt lat="45.23738" lon="6.02934">
        <ele>2285.4519042969</ele>
        <time>2017-12-06T09:56:36Z</time>
      </trkpt>
      <trkpt lat="45.23729" lon="6.02934">
        <ele>2284.4519042969</ele>
        <time>2017-12-06T09:56:38Z</time>
      </trkpt>
      <trkpt lat="45.23719" lon="6.02943">
        <ele>2282.4519042969</ele>
        <time>2017-12-06T09:56:40Z</time>
      </trkpt>
      <trkpt lat="45.23711" lon="6.02954">
        <ele>2280.4519042969</ele>
        <time>2017-12-06T09:56:42Z</time>
      </trkpt>
      <trkpt lat="45.23703" lon="6.02957">
        <ele>2276.4509277344</ele>
        <time>2017-12-06T09:56:43Z</time>
      </trkpt>
      <trkpt lat="45.23694" lon="6.02966">
        <ele>2271.4509277344</ele>
        <time>2017-12-06T09:56:45Z</time>
      </trkpt>
      <trkpt lat="45.23693" lon="6.02974">
        <ele>2267.4509277344</ele>
        <time>2017-12-06T09:56:46Z</time>
      </trkpt>
      <trkpt lat="45.237" lon="6.02985">
        <ele>2261.4519042969</ele>
        <time>2017-12-06T09:56:48Z</time>
      </trkpt>
      <trkpt lat="45.23701" lon="6.02991">
        <ele>2254.4519042969</ele>
        <time>2017-12-06T09:56:55Z</time>
      </trkpt>
      <trkpt lat="45.23701" lon="6.02999">
        <ele>2248.4519042969</ele>
        <time>2017-12-06T09:57:43Z</time>
      </trkpt>
      <trkpt lat="45.23694" lon="6.02996">
        <ele>2245.4519042969</ele>
        <time>2017-12-06T09:57:45Z</time>
      </trkpt>
      <trkpt lat="45.23688" lon="6.02992">
        <ele>2241.4519042969</ele>
        <time>2017-12-06T09:57:47Z</time>
      </trkpt>
      <trkpt lat="45.23681" lon="6.02992">
        <ele>2236.4509277344</ele>
        <time>2017-12-06T09:57:49Z</time>
      </trkpt>
      <trkpt lat="45.23678" lon="6.02998">
        <ele>2234.4509277344</ele>
        <time>2017-12-06T09:57:51Z</time>
      </trkpt>
      <trkpt lat="45.23675" lon="6.03014">
        <ele>2230.4519042969</ele>
        <time>2017-12-06T09:57:53Z</time>
      </trkpt>
      <trkpt lat="45.23672" lon="6.0303">
        <ele>2227.4519042969</ele>
        <time>2017-12-06T09:57:54Z</time>
      </trkpt>
      <trkpt lat="45.2367" lon="6.03042">
        <ele>2225.4519042969</ele>
        <time>2017-12-06T09:57:55Z</time>
      </trkpt>
      <trkpt lat="45.2366" lon="6.0306">
        <ele>2222.4519042969</ele>
        <time>2017-12-06T09:57:58Z</time>
      </trkpt>
      <trkpt lat="45.23655" lon="6.03062">
        <ele>2221.4519042969</ele>
        <time>2017-12-06T09:58:00Z</time>
      </trkpt>
      <trkpt lat="45.23649" lon="6.03065">
        <ele>2218.4519042969</ele>
        <time>2017-12-06T09:58:03Z</time>
      </trkpt>
      <trkpt lat="45.23644" lon="6.03064">
        <ele>2219.4519042969</ele>
        <time>2017-12-06T09:58:18Z</time>
      </trkpt>
      <trkpt lat="45.23638" lon="6.03061">
        <ele>2215.4519042969</ele>
        <time>2017-12-06T09:58:25Z</time>
      </trkpt>
      <trkpt lat="45.23629" lon="6.03056">
        <ele>2211.4509277344</ele>
        <time>2017-12-06T09:58:27Z</time>
      </trkpt>
      <trkpt lat="45.23615" lon="6.03047">
        <ele>2206.4509277344</ele>
        <time>2017-12-06T09:58:29Z</time>
      </trkpt>
      <trkpt lat="45.23608" lon="6.03044">
        <ele>2205.4509277344</ele>
        <time>2017-12-06T09:58:30Z</time>
      </trkpt>
      <trkpt lat="45.23595" lon="6.03038">
        <ele>2202.4509277344</ele>
        <time>2017-12-06T09:58:32Z</time>
      </trkpt>
      <trkpt lat="45.2358" lon="6.03032">
        <ele>2198.4509277344</ele>
        <time>2017-12-06T09:58:34Z</time>
      </trkpt>
      <trkpt lat="45.23565" lon="6.03026">
        <ele>2191.4509277344</ele>
        <time>2017-12-06T09:58:36Z</time>
      </trkpt>
      <trkpt lat="45.23552" lon="6.03019">
        <ele>2190.4509277344</ele>
        <time>2017-12-06T09:58:38Z</time>
      </trkpt>
      <trkpt lat="45.23541" lon="6.03015">
        <ele>2187.4509277344</ele>
        <time>2017-12-06T09:58:40Z</time>
      </trkpt>
      <trkpt lat="45.23535" lon="6.03014">
        <ele>2186.4509277344</ele>
        <time>2017-12-06T09:58:41Z</time>
      </trkpt>
      <trkpt lat="45.23523" lon="6.0301">
        <ele>2182.4509277344</ele>
        <time>2017-12-06T09:58:43Z</time>
      </trkpt>
      <trkpt lat="45.23511" lon="6.03006">
        <ele>2179.4509277344</ele>
        <time>2017-12-06T09:58:45Z</time>
      </trkpt>
      <trkpt lat="45.23505" lon="6.03004">
        <ele>2178.4509277344</ele>
        <time>2017-12-06T09:58:46Z</time>
      </trkpt>
      <trkpt lat="45.23494" lon="6.03001">
        <ele>2176.4509277344</ele>
        <time>2017-12-06T09:58:48Z</time>
      </trkpt>
      <trkpt lat="45.23483" lon="6.02997">
        <ele>2174.4509277344</ele>
        <time>2017-12-06T09:58:50Z</time>
      </trkpt>
      <trkpt lat="45.23473" lon="6.02993">
        <ele>2173.4509277344</ele>
        <time>2017-12-06T09:58:52Z</time>
      </trkpt>
      <trkpt lat="45.23464" lon="6.02986">
        <ele>2172.4509277344</ele>
        <time>2017-12-06T09:58:54Z</time>
      </trkpt>
      <trkpt lat="45.2346" lon="6.02978">
        <ele>2171.4509277344</ele>
        <time>2017-12-06T09:58:56Z</time>
      </trkpt>
      <trkpt lat="45.23454" lon="6.02964">
        <ele>2170.4509277344</ele>
        <time>2017-12-06T09:59:00Z</time>
      </trkpt>
      <trkpt lat="45.23451" lon="6.02958">
        <ele>2169.4509277344</ele>
        <time>2017-12-06T09:59:02Z</time>
      </trkpt>
      <trkpt lat="45.23446" lon="6.02951">
        <ele>2169.4509277344</ele>
        <time>2017-12-06T09:59:05Z</time>
      </trkpt>
      <trkpt lat="45.23442" lon="6.02946">
        <ele>2169.4509277344</ele>
        <time>2017-12-06T09:59:07Z</time>
      </trkpt>
      <trkpt lat="45.23438" lon="6.02942">
        <ele>2167.4509277344</ele>
        <time>2017-12-06T09:59:09Z</time>
      </trkpt>
      <trkpt lat="45.23432" lon="6.0294">
        <ele>2167.4509277344</ele>
        <time>2017-12-06T09:59:11Z</time>
      </trkpt>
      <trkpt lat="45.23423" lon="6.02938">
        <ele>2166.4509277344</ele>
        <time>2017-12-06T09:59:13Z</time>
      </trkpt>
      <trkpt lat="45.23417" lon="6.02936">
        <ele>2165.4509277344</ele>
        <time>2017-12-06T09:59:15Z</time>
      </trkpt>
      <trkpt lat="45.23412" lon="6.02936">
        <ele>2165.4509277344</ele>
        <time>2017-12-06T09:59:17Z</time>
      </trkpt>
      <trkpt lat="45.23407" lon="6.02933">
        <ele>2166.4509277344</ele>
        <time>2017-12-06T09:59:20Z</time>
      </trkpt>
      <trkpt lat="45.23402" lon="6.02932">
        <ele>2166.4509277344</ele>
        <time>2017-12-06T09:59:23Z</time>
      </trkpt>
      <trkpt lat="45.23398" lon="6.02928">
        <ele>2165.4509277344</ele>
        <time>2017-12-06T09:59:25Z</time>
      </trkpt>
      <trkpt lat="45.23394" lon="6.02924">
        <ele>2165.4509277344</ele>
        <time>2017-12-06T09:59:28Z</time>
      </trkpt>
      <trkpt lat="45.2339" lon="6.02923">
        <ele>2165.4509277344</ele>
        <time>2017-12-06T09:59:32Z</time>
      </trkpt>
      <trkpt lat="45.23385" lon="6.02923">
        <ele>2165.4509277344</ele>
        <time>2017-12-06T09:59:34Z</time>
      </trkpt>
      <trkpt lat="45.2338" lon="6.02921">
        <ele>2166.4509277344</ele>
        <time>2017-12-06T09:59:38Z</time>
      </trkpt>
      <trkpt lat="45.23376" lon="6.02926">
        <ele>2165.4509277344</ele>
        <time>2017-12-06T09:59:45Z</time>
      </trkpt>
      <trkpt lat="45.23372" lon="6.02928">
        <ele>2164.4509277344</ele>
        <time>2017-12-06T09:59:53Z</time>
      </trkpt>
      <trkpt lat="45.23367" lon="6.02926">
        <ele>2166.4509277344</ele>
        <time>2017-12-06T10:00:01Z</time>
      </trkpt>
      <trkpt lat="45.23363" lon="6.02922">
        <ele>2167.4509277344</ele>
        <time>2017-12-06T10:00:07Z</time>
      </trkpt>
      <trkpt lat="45.2336" lon="6.02918">
        <ele>2166.4509277344</ele>
        <time>2017-12-06T10:00:15Z</time>
      </trkpt>
      <trkpt lat="45.23355" lon="6.02915">
        <ele>2167.4509277344</ele>
        <time>2017-12-06T10:00:21Z</time>
      </trkpt>
      <trkpt lat="45.23352" lon="6.0291">
        <ele>2168.4509277344</ele>
        <time>2017-12-06T10:00:30Z</time>
      </trkpt>
      <trkpt lat="45.23348" lon="6.02906">
        <ele>2168.4509277344</ele>
        <time>2017-12-06T10:00:33Z</time>
      </trkpt>
      <trkpt lat="45.23343" lon="6.02898">
        <ele>2166.4509277344</ele>
        <time>2017-12-06T10:00:35Z</time>
      </trkpt>
      <trkpt lat="45.23337" lon="6.02885">
        <ele>2166.4509277344</ele>
        <time>2017-12-06T10:00:37Z</time>
      </trkpt>
      <trkpt lat="45.23332" lon="6.02869">
        <ele>2165.4509277344</ele>
        <time>2017-12-06T10:00:40Z</time>
      </trkpt>
      <trkpt lat="45.23329" lon="6.02863">
        <ele>2165.4509277344</ele>
        <time>2017-12-06T10:00:42Z</time>
      </trkpt>
      <trkpt lat="45.23325" lon="6.02852">
        <ele>2164.4509277344</ele>
        <time>2017-12-06T10:00:44Z</time>
      </trkpt>
      <trkpt lat="45.2332" lon="6.02835">
        <ele>2162.4509277344</ele>
        <time>2017-12-06T10:00:46Z</time>
      </trkpt>
      <trkpt lat="45.23313" lon="6.02821">
        <ele>2161.4509277344</ele>
        <time>2017-12-06T10:00:48Z</time>
      </trkpt>
      <trkpt lat="45.23309" lon="6.02807">
        <ele>2162.4509277344</ele>
        <time>2017-12-06T10:00:50Z</time>
      </trkpt>
      <trkpt lat="45.23307" lon="6.02799">
        <ele>2162.4499511719</ele>
        <time>2017-12-06T10:00:52Z</time>
      </trkpt>
      <trkpt lat="45.23306" lon="6.02792">
        <ele>2164.4499511719</ele>
        <time>2017-12-06T10:01:09Z</time>
      </trkpt>
      <trkpt lat="45.23302" lon="6.02787">
        <ele>2164.4499511719</ele>
        <time>2017-12-06T10:01:14Z</time>
      </trkpt>
      <trkpt lat="45.23295" lon="6.0278">
        <ele>2163.4499511719</ele>
        <time>2017-12-06T10:01:17Z</time>
      </trkpt>
      <trkpt lat="45.23289" lon="6.02777">
        <ele>2162.4499511719</ele>
        <time>2017-12-06T10:01:19Z</time>
      </trkpt>
      <trkpt lat="45.23281" lon="6.02774">
        <ele>2160.4499511719</ele>
        <time>2017-12-06T10:01:21Z</time>
      </trkpt>
      <trkpt lat="45.23276" lon="6.02774">
        <ele>2159.4499511719</ele>
        <time>2017-12-06T10:01:24Z</time>
      </trkpt>
      <trkpt lat="45.23268" lon="6.02778">
        <ele>2158.4499511719</ele>
        <time>2017-12-06T10:01:26Z</time>
      </trkpt>
      <trkpt lat="45.23263" lon="6.02783">
        <ele>2156.4499511719</ele>
        <time>2017-12-06T10:01:28Z</time>
      </trkpt>
      <trkpt lat="45.23257" lon="6.02786">
        <ele>2155.4499511719</ele>
        <time>2017-12-06T10:01:30Z</time>
      </trkpt>
      <trkpt lat="45.23255" lon="6.02779">
        <ele>2153.4499511719</ele>
        <time>2017-12-06T10:01:32Z</time>
      </trkpt>
      <trkpt lat="45.23256" lon="6.02772">
        <ele>2151.4499511719</ele>
        <time>2017-12-06T10:01:35Z</time>
      </trkpt>
      <trkpt lat="45.23257" lon="6.02764">
        <ele>2151.4499511719</ele>
        <time>2017-12-06T10:01:37Z</time>
      </trkpt>
      <trkpt lat="45.2326" lon="6.02742">
        <ele>2150.4499511719</ele>
        <time>2017-12-06T10:01:39Z</time>
      </trkpt>
      <trkpt lat="45.2326" lon="6.02731">
        <ele>2150.4499511719</ele>
        <time>2017-12-06T10:01:41Z</time>
      </trkpt>
      <trkpt lat="45.23258" lon="6.02722">
        <ele>2148.4499511719</ele>
        <time>2017-12-06T10:01:43Z</time>
      </trkpt>
      <trkpt lat="45.23253" lon="6.02714">
        <ele>2147.4499511719</ele>
        <time>2017-12-06T10:01:45Z</time>
      </trkpt>
      <trkpt lat="45.23251" lon="6.02726">
        <ele>2146.4499511719</ele>
        <time>2017-12-06T10:01:47Z</time>
      </trkpt>
      <trkpt lat="45.23245" lon="6.02739">
        <ele>2145.4499511719</ele>
        <time>2017-12-06T10:01:49Z</time>
      </trkpt>
      <trkpt lat="45.23236" lon="6.02745">
        <ele>2144.4499511719</ele>
        <time>2017-12-06T10:01:51Z</time>
      </trkpt>
      <trkpt lat="45.23225" lon="6.02752">
        <ele>2142.4499511719</ele>
        <time>2017-12-06T10:01:54Z</time>
      </trkpt>
      <trkpt lat="45.23219" lon="6.02749">
        <ele>2138.4499511719</ele>
        <time>2017-12-06T10:01:56Z</time>
      </trkpt>
      <trkpt lat="45.23209" lon="6.02758">
        <ele>2138.4499511719</ele>
        <time>2017-12-06T10:01:58Z</time>
      </trkpt>
      <trkpt lat="45.23199" lon="6.02764">
        <ele>2134.4499511719</ele>
        <time>2017-12-06T10:02:00Z</time>
      </trkpt>
      <trkpt lat="45.23192" lon="6.02765">
        <ele>2133.4499511719</ele>
        <time>2017-12-06T10:02:02Z</time>
      </trkpt>
      <trkpt lat="45.23186" lon="6.02769">
        <ele>2130.4499511719</ele>
        <time>2017-12-06T10:02:04Z</time>
      </trkpt>
      <trkpt lat="45.23182" lon="6.02774">
        <ele>2128.4499511719</ele>
        <time>2017-12-06T10:02:06Z</time>
      </trkpt>
      <trkpt lat="45.23177" lon="6.02777">
        <ele>2124.4499511719</ele>
        <time>2017-12-06T10:02:12Z</time>
      </trkpt>
      <trkpt lat="45.23176" lon="6.02768">
        <ele>2121.4499511719</ele>
        <time>2017-12-06T10:02:15Z</time>
      </trkpt>
      <trkpt lat="45.23181" lon="6.02758">
        <ele>2120.4499511719</ele>
        <time>2017-12-06T10:02:17Z</time>
      </trkpt>
      <trkpt lat="45.23189" lon="6.02742">
        <ele>2119.4499511719</ele>
        <time>2017-12-06T10:02:19Z</time>
      </trkpt>
      <trkpt lat="45.23181" lon="6.02744">
        <ele>2118.4499511719</ele>
        <time>2017-12-06T10:02:22Z</time>
      </trkpt>
      <trkpt lat="45.23171" lon="6.02749">
        <ele>2118.4499511719</ele>
        <time>2017-12-06T10:02:24Z</time>
      </trkpt>
      <trkpt lat="45.2316" lon="6.02753">
        <ele>2114.4499511719</ele>
        <time>2017-12-06T10:02:26Z</time>
      </trkpt>
      <trkpt lat="45.23156" lon="6.02758">
        <ele>2110.4499511719</ele>
        <time>2017-12-06T10:02:28Z</time>
      </trkpt>
      <trkpt lat="45.2316" lon="6.02753">
        <ele>2107.4499511719</ele>
        <time>2017-12-06T10:02:31Z</time>
      </trkpt>
      <trkpt lat="45.23163" lon="6.02746">
        <ele>2108.4499511719</ele>
        <time>2017-12-06T10:02:32Z</time>
      </trkpt>
      <trkpt lat="45.23167" lon="6.02739">
        <ele>2107.4499511719</ele>
        <time>2017-12-06T10:02:34Z</time>
      </trkpt>
      <trkpt lat="45.23171" lon="6.02733">
        <ele>2103.4499511719</ele>
        <time>2017-12-06T10:02:36Z</time>
      </trkpt>
      <trkpt lat="45.23172" lon="6.02726">
        <ele>2099.4499511719</ele>
        <time>2017-12-06T10:02:39Z</time>
      </trkpt>
      <trkpt lat="45.23168" lon="6.02724">
        <ele>2099.4499511719</ele>
        <time>2017-12-06T10:02:40Z</time>
      </trkpt>
      <trkpt lat="45.23161" lon="6.02729">
        <ele>2097.4499511719</ele>
        <time>2017-12-06T10:02:42Z</time>
      </trkpt>
      <trkpt lat="45.23154" lon="6.02726">
        <ele>2096.4499511719</ele>
        <time>2017-12-06T10:02:44Z</time>
      </trkpt>
      <trkpt lat="45.23152" lon="6.02713">
        <ele>2095.4499511719</ele>
        <time>2017-12-06T10:02:46Z</time>
      </trkpt>
      <trkpt lat="45.2315" lon="6.02703">
        <ele>2094.4499511719</ele>
        <time>2017-12-06T10:02:48Z</time>
      </trkpt>
      <trkpt lat="45.23147" lon="6.02697">
        <ele>2094.4499511719</ele>
        <time>2017-12-06T10:02:50Z</time>
      </trkpt>
      <trkpt lat="45.23143" lon="6.02691">
        <ele>2094.4499511719</ele>
        <time>2017-12-06T10:03:04Z</time>
      </trkpt>
      <trkpt lat="45.2314" lon="6.02687">
        <ele>2092.4499511719</ele>
        <time>2017-12-06T10:03:07Z</time>
      </trkpt>
      <trkpt lat="45.23137" lon="6.02682">
        <ele>2090.4499511719</ele>
        <time>2017-12-06T10:03:12Z</time>
      </trkpt>
      <trkpt lat="45.23132" lon="6.02679">
        <ele>2089.4499511719</ele>
        <time>2017-12-06T10:03:30Z</time>
      </trkpt>
      <trkpt lat="45.23126" lon="6.02681">
        <ele>2084.4499511719</ele>
        <time>2017-12-06T10:03:36Z</time>
      </trkpt>
      <trkpt lat="45.23123" lon="6.02676">
        <ele>2083.4499511719</ele>
        <time>2017-12-06T10:03:38Z</time>
      </trkpt>
      <trkpt lat="45.2312" lon="6.0267">
        <ele>2080.4499511719</ele>
        <time>2017-12-06T10:03:41Z</time>
      </trkpt>
      <trkpt lat="45.23117" lon="6.02663">
        <ele>2074.4499511719</ele>
        <time>2017-12-06T10:03:43Z</time>
      </trkpt>
      <trkpt lat="45.23111" lon="6.02666">
        <ele>2074.4499511719</ele>
        <time>2017-12-06T10:03:46Z</time>
      </trkpt>
      <trkpt lat="45.23103" lon="6.02652">
        <ele>2071.4499511719</ele>
        <time>2017-12-06T10:03:49Z</time>
      </trkpt>
      <trkpt lat="45.231" lon="6.02646">
        <ele>2070.4499511719</ele>
        <time>2017-12-06T10:03:52Z</time>
      </trkpt>
      <trkpt lat="45.23094" lon="6.0264">
        <ele>2068.4499511719</ele>
        <time>2017-12-06T10:03:58Z</time>
      </trkpt>
      <trkpt lat="45.23092" lon="6.02633">
        <ele>2067.4499511719</ele>
        <time>2017-12-06T10:04:00Z</time>
      </trkpt>
      <trkpt lat="45.2309" lon="6.02627">
        <ele>2066.4499511719</ele>
        <time>2017-12-06T10:04:02Z</time>
      </trkpt>
      <trkpt lat="45.23087" lon="6.02621">
        <ele>2064.4499511719</ele>
        <time>2017-12-06T10:04:04Z</time>
      </trkpt>
      <trkpt lat="45.23084" lon="6.02617">
        <ele>2062.4499511719</ele>
        <time>2017-12-06T10:04:06Z</time>
      </trkpt>
      <trkpt lat="45.23081" lon="6.02625">
        <ele>2060.4499511719</ele>
        <time>2017-12-06T10:04:08Z</time>
      </trkpt>
      <trkpt lat="45.23081" lon="6.02635">
        <ele>2058.4499511719</ele>
        <time>2017-12-06T10:04:10Z</time>
      </trkpt>
      <trkpt lat="45.2308" lon="6.02652">
        <ele>2057.4499511719</ele>
        <time>2017-12-06T10:04:13Z</time>
      </trkpt>
      <trkpt lat="45.23081" lon="6.02661">
        <ele>2055.4499511719</ele>
        <time>2017-12-06T10:04:15Z</time>
      </trkpt>
      <trkpt lat="45.23073" lon="6.0266">
        <ele>2052.4499511719</ele>
        <time>2017-12-06T10:04:17Z</time>
      </trkpt>
      <trkpt lat="45.23066" lon="6.02648">
        <ele>2050.4499511719</ele>
        <time>2017-12-06T10:04:20Z</time>
      </trkpt>
      <trkpt lat="45.23061" lon="6.02646">
        <ele>2051.4499511719</ele>
        <time>2017-12-06T10:04:34Z</time>
      </trkpt>
      <trkpt lat="45.2306" lon="6.02653">
        <ele>2050.4499511719</ele>
        <time>2017-12-06T10:04:36Z</time>
      </trkpt>
      <trkpt lat="45.2306" lon="6.02668">
        <ele>2047.4499511719</ele>
        <time>2017-12-06T10:04:38Z</time>
      </trkpt>
      <trkpt lat="45.23059" lon="6.02683">
        <ele>2044.4499511719</ele>
        <time>2017-12-06T10:04:40Z</time>
      </trkpt>
      <trkpt lat="45.23057" lon="6.027">
        <ele>2043.4499511719</ele>
        <time>2017-12-06T10:04:42Z</time>
      </trkpt>
      <trkpt lat="45.2305" lon="6.02712">
        <ele>2043.4499511719</ele>
        <time>2017-12-06T10:04:44Z</time>
      </trkpt>
      <trkpt lat="45.23044" lon="6.02719">
        <ele>2040.4499511719</ele>
        <time>2017-12-06T10:04:46Z</time>
      </trkpt>
      <trkpt lat="45.2304" lon="6.02723">
        <ele>2040.4499511719</ele>
        <time>2017-12-06T10:04:47Z</time>
      </trkpt>
      <trkpt lat="45.23033" lon="6.02728">
        <ele>2039.4499511719</ele>
        <time>2017-12-06T10:04:49Z</time>
      </trkpt>
      <trkpt lat="45.23028" lon="6.02734">
        <ele>2037.4499511719</ele>
        <time>2017-12-06T10:04:51Z</time>
      </trkpt>
      <trkpt lat="45.23021" lon="6.02741">
        <ele>2037.4499511719</ele>
        <time>2017-12-06T10:04:53Z</time>
      </trkpt>
      <trkpt lat="45.23014" lon="6.02747">
        <ele>2037.4499511719</ele>
        <time>2017-12-06T10:04:55Z</time>
      </trkpt>
      <trkpt lat="45.23007" lon="6.02752">
        <ele>2036.4499511719</ele>
        <time>2017-12-06T10:04:57Z</time>
      </trkpt>
      <trkpt lat="45.23002" lon="6.02757">
        <ele>2035.4499511719</ele>
        <time>2017-12-06T10:04:59Z</time>
      </trkpt>
      <trkpt lat="45.22995" lon="6.02762">
        <ele>2034.4499511719</ele>
        <time>2017-12-06T10:05:01Z</time>
      </trkpt>
      <trkpt lat="45.22988" lon="6.02767">
        <ele>2033.4499511719</ele>
        <time>2017-12-06T10:05:04Z</time>
      </trkpt>
      <trkpt lat="45.22981" lon="6.02773">
        <ele>2032.4499511719</ele>
        <time>2017-12-06T10:05:06Z</time>
      </trkpt>
      <trkpt lat="45.22976" lon="6.02779">
        <ele>2031.4499511719</ele>
        <time>2017-12-06T10:05:08Z</time>
      </trkpt>
      <trkpt lat="45.22972" lon="6.02774">
        <ele>2030.4499511719</ele>
        <time>2017-12-06T10:05:13Z</time>
      </trkpt>
      <trkpt lat="45.2297" lon="6.02762">
        <ele>2026.4499511719</ele>
        <time>2017-12-06T10:05:20Z</time>
      </trkpt>
      <trkpt lat="45.22974" lon="6.02755">
        <ele>2024.4499511719</ele>
        <time>2017-12-06T10:05:22Z</time>
      </trkpt>
      <trkpt lat="45.22977" lon="6.02748">
        <ele>2021.4499511719</ele>
        <time>2017-12-06T10:05:24Z</time>
      </trkpt>
      <trkpt lat="45.22981" lon="6.02741">
        <ele>2020.4499511719</ele>
        <time>2017-12-06T10:05:26Z</time>
      </trkpt>
      <trkpt lat="45.22985" lon="6.02732">
        <ele>1846.4499511719</ele>
        <time>2017-12-06T10:05:30Z</time>
      </trkpt>
      <trkpt lat="45.22986" lon="6.02724">
        <ele>1893.4499511719</ele>
        <time>2017-12-06T10:05:31Z</time>
      </trkpt>
      <trkpt lat="45.22992" lon="6.02709">
        <ele>1963.4499511719</ele>
        <time>2017-12-06T10:05:34Z</time>
      </trkpt>
      <trkpt lat="45.22994" lon="6.02697">
        <ele>1986.4499511719</ele>
        <time>2017-12-06T10:05:36Z</time>
      </trkpt>
      <trkpt lat="45.22996" lon="6.02688">
        <ele>1995.4499511719</ele>
        <time>2017-12-06T10:05:38Z</time>
      </trkpt>
      <trkpt lat="45.22997" lon="6.02676">
        <ele>1997.4499511719</ele>
        <time>2017-12-06T10:05:40Z</time>
      </trkpt>
      <trkpt lat="45.22994" lon="6.02666">
        <ele>1996.4499511719</ele>
        <time>2017-12-06T10:05:42Z</time>
      </trkpt>
      <trkpt lat="45.22992" lon="6.02659">
        <ele>2000.4499511719</ele>
        <time>2017-12-06T10:05:44Z</time>
      </trkpt>
      <trkpt lat="45.22987" lon="6.02652">
        <ele>2001.4499511719</ele>
        <time>2017-12-06T10:05:46Z</time>
      </trkpt>
      <trkpt lat="45.22982" lon="6.02645">
        <ele>2001.4499511719</ele>
        <time>2017-12-06T10:05:48Z</time>
      </trkpt>
      <trkpt lat="45.22977" lon="6.02638">
        <ele>1999.4499511719</ele>
        <time>2017-12-06T10:05:50Z</time>
      </trkpt>
      <trkpt lat="45.22973" lon="6.02643">
        <ele>1995.4499511719</ele>
        <time>2017-12-06T10:05:52Z</time>
      </trkpt>
      <trkpt lat="45.22968" lon="6.0264">
        <ele>1990.4499511719</ele>
        <time>2017-12-06T10:05:55Z</time>
      </trkpt>
      <trkpt lat="45.22962" lon="6.02637">
        <ele>1989.4499511719</ele>
        <time>2017-12-06T10:05:57Z</time>
      </trkpt>
      <trkpt lat="45.22963" lon="6.02646">
        <ele>1985.4499511719</ele>
        <time>2017-12-06T10:05:59Z</time>
      </trkpt>
      <trkpt lat="45.22965" lon="6.02655">
        <ele>1985.4499511719</ele>
        <time>2017-12-06T10:06:01Z</time>
      </trkpt>
      <trkpt lat="45.22957" lon="6.02648">
        <ele>1984.4499511719</ele>
        <time>2017-12-06T10:06:04Z</time>
      </trkpt>
      <trkpt lat="45.22953" lon="6.02641">
        <ele>1983.4499511719</ele>
        <time>2017-12-06T10:06:06Z</time>
      </trkpt>
      <trkpt lat="45.22949" lon="6.02636">
        <ele>1980.4499511719</ele>
        <time>2017-12-06T10:06:08Z</time>
      </trkpt>
      <trkpt lat="45.22945" lon="6.02631">
        <ele>1979.4499511719</ele>
        <time>2017-12-06T10:06:10Z</time>
      </trkpt>
      <trkpt lat="45.2294" lon="6.02624">
        <ele>1978.4499511719</ele>
        <time>2017-12-06T10:06:12Z</time>
      </trkpt>
      <trkpt lat="45.2293" lon="6.0261">
        <ele>1975.4489746094</ele>
        <time>2017-12-06T10:06:15Z</time>
      </trkpt>
      <trkpt lat="45.22922" lon="6.02603">
        <ele>1974.4489746094</ele>
        <time>2017-12-06T10:06:17Z</time>
      </trkpt>
      <trkpt lat="45.22916" lon="6.02598">
        <ele>1973.4489746094</ele>
        <time>2017-12-06T10:06:19Z</time>
      </trkpt>
      <trkpt lat="45.22912" lon="6.02595">
        <ele>1973.4489746094</ele>
        <time>2017-12-06T10:06:21Z</time>
      </trkpt>
      <trkpt lat="45.22908" lon="6.02602">
        <ele>1970.4489746094</ele>
        <time>2017-12-06T10:06:24Z</time>
      </trkpt>
      <trkpt lat="45.22907" lon="6.02609">
        <ele>1967.4489746094</ele>
        <time>2017-12-06T10:06:26Z</time>
      </trkpt>
      <trkpt lat="45.22909" lon="6.02622">
        <ele>1968.4489746094</ele>
        <time>2017-12-06T10:06:37Z</time>
      </trkpt>
      <trkpt lat="45.22909" lon="6.02641">
        <ele>1964.4489746094</ele>
        <time>2017-12-06T10:06:40Z</time>
      </trkpt>
      <trkpt lat="45.22907" lon="6.02647">
        <ele>1964.4489746094</ele>
        <time>2017-12-06T10:06:41Z</time>
      </trkpt>
      <trkpt lat="45.22902" lon="6.02638">
        <ele>1957.4489746094</ele>
        <time>2017-12-06T10:06:49Z</time>
      </trkpt>
      <trkpt lat="45.22894" lon="6.02625">
        <ele>1957.4489746094</ele>
        <time>2017-12-06T10:06:52Z</time>
      </trkpt>
      <trkpt lat="45.22889" lon="6.02622">
        <ele>1956.4489746094</ele>
        <time>2017-12-06T10:06:54Z</time>
      </trkpt>
      <trkpt lat="45.22885" lon="6.02619">
        <ele>1955.4489746094</ele>
        <time>2017-12-06T10:06:56Z</time>
      </trkpt>
      <trkpt lat="45.22879" lon="6.02615">
        <ele>1953.4489746094</ele>
        <time>2017-12-06T10:06:58Z</time>
      </trkpt>
      <trkpt lat="45.22874" lon="6.02612">
        <ele>1952.4489746094</ele>
        <time>2017-12-06T10:07:00Z</time>
      </trkpt>
      <trkpt lat="45.22868" lon="6.02607">
        <ele>1950.4489746094</ele>
        <time>2017-12-06T10:07:02Z</time>
      </trkpt>
      <trkpt lat="45.22863" lon="6.02603">
        <ele>1949.4489746094</ele>
        <time>2017-12-06T10:07:04Z</time>
      </trkpt>
      <trkpt lat="45.22859" lon="6.02599">
        <ele>1947.4489746094</ele>
        <time>2017-12-06T10:07:06Z</time>
      </trkpt>
      <trkpt lat="45.22854" lon="6.02594">
        <ele>1945.4489746094</ele>
        <time>2017-12-06T10:07:08Z</time>
      </trkpt>
      <trkpt lat="45.2285" lon="6.02589">
        <ele>1944.4489746094</ele>
        <time>2017-12-06T10:07:10Z</time>
      </trkpt>
      <trkpt lat="45.22846" lon="6.02584">
        <ele>1942.4489746094</ele>
        <time>2017-12-06T10:07:12Z</time>
      </trkpt>
      <trkpt lat="45.22844" lon="6.02578">
        <ele>1940.4489746094</ele>
        <time>2017-12-06T10:07:14Z</time>
      </trkpt>
      <trkpt lat="45.2284" lon="6.02573">
        <ele>1939.4489746094</ele>
        <time>2017-12-06T10:07:16Z</time>
      </trkpt>
      <trkpt lat="45.22836" lon="6.02566">
        <ele>1940.4489746094</ele>
        <time>2017-12-06T10:07:19Z</time>
      </trkpt>
      <trkpt lat="45.22831" lon="6.02559">
        <ele>1938.4489746094</ele>
        <time>2017-12-06T10:07:21Z</time>
      </trkpt>
      <trkpt lat="45.22829" lon="6.02553">
        <ele>1939.4489746094</ele>
        <time>2017-12-06T10:07:23Z</time>
      </trkpt>
      <trkpt lat="45.22825" lon="6.02548">
        <ele>1937.4489746094</ele>
        <time>2017-12-06T10:07:25Z</time>
      </trkpt>
      <trkpt lat="45.22822" lon="6.02542">
        <ele>1935.4489746094</ele>
        <time>2017-12-06T10:07:27Z</time>
      </trkpt>
      <trkpt lat="45.22819" lon="6.02536">
        <ele>1933.4489746094</ele>
        <time>2017-12-06T10:07:29Z</time>
      </trkpt>
      <trkpt lat="45.22816" lon="6.0253">
        <ele>1933.4489746094</ele>
        <time>2017-12-06T10:07:31Z</time>
      </trkpt>
      <trkpt lat="45.22813" lon="6.02525">
        <ele>1931.4489746094</ele>
        <time>2017-12-06T10:07:35Z</time>
      </trkpt>
      <trkpt lat="45.22809" lon="6.0252">
        <ele>1933.4489746094</ele>
        <time>2017-12-06T10:09:48Z</time>
      </trkpt>
      <trkpt lat="45.22805" lon="6.02516">
        <ele>1931.4489746094</ele>
        <time>2017-12-06T10:09:50Z</time>
      </trkpt>
      <trkpt lat="45.22801" lon="6.02513">
        <ele>1930.4489746094</ele>
        <time>2017-12-06T10:09:54Z</time>
      </trkpt>
      <trkpt lat="45.22794" lon="6.02516">
        <ele>1929.4489746094</ele>
        <time>2017-12-06T10:09:57Z</time>
      </trkpt>
      <trkpt lat="45.22789" lon="6.02514">
        <ele>1928.4489746094</ele>
        <time>2017-12-06T10:09:59Z</time>
      </trkpt>
      <trkpt lat="45.22781" lon="6.02512">
        <ele>1927.4489746094</ele>
        <time>2017-12-06T10:10:01Z</time>
      </trkpt>
      <trkpt lat="45.22772" lon="6.02506">
        <ele>1927.4489746094</ele>
        <time>2017-12-06T10:10:03Z</time>
      </trkpt>
      <trkpt lat="45.22768" lon="6.02502">
        <ele>1924.4489746094</ele>
        <time>2017-12-06T10:10:06Z</time>
      </trkpt>
      <trkpt lat="45.22762" lon="6.02499">
        <ele>1921.4489746094</ele>
        <time>2017-12-06T10:10:09Z</time>
      </trkpt>
      <trkpt lat="45.22757" lon="6.02497">
        <ele>1920.4489746094</ele>
        <time>2017-12-06T10:10:11Z</time>
      </trkpt>
      <trkpt lat="45.2275" lon="6.0249">
        <ele>1918.4489746094</ele>
        <time>2017-12-06T10:10:13Z</time>
      </trkpt>
      <trkpt lat="45.22744" lon="6.02483">
        <ele>1916.4489746094</ele>
        <time>2017-12-06T10:10:15Z</time>
      </trkpt>
      <trkpt lat="45.22739" lon="6.02475">
        <ele>1914.4489746094</ele>
        <time>2017-12-06T10:10:17Z</time>
      </trkpt>
      <trkpt lat="45.22733" lon="6.02465">
        <ele>1912.4489746094</ele>
        <time>2017-12-06T10:10:19Z</time>
      </trkpt>
      <trkpt lat="45.2273" lon="6.02459">
        <ele>1911.4489746094</ele>
        <time>2017-12-06T10:10:20Z</time>
      </trkpt>
      <trkpt lat="45.22723" lon="6.02449">
        <ele>1907.4489746094</ele>
        <time>2017-12-06T10:10:22Z</time>
      </trkpt>
      <trkpt lat="45.22716" lon="6.02439">
        <ele>1907.4489746094</ele>
        <time>2017-12-06T10:10:24Z</time>
      </trkpt>
      <trkpt lat="45.22707" lon="6.02433">
        <ele>1905.4489746094</ele>
        <time>2017-12-06T10:10:26Z</time>
      </trkpt>
      <trkpt lat="45.22698" lon="6.0243">
        <ele>1903.4489746094</ele>
        <time>2017-12-06T10:10:28Z</time>
      </trkpt>
      <trkpt lat="45.2269" lon="6.02426">
        <ele>1901.4489746094</ele>
        <time>2017-12-06T10:10:30Z</time>
      </trkpt>
      <trkpt lat="45.22681" lon="6.02421">
        <ele>1900.4489746094</ele>
        <time>2017-12-06T10:10:32Z</time>
      </trkpt>
      <trkpt lat="45.22673" lon="6.02423">
        <ele>1898.4489746094</ele>
        <time>2017-12-06T10:10:34Z</time>
      </trkpt>
      <trkpt lat="45.22669" lon="6.02429">
        <ele>1894.4489746094</ele>
        <time>2017-12-06T10:10:35Z</time>
      </trkpt>
      <trkpt lat="45.22669" lon="6.02435">
        <ele>1891.4489746094</ele>
        <time>2017-12-06T10:10:36Z</time>
      </trkpt>
      <trkpt lat="45.22664" lon="6.02441">
        <ele>1886.4489746094</ele>
        <time>2017-12-06T10:10:38Z</time>
      </trkpt>
      <trkpt lat="45.22658" lon="6.02443">
        <ele>1883.4489746094</ele>
        <time>2017-12-06T10:10:40Z</time>
      </trkpt>
      <trkpt lat="45.22653" lon="6.02442">
        <ele>1886.4489746094</ele>
        <time>2017-12-06T10:10:46Z</time>
      </trkpt>
      <trkpt lat="45.22652" lon="6.02448">
        <ele>1882.4489746094</ele>
        <time>2017-12-06T10:10:50Z</time>
      </trkpt>
      <trkpt lat="45.22646" lon="6.02454">
        <ele>1879.4489746094</ele>
        <time>2017-12-06T10:10:52Z</time>
      </trkpt>
      <trkpt lat="45.22641" lon="6.02451">
        <ele>1878.4489746094</ele>
        <time>2017-12-06T10:10:54Z</time>
      </trkpt>
      <trkpt lat="45.22637" lon="6.02454">
        <ele>1881.4489746094</ele>
        <time>2017-12-06T10:11:05Z</time>
      </trkpt>
      <trkpt lat="45.22633" lon="6.02462">
        <ele>1876.4489746094</ele>
        <time>2017-12-06T10:11:07Z</time>
      </trkpt>
      <trkpt lat="45.22627" lon="6.0246">
        <ele>1875.4489746094</ele>
        <time>2017-12-06T10:11:09Z</time>
      </trkpt>
      <trkpt lat="45.22622" lon="6.0246">
        <ele>1871.4489746094</ele>
        <time>2017-12-06T10:11:16Z</time>
      </trkpt>
      <trkpt lat="45.22618" lon="6.02457">
        <ele>1870.4489746094</ele>
        <time>2017-12-06T10:11:18Z</time>
      </trkpt>
      <trkpt lat="45.22613" lon="6.02455">
        <ele>1869.4489746094</ele>
        <time>2017-12-06T10:11:20Z</time>
      </trkpt>
      <trkpt lat="45.22608" lon="6.02453">
        <ele>1867.4489746094</ele>
        <time>2017-12-06T10:11:22Z</time>
      </trkpt>
      <trkpt lat="45.22602" lon="6.02465">
        <ele>1866.4489746094</ele>
        <time>2017-12-06T10:11:24Z</time>
      </trkpt>
      <trkpt lat="45.22595" lon="6.02481">
        <ele>1865.4489746094</ele>
        <time>2017-12-06T10:11:26Z</time>
      </trkpt>
      <trkpt lat="45.22583" lon="6.0249">
        <ele>1863.4489746094</ele>
        <time>2017-12-06T10:11:28Z</time>
      </trkpt>
      <trkpt lat="45.2257" lon="6.0249">
        <ele>1860.4489746094</ele>
        <time>2017-12-06T10:11:30Z</time>
      </trkpt>
      <trkpt lat="45.22561" lon="6.02481">
        <ele>1858.4489746094</ele>
        <time>2017-12-06T10:11:32Z</time>
      </trkpt>
      <trkpt lat="45.22552" lon="6.02475">
        <ele>1856.4489746094</ele>
        <time>2017-12-06T10:11:34Z</time>
      </trkpt>
      <trkpt lat="45.22542" lon="6.02472">
        <ele>1854.4489746094</ele>
        <time>2017-12-06T10:11:36Z</time>
      </trkpt>
      <trkpt lat="45.2253" lon="6.02468">
        <ele>1849.4479980469</ele>
        <time>2017-12-06T10:11:38Z</time>
      </trkpt>
      <trkpt lat="45.22517" lon="6.0246">
        <ele>1845.4479980469</ele>
        <time>2017-12-06T10:11:40Z</time>
      </trkpt>
      <trkpt lat="45.22508" lon="6.02452">
        <ele>1844.4479980469</ele>
        <time>2017-12-06T10:11:42Z</time>
      </trkpt>
      <trkpt lat="45.22501" lon="6.02441">
        <ele>1844.4479980469</ele>
        <time>2017-12-06T10:11:46Z</time>
      </trkpt>
      <trkpt lat="45.22496" lon="6.02439">
        <ele>1844.4479980469</ele>
        <time>2017-12-06T10:12:14Z</time>
      </trkpt>
      <trkpt lat="45.22491" lon="6.02438">
        <ele>1842.4479980469</ele>
        <time>2017-12-06T10:12:16Z</time>
      </trkpt>
      <trkpt lat="45.22488" lon="6.02428">
        <ele>1841.4479980469</ele>
        <time>2017-12-06T10:12:18Z</time>
      </trkpt>
      <trkpt lat="45.22487" lon="6.02421">
        <ele>1839.4479980469</ele>
        <time>2017-12-06T10:12:20Z</time>
      </trkpt>
      <trkpt lat="45.22485" lon="6.02413">
        <ele>1840.4479980469</ele>
        <time>2017-12-06T10:12:23Z</time>
      </trkpt>
      <trkpt lat="45.22483" lon="6.02408">
        <ele>1840.4479980469</ele>
        <time>2017-12-06T10:12:29Z</time>
      </trkpt>
      <trkpt lat="45.2248" lon="6.02403">
        <ele>1836.4479980469</ele>
        <time>2017-12-06T10:13:00Z</time>
      </trkpt>
      <trkpt lat="45.22476" lon="6.02398">
        <ele>1833.4479980469</ele>
        <time>2017-12-06T10:13:06Z</time>
      </trkpt>
      <trkpt lat="45.22472" lon="6.02402">
        <ele>1832.4479980469</ele>
        <time>2017-12-06T10:13:09Z</time>
      </trkpt>
      <trkpt lat="45.22467" lon="6.02401">
        <ele>1832.4479980469</ele>
        <time>2017-12-06T10:13:15Z</time>
      </trkpt>
      <trkpt lat="45.22462" lon="6.02401">
        <ele>1826.4479980469</ele>
        <time>2017-12-06T10:13:21Z</time>
      </trkpt>
      <trkpt lat="45.22459" lon="6.02395">
        <ele>1822.4479980469</ele>
        <time>2017-12-06T10:13:28Z</time>
      </trkpt>
      <trkpt lat="45.22455" lon="6.02392">
        <ele>1820.4479980469</ele>
        <time>2017-12-06T10:13:38Z</time>
      </trkpt>
      <trkpt lat="45.22454" lon="6.02385">
        <ele>1814.4479980469</ele>
        <time>2017-12-06T10:13:47Z</time>
      </trkpt>
      <trkpt lat="45.22451" lon="6.02379">
        <ele>1814.4479980469</ele>
        <time>2017-12-06T10:13:58Z</time>
      </trkpt>
      <trkpt lat="45.22445" lon="6.02381">
        <ele>1816.4479980469</ele>
        <time>2017-12-06T10:14:06Z</time>
      </trkpt>
      <trkpt lat="45.2244" lon="6.02382">
        <ele>1812.4479980469</ele>
        <time>2017-12-06T10:14:11Z</time>
      </trkpt>
      <trkpt lat="45.22436" lon="6.0238">
        <ele>1812.4479980469</ele>
        <time>2017-12-06T10:14:22Z</time>
      </trkpt>
      <trkpt lat="45.2243" lon="6.02378">
        <ele>1818.4479980469</ele>
        <time>2017-12-06T10:14:29Z</time>
      </trkpt>
      <trkpt lat="45.22426" lon="6.02375">
        <ele>1818.4479980469</ele>
        <time>2017-12-06T10:14:33Z</time>
      </trkpt>
      <trkpt lat="45.22421" lon="6.02375">
        <ele>1818.4479980469</ele>
        <time>2017-12-06T10:14:37Z</time>
      </trkpt>
      <trkpt lat="45.22417" lon="6.02375">
        <ele>1816.4479980469</ele>
        <time>2017-12-06T10:14:42Z</time>
      </trkpt>
      <trkpt lat="45.22412" lon="6.02373">
        <ele>1813.4479980469</ele>
        <time>2017-12-06T10:15:01Z</time>
      </trkpt>
      <trkpt lat="45.22409" lon="6.02368">
        <ele>1817.4479980469</ele>
        <time>2017-12-06T10:15:39Z</time>
      </trkpt>
      <trkpt lat="45.22403" lon="6.02373">
        <ele>1814.4479980469</ele>
        <time>2017-12-06T10:15:53Z</time>
      </trkpt>
      <trkpt lat="45.224" lon="6.02379">
        <ele>1812.4479980469</ele>
        <time>2017-12-06T10:15:56Z</time>
      </trkpt>
      <trkpt lat="45.22396" lon="6.02383">
        <ele>1812.4479980469</ele>
        <time>2017-12-06T10:15:59Z</time>
      </trkpt>
      <trkpt lat="45.22391" lon="6.02388">
        <ele>1811.4479980469</ele>
        <time>2017-12-06T10:16:02Z</time>
      </trkpt>
      <trkpt lat="45.22385" lon="6.02393">
        <ele>1807.4479980469</ele>
        <time>2017-12-06T10:16:07Z</time>
      </trkpt>
      <trkpt lat="45.22376" lon="6.02397">
        <ele>1805.4479980469</ele>
        <time>2017-12-06T10:16:09Z</time>
      </trkpt>
      <trkpt lat="45.22368" lon="6.02404">
        <ele>1801.4479980469</ele>
        <time>2017-12-06T10:16:11Z</time>
      </trkpt>
      <trkpt lat="45.22362" lon="6.0241">
        <ele>1799.4479980469</ele>
        <time>2017-12-06T10:16:13Z</time>
      </trkpt>
      <trkpt lat="45.22355" lon="6.02413">
        <ele>1797.4479980469</ele>
        <time>2017-12-06T10:16:15Z</time>
      </trkpt>
      <trkpt lat="45.22347" lon="6.02405">
        <ele>1794.4479980469</ele>
        <time>2017-12-06T10:16:17Z</time>
      </trkpt>
      <trkpt lat="45.22344" lon="6.02396">
        <ele>1791.4479980469</ele>
        <time>2017-12-06T10:16:19Z</time>
      </trkpt>
      <trkpt lat="45.22336" lon="6.02393">
        <ele>1788.4479980469</ele>
        <time>2017-12-06T10:16:21Z</time>
      </trkpt>
      <trkpt lat="45.22326" lon="6.02391">
        <ele>1785.4479980469</ele>
        <time>2017-12-06T10:16:23Z</time>
      </trkpt>
      <trkpt lat="45.22311" lon="6.0239">
        <ele>1784.4479980469</ele>
        <time>2017-12-06T10:16:26Z</time>
      </trkpt>
      <trkpt lat="45.223" lon="6.02388">
        <ele>1781.4479980469</ele>
        <time>2017-12-06T10:16:29Z</time>
      </trkpt>
      <trkpt lat="45.22293" lon="6.02387">
        <ele>1780.4479980469</ele>
        <time>2017-12-06T10:16:32Z</time>
      </trkpt>
      <trkpt lat="45.22288" lon="6.02388">
        <ele>1778.4479980469</ele>
        <time>2017-12-06T10:16:35Z</time>
      </trkpt>
      <trkpt lat="45.22282" lon="6.02388">
        <ele>1777.4479980469</ele>
        <time>2017-12-06T10:16:38Z</time>
      </trkpt>
      <trkpt lat="45.22276" lon="6.02387">
        <ele>1774.4479980469</ele>
        <time>2017-12-06T10:16:41Z</time>
      </trkpt>
      <trkpt lat="45.22272" lon="6.02385">
        <ele>1914.4479980469</ele>
        <time>2017-12-06T10:16:45Z</time>
      </trkpt>
      <trkpt lat="45.22275" lon="6.02377">
        <ele>1847.4479980469</ele>
        <time>2017-12-06T10:16:47Z</time>
      </trkpt>
      <trkpt lat="45.22277" lon="6.02364">
        <ele>1808.4479980469</ele>
        <time>2017-12-06T10:16:51Z</time>
      </trkpt>
      <trkpt lat="45.22277" lon="6.02357">
        <ele>1781.4479980469</ele>
        <time>2017-12-06T10:17:04Z</time>
      </trkpt>
      <trkpt lat="45.22278" lon="6.02349">
        <ele>1776.4479980469</ele>
        <time>2017-12-06T10:17:07Z</time>
      </trkpt>
      <trkpt lat="45.22277" lon="6.02339">
        <ele>1774.4479980469</ele>
        <time>2017-12-06T10:17:10Z</time>
      </trkpt>
      <trkpt lat="45.22275" lon="6.02331">
        <ele>1769.4479980469</ele>
        <time>2017-12-06T10:17:12Z</time>
      </trkpt>
      <trkpt lat="45.22275" lon="6.02322">
        <ele>1765.4479980469</ele>
        <time>2017-12-06T10:17:14Z</time>
      </trkpt>
      <trkpt lat="45.22273" lon="6.02316">
        <ele>1764.4479980469</ele>
        <time>2017-12-06T10:17:16Z</time>
      </trkpt>
      <trkpt lat="45.22267" lon="6.02316">
        <ele>1761.4479980469</ele>
        <time>2017-12-06T10:17:18Z</time>
      </trkpt>
      <trkpt lat="45.22264" lon="6.02323">
        <ele>1758.4479980469</ele>
        <time>2017-12-06T10:17:20Z</time>
      </trkpt>
      <trkpt lat="45.22257" lon="6.02326">
        <ele>1754.4479980469</ele>
        <time>2017-12-06T10:17:22Z</time>
      </trkpt>
      <trkpt lat="45.22251" lon="6.02324">
        <ele>1752.4479980469</ele>
        <time>2017-12-06T10:17:24Z</time>
      </trkpt>
      <trkpt lat="45.22247" lon="6.02319">
        <ele>1751.4479980469</ele>
        <time>2017-12-06T10:17:26Z</time>
      </trkpt>
      <trkpt lat="45.22242" lon="6.02312">
        <ele>1749.4479980469</ele>
        <time>2017-12-06T10:17:28Z</time>
      </trkpt>
      <trkpt lat="45.22233" lon="6.02302">
        <ele>1747.4479980469</ele>
        <time>2017-12-06T10:17:30Z</time>
      </trkpt>
      <trkpt lat="45.22229" lon="6.02297">
        <ele>1747.4479980469</ele>
        <time>2017-12-06T10:17:32Z</time>
      </trkpt>
      <trkpt lat="45.22226" lon="6.02293">
        <ele>1746.4479980469</ele>
        <time>2017-12-06T10:17:35Z</time>
      </trkpt>
      <trkpt lat="45.22223" lon="6.02286">
        <ele>1747.4479980469</ele>
        <time>2017-12-06T10:17:48Z</time>
      </trkpt>
      <trkpt lat="45.22224" lon="6.02279">
        <ele>1746.4479980469</ele>
        <time>2017-12-06T10:17:51Z</time>
      </trkpt>
      <trkpt lat="45.22227" lon="6.02273">
        <ele>1749.4479980469</ele>
        <time>2017-12-06T10:17:57Z</time>
      </trkpt>
      <trkpt lat="45.22227" lon="6.02261">
        <ele>1749.4479980469</ele>
        <time>2017-12-06T10:18:00Z</time>
      </trkpt>
      <trkpt lat="45.22227" lon="6.0225">
        <ele>1748.4479980469</ele>
        <time>2017-12-06T10:18:02Z</time>
      </trkpt>
      <trkpt lat="45.22225" lon="6.02238">
        <ele>1749.4479980469</ele>
        <time>2017-12-06T10:18:04Z</time>
      </trkpt>
      <trkpt lat="45.22225" lon="6.0223">
        <ele>1748.4479980469</ele>
        <time>2017-12-06T10:18:05Z</time>
      </trkpt>
      <trkpt lat="45.22224" lon="6.02221">
        <ele>1748.4479980469</ele>
        <time>2017-12-06T10:18:07Z</time>
      </trkpt>
      <trkpt lat="45.22224" lon="6.02211">
        <ele>1746.4479980469</ele>
        <time>2017-12-06T10:18:09Z</time>
      </trkpt>
      <trkpt lat="45.22226" lon="6.02204">
        <ele>1746.4479980469</ele>
        <time>2017-12-06T10:18:12Z</time>
      </trkpt>
      <trkpt lat="45.22229" lon="6.02196">
        <ele>1746.4479980469</ele>
        <time>2017-12-06T10:18:14Z</time>
      </trkpt>
      <trkpt lat="45.22228" lon="6.02184">
        <ele>1748.4470214844</ele>
        <time>2017-12-06T10:18:16Z</time>
      </trkpt>
      <trkpt lat="45.22233" lon="6.02176">
        <ele>1745.4470214844</ele>
        <time>2017-12-06T10:18:18Z</time>
      </trkpt>
      <trkpt lat="45.22235" lon="6.02168">
        <ele>1742.4470214844</ele>
        <time>2017-12-06T10:18:20Z</time>
      </trkpt>
      <trkpt lat="45.22241" lon="6.02159">
        <ele>2049.4470214844</ele>
        <time>2017-12-06T10:18:22Z</time>
      </trkpt>
      <trkpt lat="45.22243" lon="6.02148">
        <ele>1899.4470214844</ele>
        <time>2017-12-06T10:18:26Z</time>
      </trkpt>
      <trkpt lat="45.22247" lon="6.02129">
        <ele>1824.4470214844</ele>
        <time>2017-12-06T10:18:29Z</time>
      </trkpt>
      <trkpt lat="45.22246" lon="6.02116">
        <ele>1784.4470214844</ele>
        <time>2017-12-06T10:18:31Z</time>
      </trkpt>
      <trkpt lat="45.22248" lon="6.02109">
        <ele>1765.4470214844</ele>
        <time>2017-12-06T10:18:33Z</time>
      </trkpt>
      <trkpt lat="45.22248" lon="6.021">
        <ele>1758.4470214844</ele>
        <time>2017-12-06T10:18:35Z</time>
      </trkpt>
      <trkpt lat="45.22249" lon="6.02093">
        <ele>1751.4470214844</ele>
        <time>2017-12-06T10:18:38Z</time>
      </trkpt>
      <trkpt lat="45.22248" lon="6.02085">
        <ele>1747.4470214844</ele>
        <time>2017-12-06T10:18:40Z</time>
      </trkpt>
      <trkpt lat="45.22246" lon="6.02078">
        <ele>1741.4470214844</ele>
        <time>2017-12-06T10:18:42Z</time>
      </trkpt>
      <trkpt lat="45.22247" lon="6.0207">
        <ele>1739.4470214844</ele>
        <time>2017-12-06T10:18:44Z</time>
      </trkpt>
      <trkpt lat="45.22248" lon="6.02063">
        <ele>1737.4470214844</ele>
        <time>2017-12-06T10:18:46Z</time>
      </trkpt>
      <trkpt lat="45.22248" lon="6.02054">
        <ele>1737.4470214844</ele>
        <time>2017-12-06T10:18:48Z</time>
      </trkpt>
      <trkpt lat="45.22248" lon="6.02043">
        <ele>1737.4470214844</ele>
        <time>2017-12-06T10:18:50Z</time>
      </trkpt>
      <trkpt lat="45.22245" lon="6.02031">
        <ele>1731.4470214844</ele>
        <time>2017-12-06T10:18:52Z</time>
      </trkpt>
      <trkpt lat="45.22245" lon="6.02021">
        <ele>1727.4470214844</ele>
        <time>2017-12-06T10:18:54Z</time>
      </trkpt>
      <trkpt lat="45.22247" lon="6.02005">
        <ele>1720.4470214844</ele>
        <time>2017-12-06T10:18:57Z</time>
      </trkpt>
      <trkpt lat="45.22244" lon="6.01983">
        <ele>1718.4470214844</ele>
        <time>2017-12-06T10:19:00Z</time>
      </trkpt>
      <trkpt lat="45.22249" lon="6.01975">
        <ele>1718.4470214844</ele>
        <time>2017-12-06T10:19:01Z</time>
      </trkpt>
      <trkpt lat="45.2225" lon="6.01966">
        <ele>1719.4470214844</ele>
        <time>2017-12-06T10:19:02Z</time>
      </trkpt>
      <trkpt lat="45.22249" lon="6.01956">
        <ele>1717.4470214844</ele>
        <time>2017-12-06T10:19:04Z</time>
      </trkpt>
      <trkpt lat="45.22253" lon="6.0195">
        <ele>1714.4470214844</ele>
        <time>2017-12-06T10:19:06Z</time>
      </trkpt>
      <trkpt lat="45.22255" lon="6.01941">
        <ele>1712.4470214844</ele>
        <time>2017-12-06T10:19:09Z</time>
      </trkpt>
      <trkpt lat="45.22257" lon="6.01932">
        <ele>1709.4470214844</ele>
        <time>2017-12-06T10:19:11Z</time>
      </trkpt>
      <trkpt lat="45.22256" lon="6.01914">
        <ele>1706.4470214844</ele>
        <time>2017-12-06T10:19:14Z</time>
      </trkpt>
      <trkpt lat="45.22254" lon="6.01898">
        <ele>1704.4470214844</ele>
        <time>2017-12-06T10:19:16Z</time>
      </trkpt>
      <trkpt lat="45.22253" lon="6.01883">
        <ele>1699.4470214844</ele>
        <time>2017-12-06T10:19:18Z</time>
      </trkpt>
      <trkpt lat="45.22252" lon="6.01865">
        <ele>1698.4470214844</ele>
        <time>2017-12-06T10:19:21Z</time>
      </trkpt>
      <trkpt lat="45.22249" lon="6.01854">
        <ele>1698.4470214844</ele>
        <time>2017-12-06T10:19:23Z</time>
      </trkpt>
      <trkpt lat="45.22248" lon="6.01844">
        <ele>1698.4470214844</ele>
        <time>2017-12-06T10:19:25Z</time>
      </trkpt>
      <trkpt lat="45.22247" lon="6.01835">
        <ele>1698.4470214844</ele>
        <time>2017-12-06T10:19:27Z</time>
      </trkpt>
      <trkpt lat="45.22245" lon="6.01826">
        <ele>1695.4470214844</ele>
        <time>2017-12-06T10:19:29Z</time>
      </trkpt>
      <trkpt lat="45.22243" lon="6.01817">
        <ele>1695.4470214844</ele>
        <time>2017-12-06T10:19:31Z</time>
      </trkpt>
      <trkpt lat="45.22235" lon="6.01808">
        <ele>1693.4470214844</ele>
        <time>2017-12-06T10:19:33Z</time>
      </trkpt>
      <trkpt lat="45.22226" lon="6.01796">
        <ele>1692.4470214844</ele>
        <time>2017-12-06T10:19:35Z</time>
      </trkpt>
      <trkpt lat="45.22221" lon="6.0179">
        <ele>1690.4470214844</ele>
        <time>2017-12-06T10:19:37Z</time>
      </trkpt>
      <trkpt lat="45.22219" lon="6.01781">
        <ele>1688.4470214844</ele>
        <time>2017-12-06T10:19:39Z</time>
      </trkpt>
      <trkpt lat="45.2222" lon="6.01771">
        <ele>1687.4470214844</ele>
        <time>2017-12-06T10:19:41Z</time>
      </trkpt>
      <trkpt lat="45.22222" lon="6.01762">
        <ele>1687.4470214844</ele>
        <time>2017-12-06T10:19:43Z</time>
      </trkpt>
      <trkpt lat="45.22227" lon="6.01753">
        <ele>1686.4470214844</ele>
        <time>2017-12-06T10:19:45Z</time>
      </trkpt>
      <trkpt lat="45.22237" lon="6.01754">
        <ele>1683.4470214844</ele>
        <time>2017-12-06T10:19:47Z</time>
      </trkpt>
      <trkpt lat="45.22251" lon="6.01754">
        <ele>1681.4470214844</ele>
        <time>2017-12-06T10:19:49Z</time>
      </trkpt>
      <trkpt lat="45.22267" lon="6.01742">
        <ele>1681.4470214844</ele>
        <time>2017-12-06T10:19:51Z</time>
      </trkpt>
      <trkpt lat="45.22264" lon="6.01725">
        <ele>1682.4470214844</ele>
        <time>2017-12-06T10:19:53Z</time>
      </trkpt>
      <trkpt lat="45.22264" lon="6.01706">
        <ele>1682.4470214844</ele>
        <time>2017-12-06T10:19:56Z</time>
      </trkpt>
      <trkpt lat="45.22264" lon="6.01694">
        <ele>1682.4470214844</ele>
        <time>2017-12-06T10:19:58Z</time>
      </trkpt>
      <trkpt lat="45.22265" lon="6.01685">
        <ele>1682.4470214844</ele>
        <time>2017-12-06T10:20:00Z</time>
      </trkpt>
      <trkpt lat="45.22265" lon="6.01678">
        <ele>1683.4470214844</ele>
        <time>2017-12-06T10:20:02Z</time>
      </trkpt>
      <trkpt lat="45.22265" lon="6.01667">
        <ele>1683.4470214844</ele>
        <time>2017-12-06T10:20:04Z</time>
      </trkpt>
      <trkpt lat="45.22265" lon="6.01658">
        <ele>1683.4470214844</ele>
        <time>2017-12-06T10:20:06Z</time>
      </trkpt>
      <trkpt lat="45.22264" lon="6.0165">
        <ele>1680.4470214844</ele>
        <time>2017-12-06T10:20:09Z</time>
      </trkpt>
      <trkpt lat="45.22263" lon="6.01642">
        <ele>1679.4470214844</ele>
        <time>2017-12-06T10:20:12Z</time>
      </trkpt>
      <trkpt lat="45.22264" lon="6.01635">
        <ele>1680.4470214844</ele>
        <time>2017-12-06T10:20:15Z</time>
      </trkpt>
      <trkpt lat="45.22262" lon="6.01627">
        <ele>1681.4470214844</ele>
        <time>2017-12-06T10:20:18Z</time>
      </trkpt>
      <trkpt lat="45.22261" lon="6.0162">
        <ele>1681.4470214844</ele>
        <time>2017-12-06T10:20:20Z</time>
      </trkpt>
      <trkpt lat="45.22261" lon="6.01613">
        <ele>1678.4470214844</ele>
        <time>2017-12-06T10:20:25Z</time>
      </trkpt>
      <trkpt lat="45.22259" lon="6.01606">
        <ele>1679.4470214844</ele>
        <time>2017-12-06T10:20:28Z</time>
      </trkpt>
      <trkpt lat="45.22259" lon="6.01598">
        <ele>1679.4470214844</ele>
        <time>2017-12-06T10:20:31Z</time>
      </trkpt>
      <trkpt lat="45.22258" lon="6.01591">
        <ele>1679.4470214844</ele>
        <time>2017-12-06T10:20:34Z</time>
      </trkpt>
      <trkpt lat="45.22256" lon="6.01584">
        <ele>1679.4470214844</ele>
        <time>2017-12-06T10:20:37Z</time>
      </trkpt>
      <trkpt lat="45.22254" lon="6.01577">
        <ele>1679.4470214844</ele>
        <time>2017-12-06T10:20:39Z</time>
      </trkpt>
      <trkpt lat="45.22253" lon="6.01569">
        <ele>1680.4470214844</ele>
        <time>2017-12-06T10:20:42Z</time>
      </trkpt>
      <trkpt lat="45.22253" lon="6.01562">
        <ele>1679.4470214844</ele>
        <time>2017-12-06T10:20:44Z</time>
      </trkpt>
      <trkpt lat="45.22251" lon="6.01553">
        <ele>1677.4470214844</ele>
        <time>2017-12-06T10:20:48Z</time>
      </trkpt>
      <trkpt lat="45.2225" lon="6.01546">
        <ele>1677.4470214844</ele>
        <time>2017-12-06T10:20:52Z</time>
      </trkpt>
      <trkpt lat="45.22248" lon="6.01539">
        <ele>1678.4470214844</ele>
        <time>2017-12-06T10:20:55Z</time>
      </trkpt>
      <trkpt lat="45.22248" lon="6.01532">
        <ele>1679.4470214844</ele>
        <time>2017-12-06T10:20:57Z</time>
      </trkpt>
      <trkpt lat="45.22247" lon="6.01523">
        <ele>1680.4470214844</ele>
        <time>2017-12-06T10:21:00Z</time>
      </trkpt>
      <trkpt lat="45.22246" lon="6.01516">
        <ele>1679.4470214844</ele>
        <time>2017-12-06T10:21:03Z</time>
      </trkpt>
      <trkpt lat="45.22244" lon="6.01508">
        <ele>1681.4470214844</ele>
        <time>2017-12-06T10:21:06Z</time>
      </trkpt>
      <trkpt lat="45.22244" lon="6.01502">
        <ele>1679.4470214844</ele>
        <time>2017-12-06T10:21:09Z</time>
      </trkpt>
      <trkpt lat="45.22243" lon="6.01494">
        <ele>1681.4470214844</ele>
        <time>2017-12-06T10:21:13Z</time>
      </trkpt>
      <trkpt lat="45.22243" lon="6.01488">
        <ele>1682.4470214844</ele>
        <time>2017-12-06T10:21:19Z</time>
      </trkpt>
      <trkpt lat="45.22241" lon="6.01481">
        <ele>1684.4470214844</ele>
        <time>2017-12-06T10:21:29Z</time>
      </trkpt>
      <trkpt lat="45.2224" lon="6.01471">
        <ele>1684.4470214844</ele>
        <time>2017-12-06T10:21:32Z</time>
      </trkpt>
      <trkpt lat="45.22238" lon="6.01463">
        <ele>1683.4470214844</ele>
        <time>2017-12-06T10:21:34Z</time>
      </trkpt>
      <trkpt lat="45.22236" lon="6.01454">
        <ele>1682.4460449219</ele>
        <time>2017-12-06T10:21:36Z</time>
      </trkpt>
      <trkpt lat="45.22233" lon="6.01443">
        <ele>1682.4460449219</ele>
        <time>2017-12-06T10:21:38Z</time>
      </trkpt>
      <trkpt lat="45.22229" lon="6.0143">
        <ele>1683.4460449219</ele>
        <time>2017-12-06T10:21:41Z</time>
      </trkpt>
      <trkpt lat="45.22229" lon="6.01419">
        <ele>1683.4460449219</ele>
        <time>2017-12-06T10:21:44Z</time>
      </trkpt>
      <trkpt lat="45.22231" lon="6.01411">
        <ele>1684.4460449219</ele>
        <time>2017-12-06T10:21:46Z</time>
      </trkpt>
      <trkpt lat="45.22234" lon="6.01403">
        <ele>1685.4460449219</ele>
        <time>2017-12-06T10:21:48Z</time>
      </trkpt>
      <trkpt lat="45.22237" lon="6.01395">
        <ele>1685.4460449219</ele>
        <time>2017-12-06T10:21:50Z</time>
      </trkpt>
      <trkpt lat="45.22241" lon="6.01385">
        <ele>1687.4460449219</ele>
        <time>2017-12-06T10:21:52Z</time>
      </trkpt>
      <trkpt lat="45.22246" lon="6.01379">
        <ele>1686.4460449219</ele>
        <time>2017-12-06T10:21:54Z</time>
      </trkpt>
      <trkpt lat="45.22251" lon="6.01373">
        <ele>1686.4460449219</ele>
        <time>2017-12-06T10:21:56Z</time>
      </trkpt>
      <trkpt lat="45.22256" lon="6.01371">
        <ele>1686.4460449219</ele>
        <time>2017-12-06T10:21:58Z</time>
      </trkpt>
      <trkpt lat="45.22262" lon="6.01368">
        <ele>1687.4460449219</ele>
        <time>2017-12-06T10:22:00Z</time>
      </trkpt>
      <trkpt lat="45.22268" lon="6.01363">
        <ele>1688.4460449219</ele>
        <time>2017-12-06T10:22:02Z</time>
      </trkpt>
      <trkpt lat="45.22272" lon="6.0136">
        <ele>1687.4460449219</ele>
        <time>2017-12-06T10:22:04Z</time>
      </trkpt>
      <trkpt lat="45.22271" lon="6.01352">
        <ele>1687.4460449219</ele>
        <time>2017-12-06T10:22:06Z</time>
      </trkpt>
      <trkpt lat="45.22273" lon="6.01344">
        <ele>1686.4460449219</ele>
        <time>2017-12-06T10:22:08Z</time>
      </trkpt>
      <trkpt lat="45.22274" lon="6.01337">
        <ele>1685.4460449219</ele>
        <time>2017-12-06T10:22:10Z</time>
      </trkpt>
      <trkpt lat="45.22274" lon="6.01326">
        <ele>1683.4460449219</ele>
        <time>2017-12-06T10:22:12Z</time>
      </trkpt>
      <trkpt lat="45.22276" lon="6.01318">
        <ele>1681.4460449219</ele>
        <time>2017-12-06T10:22:14Z</time>
      </trkpt>
      <trkpt lat="45.22278" lon="6.01311">
        <ele>1681.4460449219</ele>
        <time>2017-12-06T10:22:16Z</time>
      </trkpt>
      <trkpt lat="45.22282" lon="6.01306">
        <ele>1680.4460449219</ele>
        <time>2017-12-06T10:22:18Z</time>
      </trkpt>
      <trkpt lat="45.22278" lon="6.01301">
        <ele>1673.4460449219</ele>
        <time>2017-12-06T10:22:22Z</time>
      </trkpt>
      <trkpt lat="45.22273" lon="6.013">
        <ele>1671.4460449219</ele>
        <time>2017-12-06T10:22:24Z</time>
      </trkpt>
      <trkpt lat="45.22268" lon="6.01299">
        <ele>1668.4460449219</ele>
        <time>2017-12-06T10:22:27Z</time>
      </trkpt>
      <trkpt lat="45.22261" lon="6.01303">
        <ele>1665.4460449219</ele>
        <time>2017-12-06T10:22:29Z</time>
      </trkpt>
      <trkpt lat="45.22256" lon="6.01304">
        <ele>1665.4460449219</ele>
        <time>2017-12-06T10:22:31Z</time>
      </trkpt>
      <trkpt lat="45.22248" lon="6.01307">
        <ele>1666.4460449219</ele>
        <time>2017-12-06T10:22:32Z</time>
      </trkpt>
      <trkpt lat="45.22238" lon="6.01303">
        <ele>1664.4460449219</ele>
        <time>2017-12-06T10:22:37Z</time>
      </trkpt>
      <trkpt lat="45.22234" lon="6.01297">
        <ele>1663.4460449219</ele>
        <time>2017-12-06T10:22:40Z</time>
      </trkpt>
      <trkpt lat="45.22231" lon="6.01287">
        <ele>1661.4460449219</ele>
        <time>2017-12-06T10:22:42Z</time>
      </trkpt>
      <trkpt lat="45.22232" lon="6.01277">
        <ele>1661.4460449219</ele>
        <time>2017-12-06T10:22:44Z</time>
      </trkpt>
      <trkpt lat="45.22231" lon="6.01269">
        <ele>1660.4460449219</ele>
        <time>2017-12-06T10:22:46Z</time>
      </trkpt>
      <trkpt lat="45.22233" lon="6.01261">
        <ele>1656.4460449219</ele>
        <time>2017-12-06T10:22:49Z</time>
      </trkpt>
      <trkpt lat="45.22236" lon="6.01255">
        <ele>1655.4460449219</ele>
        <time>2017-12-06T10:22:51Z</time>
      </trkpt>
      <trkpt lat="45.22237" lon="6.01245">
        <ele>1652.4460449219</ele>
        <time>2017-12-06T10:22:55Z</time>
      </trkpt>
      <trkpt lat="45.22239" lon="6.01238">
        <ele>1650.4460449219</ele>
        <time>2017-12-06T10:22:57Z</time>
      </trkpt>
      <trkpt lat="45.22242" lon="6.01231">
        <ele>1650.4460449219</ele>
        <time>2017-12-06T10:22:59Z</time>
      </trkpt>
      <trkpt lat="45.22246" lon="6.01227">
        <ele>1651.4460449219</ele>
        <time>2017-12-06T10:23:01Z</time>
      </trkpt>
      <trkpt lat="45.22251" lon="6.01221">
        <ele>1648.4460449219</ele>
        <time>2017-12-06T10:23:03Z</time>
      </trkpt>
      <trkpt lat="45.22254" lon="6.01213">
        <ele>1648.4460449219</ele>
        <time>2017-12-06T10:23:08Z</time>
      </trkpt>
      <trkpt lat="45.22257" lon="6.01206">
        <ele>1652.4460449219</ele>
        <time>2017-12-06T10:23:11Z</time>
      </trkpt>
      <trkpt lat="45.22259" lon="6.01197">
        <ele>1651.4460449219</ele>
        <time>2017-12-06T10:23:13Z</time>
      </trkpt>
      <trkpt lat="45.22259" lon="6.01185">
        <ele>1654.4460449219</ele>
        <time>2017-12-06T10:23:15Z</time>
      </trkpt>
      <trkpt lat="45.22258" lon="6.01179">
        <ele>1655.4460449219</ele>
        <time>2017-12-06T10:23:17Z</time>
      </trkpt>
      <trkpt lat="45.22253" lon="6.01166">
        <ele>1652.4460449219</ele>
        <time>2017-12-06T10:23:21Z</time>
      </trkpt>
      <trkpt lat="45.2225" lon="6.01158">
        <ele>1649.4460449219</ele>
        <time>2017-12-06T10:23:23Z</time>
      </trkpt>
      <trkpt lat="45.22246" lon="6.01152">
        <ele>1644.4460449219</ele>
        <time>2017-12-06T10:23:26Z</time>
      </trkpt>
      <trkpt lat="45.22244" lon="6.01143">
        <ele>1642.4460449219</ele>
        <time>2017-12-06T10:23:32Z</time>
      </trkpt>
      <trkpt lat="45.22242" lon="6.01136">
        <ele>1643.4460449219</ele>
        <time>2017-12-06T10:23:34Z</time>
      </trkpt>
      <trkpt lat="45.22241" lon="6.01127">
        <ele>1640.4460449219</ele>
        <time>2017-12-06T10:23:36Z</time>
      </trkpt>
      <trkpt lat="45.22237" lon="6.01118">
        <ele>1638.4460449219</ele>
        <time>2017-12-06T10:23:38Z</time>
      </trkpt>
      <trkpt lat="45.22234" lon="6.0111">
        <ele>1637.4460449219</ele>
        <time>2017-12-06T10:23:40Z</time>
      </trkpt>
      <trkpt lat="45.22234" lon="6.011">
        <ele>1636.4460449219</ele>
        <time>2017-12-06T10:23:42Z</time>
      </trkpt>
      <trkpt lat="45.22236" lon="6.01091">
        <ele>1634.4460449219</ele>
        <time>2017-12-06T10:23:44Z</time>
      </trkpt>
      <trkpt lat="45.22232" lon="6.01087">
        <ele>1634.4460449219</ele>
        <time>2017-12-06T10:23:46Z</time>
      </trkpt>
      <trkpt lat="45.22232" lon="6.01076">
        <ele>1631.4460449219</ele>
        <time>2017-12-06T10:23:48Z</time>
      </trkpt>
      <trkpt lat="45.22232" lon="6.01068">
        <ele>1632.4460449219</ele>
        <time>2017-12-06T10:23:49Z</time>
      </trkpt>
      <trkpt lat="45.22232" lon="6.01057">
        <ele>1631.4460449219</ele>
        <time>2017-12-06T10:23:51Z</time>
      </trkpt>
      <trkpt lat="45.22232" lon="6.01045">
        <ele>1630.4460449219</ele>
        <time>2017-12-06T10:23:53Z</time>
      </trkpt>
      <trkpt lat="45.2223" lon="6.01036">
        <ele>1628.4460449219</ele>
        <time>2017-12-06T10:23:55Z</time>
      </trkpt>
      <trkpt lat="45.22231" lon="6.01028">
        <ele>1627.4460449219</ele>
        <time>2017-12-06T10:23:57Z</time>
      </trkpt>
      <trkpt lat="45.22233" lon="6.01017">
        <ele>1625.4460449219</ele>
        <time>2017-12-06T10:23:59Z</time>
      </trkpt>
      <trkpt lat="45.22234" lon="6.01005">
        <ele>1620.4460449219</ele>
        <time>2017-12-06T10:24:01Z</time>
      </trkpt>
      <trkpt lat="45.22232" lon="6.00995">
        <ele>1618.4460449219</ele>
        <time>2017-12-06T10:24:03Z</time>
      </trkpt>
      <trkpt lat="45.2223" lon="6.00988">
        <ele>1615.4460449219</ele>
        <time>2017-12-06T10:24:05Z</time>
      </trkpt>
      <trkpt lat="45.22229" lon="6.00981">
        <ele>1613.4460449219</ele>
        <time>2017-12-06T10:24:07Z</time>
      </trkpt>
      <trkpt lat="45.2223" lon="6.00972">
        <ele>1611.4460449219</ele>
        <time>2017-12-06T10:24:09Z</time>
      </trkpt>
      <trkpt lat="45.22231" lon="6.00964">
        <ele>1610.4460449219</ele>
        <time>2017-12-06T10:24:11Z</time>
      </trkpt>
      <trkpt lat="45.22231" lon="6.00957">
        <ele>1606.4460449219</ele>
        <time>2017-12-06T10:24:15Z</time>
      </trkpt>
      <trkpt lat="45.22231" lon="6.00945">
        <ele>1604.4460449219</ele>
        <time>2017-12-06T10:24:18Z</time>
      </trkpt>
      <trkpt lat="45.22228" lon="6.00934">
        <ele>1601.4460449219</ele>
        <time>2017-12-06T10:24:20Z</time>
      </trkpt>
      <trkpt lat="45.22227" lon="6.00928">
        <ele>1600.4460449219</ele>
        <time>2017-12-06T10:24:21Z</time>
      </trkpt>
      <trkpt lat="45.22232" lon="6.00921">
        <ele>1596.4460449219</ele>
        <time>2017-12-06T10:24:34Z</time>
      </trkpt>
      <trkpt lat="45.22238" lon="6.00916">
        <ele>1596.4460449219</ele>
        <time>2017-12-06T10:24:36Z</time>
      </trkpt>
      <trkpt lat="45.22242" lon="6.00912">
        <ele>1593.4460449219</ele>
        <time>2017-12-06T10:24:39Z</time>
      </trkpt>
      <trkpt lat="45.22246" lon="6.00907">
        <ele>1593.4460449219</ele>
        <time>2017-12-06T10:24:41Z</time>
      </trkpt>
      <trkpt lat="45.2225" lon="6.00901">
        <ele>1594.4460449219</ele>
        <time>2017-12-06T10:24:43Z</time>
      </trkpt>
      <trkpt lat="45.22246" lon="6.00894">
        <ele>1589.4460449219</ele>
        <time>2017-12-06T10:24:48Z</time>
      </trkpt>
      <trkpt lat="45.22241" lon="6.0089">
        <ele>1589.4460449219</ele>
        <time>2017-12-06T10:24:50Z</time>
      </trkpt>
      <trkpt lat="45.22245" lon="6.00884">
        <ele>1589.4460449219</ele>
        <time>2017-12-06T10:24:51Z</time>
      </trkpt>
      <trkpt lat="45.22246" lon="6.00875">
        <ele>1588.4460449219</ele>
        <time>2017-12-06T10:24:53Z</time>
      </trkpt>
      <trkpt lat="45.22244" lon="6.00867">
        <ele>1588.4460449219</ele>
        <time>2017-12-06T10:24:55Z</time>
      </trkpt>
      <trkpt lat="45.2224" lon="6.00858">
        <ele>1587.4460449219</ele>
        <time>2017-12-06T10:24:57Z</time>
      </trkpt>
      <trkpt lat="45.22235" lon="6.0085">
        <ele>1584.4460449219</ele>
        <time>2017-12-06T10:24:59Z</time>
      </trkpt>
      <trkpt lat="45.22232" lon="6.00844">
        <ele>1582.4460449219</ele>
        <time>2017-12-06T10:25:01Z</time>
      </trkpt>
      <trkpt lat="45.2223" lon="6.00837">
        <ele>1580.4460449219</ele>
        <time>2017-12-06T10:25:03Z</time>
      </trkpt>
      <trkpt lat="45.22227" lon="6.0083">
        <ele>1580.4460449219</ele>
        <time>2017-12-06T10:25:05Z</time>
      </trkpt>
      <trkpt lat="45.22224" lon="6.00822">
        <ele>1578.4460449219</ele>
        <time>2017-12-06T10:25:07Z</time>
      </trkpt>
      <trkpt lat="45.22214" lon="6.00809">
        <ele>1574.4460449219</ele>
        <time>2017-12-06T10:25:11Z</time>
      </trkpt>
      <trkpt lat="45.2221" lon="6.00801">
        <ele>1574.4460449219</ele>
        <time>2017-12-06T10:25:13Z</time>
      </trkpt>
      <trkpt lat="45.22206" lon="6.00794">
        <ele>1572.4460449219</ele>
        <time>2017-12-06T10:25:15Z</time>
      </trkpt>
      <trkpt lat="45.22204" lon="6.00787">
        <ele>1570.4460449219</ele>
        <time>2017-12-06T10:25:17Z</time>
      </trkpt>
      <trkpt lat="45.22201" lon="6.0078">
        <ele>1567.4449462891</ele>
        <time>2017-12-06T10:25:19Z</time>
      </trkpt>
      <trkpt lat="45.22199" lon="6.00772">
        <ele>1565.4449462891</ele>
        <time>2017-12-06T10:25:21Z</time>
      </trkpt>
      <trkpt lat="45.22199" lon="6.00766">
        <ele>1565.4449462891</ele>
        <time>2017-12-06T10:25:23Z</time>
      </trkpt>
      <trkpt lat="45.22198" lon="6.00757">
        <ele>1565.4449462891</ele>
        <time>2017-12-06T10:25:25Z</time>
      </trkpt>
      <trkpt lat="45.22197" lon="6.0075">
        <ele>1563.4449462891</ele>
        <time>2017-12-06T10:25:27Z</time>
      </trkpt>
      <trkpt lat="45.22197" lon="6.0074">
        <ele>1564.4449462891</ele>
        <time>2017-12-06T10:25:29Z</time>
      </trkpt>
      <trkpt lat="45.22197" lon="6.00734">
        <ele>1562.4449462891</ele>
        <time>2017-12-06T10:25:31Z</time>
      </trkpt>
      <trkpt lat="45.22198" lon="6.00725">
        <ele>1561.4449462891</ele>
        <time>2017-12-06T10:25:34Z</time>
      </trkpt>
      <trkpt lat="45.22204" lon="6.00725">
        <ele>1556.4449462891</ele>
        <time>2017-12-06T10:25:42Z</time>
      </trkpt>
      <trkpt lat="45.22214" lon="6.00726">
        <ele>1554.4449462891</ele>
        <time>2017-12-06T10:25:45Z</time>
      </trkpt>
      <trkpt lat="45.2221" lon="6.00723">
        <ele>1553.4449462891</ele>
        <time>2017-12-06T10:25:47Z</time>
      </trkpt>
      <trkpt lat="45.22209" lon="6.00716">
        <ele>1552.4449462891</ele>
        <time>2017-12-06T10:25:49Z</time>
      </trkpt>
      <trkpt lat="45.22209" lon="6.00707">
        <ele>1552.4449462891</ele>
        <time>2017-12-06T10:25:54Z</time>
      </trkpt>
      <trkpt lat="45.22213" lon="6.00704">
        <ele>1551.4449462891</ele>
        <time>2017-12-06T10:25:57Z</time>
      </trkpt>
      <trkpt lat="45.22212" lon="6.00696">
        <ele>1545.4449462891</ele>
        <time>2017-12-06T10:26:05Z</time>
      </trkpt>
      <trkpt lat="45.22212" lon="6.00688">
        <ele>1545.4449462891</ele>
        <time>2017-12-06T10:26:08Z</time>
      </trkpt>
      <trkpt lat="45.22212" lon="6.00681">
        <ele>1542.4449462891</ele>
        <time>2017-12-06T10:26:12Z</time>
      </trkpt>
      <trkpt lat="45.22213" lon="6.00674">
        <ele>1543.4449462891</ele>
        <time>2017-12-06T10:26:17Z</time>
      </trkpt>
      <trkpt lat="45.22212" lon="6.00668">
        <ele>1542.4449462891</ele>
        <time>2017-12-06T10:26:26Z</time>
      </trkpt>
      <trkpt lat="45.22212" lon="6.0066">
        <ele>1541.4449462891</ele>
        <time>2017-12-06T10:26:41Z</time>
      </trkpt>
      <trkpt lat="45.22213" lon="6.00651">
        <ele>1537.4449462891</ele>
        <time>2017-12-06T10:26:45Z</time>
      </trkpt>
      <trkpt lat="45.22217" lon="6.00642">
        <ele>1536.4449462891</ele>
        <time>2017-12-06T10:26:48Z</time>
      </trkpt>
      <trkpt lat="45.22221" lon="6.0063">
        <ele>1528.4449462891</ele>
        <time>2017-12-06T10:26:55Z</time>
      </trkpt>
      <trkpt lat="45.22223" lon="6.00621">
        <ele>1531.4449462891</ele>
        <time>2017-12-06T10:27:00Z</time>
      </trkpt>
      <trkpt lat="45.22224" lon="6.00614">
        <ele>1529.4449462891</ele>
        <time>2017-12-06T10:27:02Z</time>
      </trkpt>
      <trkpt lat="45.22226" lon="6.00605">
        <ele>1529.4449462891</ele>
        <time>2017-12-06T10:27:04Z</time>
      </trkpt>
      <trkpt lat="45.22219" lon="6.00598">
        <ele>1527.4449462891</ele>
        <time>2017-12-06T10:27:06Z</time>
      </trkpt>
      <trkpt lat="45.22216" lon="6.00591">
        <ele>1526.4449462891</ele>
        <time>2017-12-06T10:27:08Z</time>
      </trkpt>
      <trkpt lat="45.22222" lon="6.00587">
        <ele>1524.4449462891</ele>
        <time>2017-12-06T10:27:09Z</time>
      </trkpt>
      <trkpt lat="45.22225" lon="6.00582">
        <ele>1524.4449462891</ele>
        <time>2017-12-06T10:27:12Z</time>
      </trkpt>
      <trkpt lat="45.22224" lon="6.00574">
        <ele>1522.4449462891</ele>
        <time>2017-12-06T10:27:14Z</time>
      </trkpt>
      <trkpt lat="45.22227" lon="6.00568">
        <ele>1521.4449462891</ele>
        <time>2017-12-06T10:27:19Z</time>
      </trkpt>
      <trkpt lat="45.22225" lon="6.00559">
        <ele>1520.4449462891</ele>
        <time>2017-12-06T10:27:23Z</time>
      </trkpt>
      <trkpt lat="45.22225" lon="6.0055">
        <ele>1517.4449462891</ele>
        <time>2017-12-06T10:27:27Z</time>
      </trkpt>
      <trkpt lat="45.22226" lon="6.00542">
        <ele>1515.4449462891</ele>
        <time>2017-12-06T10:27:34Z</time>
      </trkpt>
      <trkpt lat="45.22222" lon="6.00535">
        <ele>1513.4449462891</ele>
        <time>2017-12-06T10:27:40Z</time>
      </trkpt>
      <trkpt lat="45.22223" lon="6.00528">
        <ele>1509.4449462891</ele>
        <time>2017-12-06T10:27:47Z</time>
      </trkpt>
      <trkpt lat="45.22222" lon="6.00521">
        <ele>1507.4449462891</ele>
        <time>2017-12-06T10:27:50Z</time>
      </trkpt>
      <trkpt lat="45.2222" lon="6.00515">
        <ele>1506.4449462891</ele>
        <time>2017-12-06T10:27:52Z</time>
      </trkpt>
      <trkpt lat="45.22217" lon="6.00507">
        <ele>1506.4449462891</ele>
        <time>2017-12-06T10:27:54Z</time>
      </trkpt>
      <trkpt lat="45.22224" lon="6.00509">
        <ele>1505.4449462891</ele>
        <time>2017-12-06T10:27:56Z</time>
      </trkpt>
      <trkpt lat="45.2223" lon="6.00509">
        <ele>1504.4449462891</ele>
        <time>2017-12-06T10:27:58Z</time>
      </trkpt>
      <trkpt lat="45.22237" lon="6.00512">
        <ele>1503.4449462891</ele>
        <time>2017-12-06T10:28:00Z</time>
      </trkpt>
      <trkpt lat="45.2224" lon="6.00501">
        <ele>1501.4449462891</ele>
        <time>2017-12-06T10:28:05Z</time>
      </trkpt>
      <trkpt lat="45.22234" lon="6.00489">
        <ele>1499.4449462891</ele>
        <time>2017-12-06T10:28:08Z</time>
      </trkpt>
      <trkpt lat="45.22233" lon="6.00483">
        <ele>1499.4449462891</ele>
        <time>2017-12-06T10:28:10Z</time>
      </trkpt>
      <trkpt lat="45.22231" lon="6.00474">
        <ele>1498.4449462891</ele>
        <time>2017-12-06T10:28:12Z</time>
      </trkpt>
      <trkpt lat="45.22231" lon="6.00466">
        <ele>1495.4449462891</ele>
        <time>2017-12-06T10:28:14Z</time>
      </trkpt>
      <trkpt lat="45.22233" lon="6.00459">
        <ele>1491.4449462891</ele>
        <time>2017-12-06T10:28:21Z</time>
      </trkpt>
      <trkpt lat="45.22234" lon="6.00452">
        <ele>1490.4449462891</ele>
        <time>2017-12-06T10:28:25Z</time>
      </trkpt>
      <trkpt lat="45.22235" lon="6.00444">
        <ele>1489.4449462891</ele>
        <time>2017-12-06T10:28:28Z</time>
      </trkpt>
      <trkpt lat="45.22235" lon="6.00435">
        <ele>1488.4449462891</ele>
        <time>2017-12-06T10:28:31Z</time>
      </trkpt>
      <trkpt lat="45.22238" lon="6.00428">
        <ele>1487.4449462891</ele>
        <time>2017-12-06T10:28:33Z</time>
      </trkpt>
      <trkpt lat="45.22243" lon="6.00429">
        <ele>1485.4449462891</ele>
        <time>2017-12-06T10:28:35Z</time>
      </trkpt>
      <trkpt lat="45.22248" lon="6.00432">
        <ele>1483.4449462891</ele>
        <time>2017-12-06T10:28:37Z</time>
      </trkpt>
      <trkpt lat="45.22254" lon="6.00431">
        <ele>1481.4449462891</ele>
        <time>2017-12-06T10:28:39Z</time>
      </trkpt>
      <trkpt lat="45.22259" lon="6.00433">
        <ele>1479.4449462891</ele>
        <time>2017-12-06T10:28:41Z</time>
      </trkpt>
      <trkpt lat="45.22264" lon="6.00434">
        <ele>1477.4449462891</ele>
        <time>2017-12-06T10:28:43Z</time>
      </trkpt>
      <trkpt lat="45.22272" lon="6.00431">
        <ele>1475.4449462891</ele>
        <time>2017-12-06T10:28:46Z</time>
      </trkpt>
      <trkpt lat="45.22275" lon="6.00425">
        <ele>1472.4449462891</ele>
        <time>2017-12-06T10:28:59Z</time>
      </trkpt>
      <trkpt lat="45.22274" lon="6.00418">
        <ele>1469.4449462891</ele>
        <time>2017-12-06T10:29:07Z</time>
      </trkpt>
      <trkpt lat="45.22275" lon="6.0041">
        <ele>1463.4449462891</ele>
        <time>2017-12-06T10:29:13Z</time>
      </trkpt>
      <trkpt lat="45.2228" lon="6.00412">
        <ele>1461.4449462891</ele>
        <time>2017-12-06T10:29:15Z</time>
      </trkpt>
      <trkpt lat="45.22281" lon="6.00405">
        <ele>1458.4449462891</ele>
        <time>2017-12-06T10:29:18Z</time>
      </trkpt>
      <trkpt lat="45.22283" lon="6.00397">
        <ele>1455.4449462891</ele>
        <time>2017-12-06T10:29:20Z</time>
      </trkpt>
      <trkpt lat="45.22286" lon="6.0039">
        <ele>1451.4449462891</ele>
        <time>2017-12-06T10:29:23Z</time>
      </trkpt>
      <trkpt lat="45.22289" lon="6.00385">
        <ele>1449.4449462891</ele>
        <time>2017-12-06T10:29:25Z</time>
      </trkpt>
      <trkpt lat="45.22294" lon="6.00379">
        <ele>1447.4449462891</ele>
        <time>2017-12-06T10:29:27Z</time>
      </trkpt>
      <trkpt lat="45.22298" lon="6.00367">
        <ele>1441.4449462891</ele>
        <time>2017-12-06T10:29:30Z</time>
      </trkpt>
      <trkpt lat="45.22304" lon="6.00359">
        <ele>1440.4449462891</ele>
        <time>2017-12-06T10:29:32Z</time>
      </trkpt>
      <trkpt lat="45.22309" lon="6.00351">
        <ele>1439.4449462891</ele>
        <time>2017-12-06T10:29:34Z</time>
      </trkpt>
      <trkpt lat="45.22312" lon="6.00339">
        <ele>1434.4449462891</ele>
        <time>2017-12-06T10:29:36Z</time>
      </trkpt>
      <trkpt lat="45.22313" lon="6.00332">
        <ele>1435.4449462891</ele>
        <time>2017-12-06T10:29:37Z</time>
      </trkpt>
      <trkpt lat="45.22315" lon="6.00318">
        <ele>1432.4449462891</ele>
        <time>2017-12-06T10:29:39Z</time>
      </trkpt>
      <trkpt lat="45.22317" lon="6.00306">
        <ele>1430.4449462891</ele>
        <time>2017-12-06T10:29:41Z</time>
      </trkpt>
      <trkpt lat="45.22316" lon="6.00289">
        <ele>1427.4449462891</ele>
        <time>2017-12-06T10:29:44Z</time>
      </trkpt>
      <trkpt lat="45.22316" lon="6.0028">
        <ele>1426.4449462891</ele>
        <time>2017-12-06T10:29:46Z</time>
      </trkpt>
      <trkpt lat="45.22318" lon="6.00272">
        <ele>1426.4449462891</ele>
        <time>2017-12-06T10:29:48Z</time>
      </trkpt>
      <trkpt lat="45.22314" lon="6.00265">
        <ele>1425.4449462891</ele>
        <time>2017-12-06T10:29:50Z</time>
      </trkpt>
      <trkpt lat="45.22312" lon="6.00259">
        <ele>1424.4449462891</ele>
        <time>2017-12-06T10:29:52Z</time>
      </trkpt>
      <trkpt lat="45.22308" lon="6.00256">
        <ele>1421.4449462891</ele>
        <time>2017-12-06T10:29:55Z</time>
      </trkpt>
      <trkpt lat="45.22305" lon="6.00251">
        <ele>1421.4449462891</ele>
        <time>2017-12-06T10:29:57Z</time>
      </trkpt>
      <trkpt lat="45.22302" lon="6.00243">
        <ele>1421.4449462891</ele>
        <time>2017-12-06T10:30:00Z</time>
      </trkpt>
      <trkpt lat="45.22302" lon="6.00235">
        <ele>1423.4449462891</ele>
        <time>2017-12-06T10:30:05Z</time>
      </trkpt>
      <trkpt lat="45.223" lon="6.00228">
        <ele>1424.4449462891</ele>
        <time>2017-12-06T10:30:08Z</time>
      </trkpt>
      <trkpt lat="45.22303" lon="6.0022">
        <ele>1420.4449462891</ele>
        <time>2017-12-06T10:30:11Z</time>
      </trkpt>
      <trkpt lat="45.22308" lon="6.00205">
        <ele>1416.4449462891</ele>
        <time>2017-12-06T10:30:14Z</time>
      </trkpt>
      <trkpt lat="45.22317" lon="6.00203">
        <ele>1415.4449462891</ele>
        <time>2017-12-06T10:30:16Z</time>
      </trkpt>
      <trkpt lat="45.22326" lon="6.00197">
        <ele>1415.4449462891</ele>
        <time>2017-12-06T10:30:17Z</time>
      </trkpt>
      <trkpt lat="45.22335" lon="6.00184">
        <ele>1415.4449462891</ele>
        <time>2017-12-06T10:30:19Z</time>
      </trkpt>
      <trkpt lat="45.22344" lon="6.00172">
        <ele>1415.4449462891</ele>
        <time>2017-12-06T10:30:21Z</time>
      </trkpt>
      <trkpt lat="45.22353" lon="6.00162">
        <ele>1414.4449462891</ele>
        <time>2017-12-06T10:30:23Z</time>
      </trkpt>
      <trkpt lat="45.22363" lon="6.00154">
        <ele>1412.4449462891</ele>
        <time>2017-12-06T10:30:25Z</time>
      </trkpt>
      <trkpt lat="45.22374" lon="6.00146">
        <ele>1410.4449462891</ele>
        <time>2017-12-06T10:30:27Z</time>
      </trkpt>
      <trkpt lat="45.22394" lon="6.00138">
        <ele>1406.4449462891</ele>
        <time>2017-12-06T10:30:31Z</time>
      </trkpt>
      <trkpt lat="45.22405" lon="6.00137">
        <ele>1405.4449462891</ele>
        <time>2017-12-06T10:30:33Z</time>
      </trkpt>
      <trkpt lat="45.2241" lon="6.0013">
        <ele>1406.4449462891</ele>
        <time>2017-12-06T10:30:34Z</time>
      </trkpt>
      <trkpt lat="45.22419" lon="6.00121">
        <ele>1407.4449462891</ele>
        <time>2017-12-06T10:30:36Z</time>
      </trkpt>
      <trkpt lat="45.22427" lon="6.0011">
        <ele>1407.4449462891</ele>
        <time>2017-12-06T10:30:38Z</time>
      </trkpt>
      <trkpt lat="45.22433" lon="6.00104">
        <ele>1402.4449462891</ele>
        <time>2017-12-06T10:30:40Z</time>
      </trkpt>
      <trkpt lat="45.22442" lon="6.00093">
        <ele>1401.4449462891</ele>
        <time>2017-12-06T10:30:42Z</time>
      </trkpt>
      <trkpt lat="45.22449" lon="6.00085">
        <ele>1399.4449462891</ele>
        <time>2017-12-06T10:30:44Z</time>
      </trkpt>
      <trkpt lat="45.22452" lon="6.00079">
        <ele>1399.4449462891</ele>
        <time>2017-12-06T10:30:45Z</time>
      </trkpt>
      <trkpt lat="45.2246" lon="6.00071">
        <ele>1398.4449462891</ele>
        <time>2017-12-06T10:30:47Z</time>
      </trkpt>
      <trkpt lat="45.22464" lon="6.00066">
        <ele>1398.4449462891</ele>
        <time>2017-12-06T10:30:48Z</time>
      </trkpt>
      <trkpt lat="45.22469" lon="6.00051">
        <ele>1397.4449462891</ele>
        <time>2017-12-06T10:30:50Z</time>
      </trkpt>
      <trkpt lat="45.22476" lon="6.0004">
        <ele>1396.4449462891</ele>
        <time>2017-12-06T10:30:52Z</time>
      </trkpt>
      <trkpt lat="45.22485" lon="6.00033">
        <ele>1395.4449462891</ele>
        <time>2017-12-06T10:30:54Z</time>
      </trkpt>
      <trkpt lat="45.22492" lon="6.00022">
        <ele>1394.4449462891</ele>
        <time>2017-12-06T10:30:56Z</time>
      </trkpt>
      <trkpt lat="45.22494" lon="6.0001">
        <ele>1392.4449462891</ele>
        <time>2017-12-06T10:30:58Z</time>
      </trkpt>
      <trkpt lat="45.22497" lon="5.99998">
        <ele>1392.4449462891</ele>
        <time>2017-12-06T10:31:00Z</time>
      </trkpt>
      <trkpt lat="45.22502" lon="5.99991">
        <ele>1392.4449462891</ele>
        <time>2017-12-06T10:31:02Z</time>
      </trkpt>
      <trkpt lat="45.22505" lon="5.99979">
        <ele>1391.4449462891</ele>
        <time>2017-12-06T10:31:04Z</time>
      </trkpt>
      <trkpt lat="45.22507" lon="5.99965">
        <ele>1391.4449462891</ele>
        <time>2017-12-06T10:31:06Z</time>
      </trkpt>
      <trkpt lat="45.22507" lon="5.99952">
        <ele>1389.4449462891</ele>
        <time>2017-12-06T10:31:08Z</time>
      </trkpt>
      <trkpt lat="45.22511" lon="5.99937">
        <ele>1388.4449462891</ele>
        <time>2017-12-06T10:31:11Z</time>
      </trkpt>
      <trkpt lat="45.22512" lon="5.99926">
        <ele>1388.4449462891</ele>
        <time>2017-12-06T10:31:13Z</time>
      </trkpt>
      <trkpt lat="45.22515" lon="5.99908">
        <ele>1385.4449462891</ele>
        <time>2017-12-06T10:31:16Z</time>
      </trkpt>
      <trkpt lat="45.2252" lon="5.99894">
        <ele>1386.4449462891</ele>
        <time>2017-12-06T10:31:18Z</time>
      </trkpt>
      <trkpt lat="45.2252" lon="5.99885">
        <ele>1385.4449462891</ele>
        <time>2017-12-06T10:31:20Z</time>
      </trkpt>
      <trkpt lat="45.22521" lon="5.99875">
        <ele>1384.4449462891</ele>
        <time>2017-12-06T10:31:22Z</time>
      </trkpt>
      <trkpt lat="45.22522" lon="5.99862">
        <ele>1384.4449462891</ele>
        <time>2017-12-06T10:31:24Z</time>
      </trkpt>
      <trkpt lat="45.22527" lon="5.9985">
        <ele>1383.4449462891</ele>
        <time>2017-12-06T10:31:26Z</time>
      </trkpt>
      <trkpt lat="45.22528" lon="5.99837">
        <ele>1383.4449462891</ele>
        <time>2017-12-06T10:31:28Z</time>
      </trkpt>
      <trkpt lat="45.22531" lon="5.99822">
        <ele>1382.4449462891</ele>
        <time>2017-12-06T10:31:30Z</time>
      </trkpt>
      <trkpt lat="45.22531" lon="5.99808">
        <ele>1383.4449462891</ele>
        <time>2017-12-06T10:31:32Z</time>
      </trkpt>
      <trkpt lat="45.22534" lon="5.99793">
        <ele>1382.4449462891</ele>
        <time>2017-12-06T10:31:34Z</time>
      </trkpt>
      <trkpt lat="45.22534" lon="5.99778">
        <ele>1381.4449462891</ele>
        <time>2017-12-06T10:31:36Z</time>
      </trkpt>
      <trkpt lat="45.22534" lon="5.99771">
        <ele>1382.4449462891</ele>
        <time>2017-12-06T10:31:37Z</time>
      </trkpt>
      <trkpt lat="45.2253" lon="5.99766">
        <ele>1377.4449462891</ele>
        <time>2017-12-06T10:31:39Z</time>
      </trkpt>
      <trkpt lat="45.22523" lon="5.99773">
        <ele>1378.4449462891</ele>
        <time>2017-12-06T10:31:41Z</time>
      </trkpt>
      <trkpt lat="45.22519" lon="5.9979">
        <ele>1380.4449462891</ele>
        <time>2017-12-06T10:31:44Z</time>
      </trkpt>
      <trkpt lat="45.22516" lon="5.99804">
        <ele>1379.4449462891</ele>
        <time>2017-12-06T10:31:46Z</time>
      </trkpt>
      <trkpt lat="45.22513" lon="5.99817">
        <ele>1376.4449462891</ele>
        <time>2017-12-06T10:31:48Z</time>
      </trkpt>
      <trkpt lat="45.22505" lon="5.99832">
        <ele>1378.4449462891</ele>
        <time>2017-12-06T10:31:51Z</time>
      </trkpt>
      <trkpt lat="45.22495" lon="5.99847">
        <ele>1377.4449462891</ele>
        <time>2017-12-06T10:31:54Z</time>
      </trkpt>
      <trkpt lat="45.22487" lon="5.99857">
        <ele>1376.4449462891</ele>
        <time>2017-12-06T10:31:56Z</time>
      </trkpt>
      <trkpt lat="45.22483" lon="5.99863">
        <ele>1375.4449462891</ele>
        <time>2017-12-06T10:31:58Z</time>
      </trkpt>
      <trkpt lat="45.22476" lon="5.99867">
        <ele>1374.4449462891</ele>
        <time>2017-12-06T10:32:00Z</time>
      </trkpt>
      <trkpt lat="45.22471" lon="5.99873">
        <ele>1373.4449462891</ele>
        <time>2017-12-06T10:32:02Z</time>
      </trkpt>
      <trkpt lat="45.22467" lon="5.99879">
        <ele>1371.4449462891</ele>
        <time>2017-12-06T10:32:04Z</time>
      </trkpt>
      <trkpt lat="45.22463" lon="5.99886">
        <ele>1369.4449462891</ele>
        <time>2017-12-06T10:32:07Z</time>
      </trkpt>
      <trkpt lat="45.22456" lon="5.99887">
        <ele>1368.4449462891</ele>
        <time>2017-12-06T10:32:09Z</time>
      </trkpt>
      <trkpt lat="45.22451" lon="5.99886">
        <ele>1366.4449462891</ele>
        <time>2017-12-06T10:32:11Z</time>
      </trkpt>
      <trkpt lat="45.22441" lon="5.99871">
        <ele>1361.4449462891</ele>
        <time>2017-12-06T10:32:14Z</time>
      </trkpt>
      <trkpt lat="45.22441" lon="5.99858">
        <ele>1362.4449462891</ele>
        <time>2017-12-06T10:32:16Z</time>
      </trkpt>
      <trkpt lat="45.22443" lon="5.99847">
        <ele>1363.4449462891</ele>
        <time>2017-12-06T10:32:18Z</time>
      </trkpt>
      <trkpt lat="45.22449" lon="5.99841">
        <ele>1362.4449462891</ele>
        <time>2017-12-06T10:32:20Z</time>
      </trkpt>
      <trkpt lat="45.22455" lon="5.99837">
        <ele>1363.4449462891</ele>
        <time>2017-12-06T10:32:22Z</time>
      </trkpt>
      <trkpt lat="45.22468" lon="5.99831">
        <ele>1362.4449462891</ele>
        <time>2017-12-06T10:32:25Z</time>
      </trkpt>
      <trkpt lat="45.22479" lon="5.99821">
        <ele>1364.4449462891</ele>
        <time>2017-12-06T10:32:27Z</time>
      </trkpt>
      <trkpt lat="45.22488" lon="5.9981">
        <ele>1362.4449462891</ele>
        <time>2017-12-06T10:32:29Z</time>
      </trkpt>
      <trkpt lat="45.22494" lon="5.99799">
        <ele>1361.4449462891</ele>
        <time>2017-12-06T10:32:31Z</time>
      </trkpt>
      <trkpt lat="45.22498" lon="5.99784">
        <ele>1360.4449462891</ele>
        <time>2017-12-06T10:32:33Z</time>
      </trkpt>
      <trkpt lat="45.225" lon="5.99769">
        <ele>1360.4449462891</ele>
        <time>2017-12-06T10:32:35Z</time>
      </trkpt>
      <trkpt lat="45.22502" lon="5.99748">
        <ele>1360.4449462891</ele>
        <time>2017-12-06T10:32:38Z</time>
      </trkpt>
      <trkpt lat="45.22505" lon="5.99734">
        <ele>1360.4449462891</ele>
        <time>2017-12-06T10:32:40Z</time>
      </trkpt>
      <trkpt lat="45.22506" lon="5.99728">
        <ele>1360.4449462891</ele>
        <time>2017-12-06T10:32:41Z</time>
      </trkpt>
      <trkpt lat="45.22508" lon="5.99713">
        <ele>1360.4449462891</ele>
        <time>2017-12-06T10:32:43Z</time>
      </trkpt>
      <trkpt lat="45.22511" lon="5.99697">
        <ele>1358.4449462891</ele>
        <time>2017-12-06T10:32:45Z</time>
      </trkpt>
      <trkpt lat="45.22513" lon="5.99677">
        <ele>1358.4449462891</ele>
        <time>2017-12-06T10:32:47Z</time>
      </trkpt>
      <trkpt lat="45.22514" lon="5.99666">
        <ele>1356.4449462891</ele>
        <time>2017-12-06T10:32:49Z</time>
      </trkpt>
      <trkpt lat="45.22512" lon="5.99652">
        <ele>1355.4449462891</ele>
        <time>2017-12-06T10:32:51Z</time>
      </trkpt>
      <trkpt lat="45.22512" lon="5.99642">
        <ele>1352.4449462891</ele>
        <time>2017-12-06T10:32:53Z</time>
      </trkpt>
      <trkpt lat="45.2251" lon="5.99627">
        <ele>1350.4449462891</ele>
        <time>2017-12-06T10:32:55Z</time>
      </trkpt>
      <trkpt lat="45.22512" lon="5.99611">
        <ele>1351.4439697266</ele>
        <time>2017-12-06T10:32:57Z</time>
      </trkpt>
      <trkpt lat="45.22513" lon="5.99596">
        <ele>1349.4439697266</ele>
        <time>2017-12-06T10:32:59Z</time>
      </trkpt>
      <trkpt lat="45.22517" lon="5.99585">
        <ele>1347.4439697266</ele>
        <time>2017-12-06T10:33:01Z</time>
      </trkpt>
      <trkpt lat="45.2252" lon="5.99571">
        <ele>1346.4439697266</ele>
        <time>2017-12-06T10:33:03Z</time>
      </trkpt>
      <trkpt lat="45.22524" lon="5.99564">
        <ele>1347.4439697266</ele>
        <time>2017-12-06T10:33:04Z</time>
      </trkpt>
      <trkpt lat="45.22532" lon="5.99554">
        <ele>1345.4439697266</ele>
        <time>2017-12-06T10:33:06Z</time>
      </trkpt>
      <trkpt lat="45.22538" lon="5.99547">
        <ele>1346.4439697266</ele>
        <time>2017-12-06T10:33:08Z</time>
      </trkpt>
      <trkpt lat="45.22542" lon="5.99541">
        <ele>1344.4439697266</ele>
        <time>2017-12-06T10:33:10Z</time>
      </trkpt>
      <trkpt lat="45.2255" lon="5.99537">
        <ele>1339.4439697266</ele>
        <time>2017-12-06T10:33:12Z</time>
      </trkpt>
      <trkpt lat="45.22559" lon="5.99528">
        <ele>1337.4439697266</ele>
        <time>2017-12-06T10:33:14Z</time>
      </trkpt>
      <trkpt lat="45.22572" lon="5.99518">
        <ele>1331.4439697266</ele>
        <time>2017-12-06T10:33:16Z</time>
      </trkpt>
      <trkpt lat="45.22583" lon="5.99512">
        <ele>1325.4439697266</ele>
        <time>2017-12-06T10:33:18Z</time>
      </trkpt>
      <trkpt lat="45.22593" lon="5.99506">
        <ele>1321.4449462891</ele>
        <time>2017-12-06T10:33:20Z</time>
      </trkpt>
      <trkpt lat="45.22601" lon="5.99491">
        <ele>1319.4439697266</ele>
        <time>2017-12-06T10:33:22Z</time>
      </trkpt>
      <trkpt lat="45.22606" lon="5.99485">
        <ele>1318.4439697266</ele>
        <time>2017-12-06T10:33:23Z</time>
      </trkpt>
      <trkpt lat="45.22613" lon="5.99472">
        <ele>1318.4439697266</ele>
        <time>2017-12-06T10:33:25Z</time>
      </trkpt>
      <trkpt lat="45.2262" lon="5.99463">
        <ele>1314.4439697266</ele>
        <time>2017-12-06T10:33:27Z</time>
      </trkpt>
      <trkpt lat="45.22627" lon="5.99451">
        <ele>1314.4439697266</ele>
        <time>2017-12-06T10:33:29Z</time>
      </trkpt>
      <trkpt lat="45.22635" lon="5.9944">
        <ele>1311.4439697266</ele>
        <time>2017-12-06T10:33:31Z</time>
      </trkpt>
      <trkpt lat="45.22639" lon="5.99437">
        <ele>1307.4439697266</ele>
        <time>2017-12-06T10:33:32Z</time>
      </trkpt>
      <trkpt lat="45.22649" lon="5.9943">
        <ele>1305.4449462891</ele>
        <time>2017-12-06T10:33:34Z</time>
      </trkpt>
      <trkpt lat="45.22656" lon="5.99426">
        <ele>1304.4449462891</ele>
        <time>2017-12-06T10:33:35Z</time>
      </trkpt>
      <trkpt lat="45.22671" lon="5.99419">
        <ele>1300.4449462891</ele>
        <time>2017-12-06T10:33:37Z</time>
      </trkpt>
      <trkpt lat="45.22685" lon="5.9941">
        <ele>1301.4449462891</ele>
        <time>2017-12-06T10:33:39Z</time>
      </trkpt>
      <trkpt lat="45.22699" lon="5.994">
        <ele>1301.4449462891</ele>
        <time>2017-12-06T10:33:41Z</time>
      </trkpt>
      <trkpt lat="45.2271" lon="5.99391">
        <ele>1298.4449462891</ele>
        <time>2017-12-06T10:33:43Z</time>
      </trkpt>
      <trkpt lat="45.22721" lon="5.99382">
        <ele>1299.4449462891</ele>
        <time>2017-12-06T10:33:45Z</time>
      </trkpt>
      <trkpt lat="45.22731" lon="5.9937">
        <ele>1299.4449462891</ele>
        <time>2017-12-06T10:33:47Z</time>
      </trkpt>
      <trkpt lat="45.22741" lon="5.99361">
        <ele>1299.4449462891</ele>
        <time>2017-12-06T10:33:49Z</time>
      </trkpt>
      <trkpt lat="45.22749" lon="5.99349">
        <ele>1299.4449462891</ele>
        <time>2017-12-06T10:33:51Z</time>
      </trkpt>
      <trkpt lat="45.22756" lon="5.99338">
        <ele>1297.4449462891</ele>
        <time>2017-12-06T10:33:53Z</time>
      </trkpt>
      <trkpt lat="45.22766" lon="5.9933">
        <ele>1294.4449462891</ele>
        <time>2017-12-06T10:33:55Z</time>
      </trkpt>
      <trkpt lat="45.22772" lon="5.99319">
        <ele>1294.4449462891</ele>
        <time>2017-12-06T10:33:57Z</time>
      </trkpt>
      <trkpt lat="45.22783" lon="5.99311">
        <ele>1290.4449462891</ele>
        <time>2017-12-06T10:33:59Z</time>
      </trkpt>
      <trkpt lat="45.2279" lon="5.99301">
        <ele>1291.4449462891</ele>
        <time>2017-12-06T10:34:01Z</time>
      </trkpt>
      <trkpt lat="45.22799" lon="5.99293">
        <ele>1290.4449462891</ele>
        <time>2017-12-06T10:34:03Z</time>
      </trkpt>
      <trkpt lat="45.22812" lon="5.99291">
        <ele>1287.4449462891</ele>
        <time>2017-12-06T10:34:05Z</time>
      </trkpt>
      <trkpt lat="45.22821" lon="5.99285">
        <ele>1286.4449462891</ele>
        <time>2017-12-06T10:34:07Z</time>
      </trkpt>
      <trkpt lat="45.2283" lon="5.99278">
        <ele>1284.4449462891</ele>
        <time>2017-12-06T10:34:09Z</time>
      </trkpt>
      <trkpt lat="45.22838" lon="5.9927">
        <ele>1283.4449462891</ele>
        <time>2017-12-06T10:34:11Z</time>
      </trkpt>
      <trkpt lat="45.22847" lon="5.99261">
        <ele>1283.4449462891</ele>
        <time>2017-12-06T10:34:13Z</time>
      </trkpt>
      <trkpt lat="45.22854" lon="5.99251">
        <ele>1282.4449462891</ele>
        <time>2017-12-06T10:34:15Z</time>
      </trkpt>
      <trkpt lat="45.22863" lon="5.99239">
        <ele>1281.4449462891</ele>
        <time>2017-12-06T10:34:17Z</time>
      </trkpt>
      <trkpt lat="45.22872" lon="5.99228">
        <ele>1280.4449462891</ele>
        <time>2017-12-06T10:34:19Z</time>
      </trkpt>
      <trkpt lat="45.2288" lon="5.99216">
        <ele>1277.4449462891</ele>
        <time>2017-12-06T10:34:21Z</time>
      </trkpt>
      <trkpt lat="45.22889" lon="5.99205">
        <ele>1277.4449462891</ele>
        <time>2017-12-06T10:34:23Z</time>
      </trkpt>
      <trkpt lat="45.22897" lon="5.99194">
        <ele>1275.4449462891</ele>
        <time>2017-12-06T10:34:25Z</time>
      </trkpt>
      <trkpt lat="45.22905" lon="5.99182">
        <ele>1275.4449462891</ele>
        <time>2017-12-06T10:34:27Z</time>
      </trkpt>
      <trkpt lat="45.22914" lon="5.99172">
        <ele>1273.4449462891</ele>
        <time>2017-12-06T10:34:29Z</time>
      </trkpt>
      <trkpt lat="45.22925" lon="5.99164">
        <ele>1273.4449462891</ele>
        <time>2017-12-06T10:34:31Z</time>
      </trkpt>
      <trkpt lat="45.22938" lon="5.99162">
        <ele>1272.4449462891</ele>
        <time>2017-12-06T10:34:33Z</time>
      </trkpt>
      <trkpt lat="45.22952" lon="5.99164">
        <ele>1271.4449462891</ele>
        <time>2017-12-06T10:34:35Z</time>
      </trkpt>
      <trkpt lat="45.22967" lon="5.99162">
        <ele>1270.4449462891</ele>
        <time>2017-12-06T10:34:37Z</time>
      </trkpt>
      <trkpt lat="45.22981" lon="5.99159">
        <ele>1266.4449462891</ele>
        <time>2017-12-06T10:34:39Z</time>
      </trkpt>
      <trkpt lat="45.22994" lon="5.99152">
        <ele>1266.4449462891</ele>
        <time>2017-12-06T10:34:41Z</time>
      </trkpt>
      <trkpt lat="45.23005" lon="5.99148">
        <ele>1262.4449462891</ele>
        <time>2017-12-06T10:34:43Z</time>
      </trkpt>
      <trkpt lat="45.23016" lon="5.99142">
        <ele>1262.4449462891</ele>
        <time>2017-12-06T10:34:45Z</time>
      </trkpt>
      <trkpt lat="45.23026" lon="5.99139">
        <ele>1258.4449462891</ele>
        <time>2017-12-06T10:34:47Z</time>
      </trkpt>
      <trkpt lat="45.23037" lon="5.99136">
        <ele>1258.4449462891</ele>
        <time>2017-12-06T10:34:49Z</time>
      </trkpt>
      <trkpt lat="45.23047" lon="5.99133">
        <ele>1256.4449462891</ele>
        <time>2017-12-06T10:34:51Z</time>
      </trkpt>
      <trkpt lat="45.23057" lon="5.99129">
        <ele>1258.4449462891</ele>
        <time>2017-12-06T10:34:53Z</time>
      </trkpt>
      <trkpt lat="45.23067" lon="5.99124">
        <ele>1257.4449462891</ele>
        <time>2017-12-06T10:34:55Z</time>
      </trkpt>
      <trkpt lat="45.23077" lon="5.99121">
        <ele>1256.4449462891</ele>
        <time>2017-12-06T10:34:57Z</time>
      </trkpt>
      <trkpt lat="45.23091" lon="5.99113">
        <ele>1252.4449462891</ele>
        <time>2017-12-06T10:35:00Z</time>
      </trkpt>
      <trkpt lat="45.231" lon="5.99109">
        <ele>1252.4449462891</ele>
        <time>2017-12-06T10:35:02Z</time>
      </trkpt>
      <trkpt lat="45.23109" lon="5.99102">
        <ele>1252.4449462891</ele>
        <time>2017-12-06T10:35:04Z</time>
      </trkpt>
      <trkpt lat="45.2312" lon="5.99095">
        <ele>1251.4449462891</ele>
        <time>2017-12-06T10:35:06Z</time>
      </trkpt>
      <trkpt lat="45.2313" lon="5.99086">
        <ele>1249.4449462891</ele>
        <time>2017-12-06T10:35:08Z</time>
      </trkpt>
      <trkpt lat="45.23136" lon="5.99072">
        <ele>1250.4449462891</ele>
        <time>2017-12-06T10:35:10Z</time>
      </trkpt>
      <trkpt lat="45.23143" lon="5.99058">
        <ele>1249.4449462891</ele>
        <time>2017-12-06T10:35:12Z</time>
      </trkpt>
      <trkpt lat="45.23146" lon="5.99043">
        <ele>1248.4449462891</ele>
        <time>2017-12-06T10:35:14Z</time>
      </trkpt>
      <trkpt lat="45.23151" lon="5.99029">
        <ele>1248.4449462891</ele>
        <time>2017-12-06T10:35:16Z</time>
      </trkpt>
      <trkpt lat="45.23154" lon="5.99015">
        <ele>1248.4449462891</ele>
        <time>2017-12-06T10:35:18Z</time>
      </trkpt>
      <trkpt lat="45.23159" lon="5.99">
        <ele>1246.4449462891</ele>
        <time>2017-12-06T10:35:20Z</time>
      </trkpt>
      <trkpt lat="45.23165" lon="5.98987">
        <ele>1246.4449462891</ele>
        <time>2017-12-06T10:35:22Z</time>
      </trkpt>
      <trkpt lat="45.23172" lon="5.98973">
        <ele>1245.4449462891</ele>
        <time>2017-12-06T10:35:24Z</time>
      </trkpt>
      <trkpt lat="45.23176" lon="5.98962">
        <ele>1243.4449462891</ele>
        <time>2017-12-06T10:35:26Z</time>
      </trkpt>
      <trkpt lat="45.23184" lon="5.9895">
        <ele>1241.4449462891</ele>
        <time>2017-12-06T10:35:28Z</time>
      </trkpt>
      <trkpt lat="45.23189" lon="5.98939">
        <ele>1238.4449462891</ele>
        <time>2017-12-06T10:35:30Z</time>
      </trkpt>
      <trkpt lat="45.23195" lon="5.98925">
        <ele>1237.4449462891</ele>
        <time>2017-12-06T10:35:32Z</time>
      </trkpt>
      <trkpt lat="45.23202" lon="5.98914">
        <ele>1236.4449462891</ele>
        <time>2017-12-06T10:35:34Z</time>
      </trkpt>
      <trkpt lat="45.23209" lon="5.98904">
        <ele>1235.4449462891</ele>
        <time>2017-12-06T10:35:36Z</time>
      </trkpt>
      <trkpt lat="45.23218" lon="5.98893">
        <ele>1234.4449462891</ele>
        <time>2017-12-06T10:35:38Z</time>
      </trkpt>
      <trkpt lat="45.23228" lon="5.98887">
        <ele>1233.4449462891</ele>
        <time>2017-12-06T10:35:40Z</time>
      </trkpt>
      <trkpt lat="45.23238" lon="5.98883">
        <ele>1232.4449462891</ele>
        <time>2017-12-06T10:35:42Z</time>
      </trkpt>
      <trkpt lat="45.23248" lon="5.98878">
        <ele>1231.4449462891</ele>
        <time>2017-12-06T10:35:44Z</time>
      </trkpt>
      <trkpt lat="45.23259" lon="5.98876">
        <ele>1230.4449462891</ele>
        <time>2017-12-06T10:35:46Z</time>
      </trkpt>
      <trkpt lat="45.2327" lon="5.98873">
        <ele>1229.4449462891</ele>
        <time>2017-12-06T10:35:48Z</time>
      </trkpt>
      <trkpt lat="45.23279" lon="5.9887">
        <ele>1228.4449462891</ele>
        <time>2017-12-06T10:35:50Z</time>
      </trkpt>
      <trkpt lat="45.23288" lon="5.98865">
        <ele>1226.4449462891</ele>
        <time>2017-12-06T10:35:52Z</time>
      </trkpt>
      <trkpt lat="45.23299" lon="5.98861">
        <ele>1224.4449462891</ele>
        <time>2017-12-06T10:35:54Z</time>
      </trkpt>
      <trkpt lat="45.23309" lon="5.98851">
        <ele>1221.4449462891</ele>
        <time>2017-12-06T10:35:56Z</time>
      </trkpt>
      <trkpt lat="45.23319" lon="5.98843">
        <ele>1220.4449462891</ele>
        <time>2017-12-06T10:35:58Z</time>
      </trkpt>
      <trkpt lat="45.2333" lon="5.98833">
        <ele>1218.4449462891</ele>
        <time>2017-12-06T10:36:00Z</time>
      </trkpt>
      <trkpt lat="45.23349" lon="5.98818">
        <ele>1216.4449462891</ele>
        <time>2017-12-06T10:36:03Z</time>
      </trkpt>
      <trkpt lat="45.23363" lon="5.98807">
        <ele>1213.4449462891</ele>
        <time>2017-12-06T10:36:05Z</time>
      </trkpt>
      <trkpt lat="45.23377" lon="5.98796">
        <ele>1211.4449462891</ele>
        <time>2017-12-06T10:36:07Z</time>
      </trkpt>
      <trkpt lat="45.23392" lon="5.98787">
        <ele>1210.4449462891</ele>
        <time>2017-12-06T10:36:09Z</time>
      </trkpt>
      <trkpt lat="45.23404" lon="5.98776">
        <ele>1208.4449462891</ele>
        <time>2017-12-06T10:36:11Z</time>
      </trkpt>
      <trkpt lat="45.2342" lon="5.98759">
        <ele>1206.4449462891</ele>
        <time>2017-12-06T10:36:14Z</time>
      </trkpt>
      <trkpt lat="45.23429" lon="5.98746">
        <ele>1204.4449462891</ele>
        <time>2017-12-06T10:36:16Z</time>
      </trkpt>
      <trkpt lat="45.23437" lon="5.98732">
        <ele>1203.4449462891</ele>
        <time>2017-12-06T10:36:18Z</time>
      </trkpt>
      <trkpt lat="45.23444" lon="5.9872">
        <ele>1203.4449462891</ele>
        <time>2017-12-06T10:36:20Z</time>
      </trkpt>
      <trkpt lat="45.23453" lon="5.98705">
        <ele>1203.4449462891</ele>
        <time>2017-12-06T10:36:22Z</time>
      </trkpt>
      <trkpt lat="45.23461" lon="5.98696">
        <ele>1200.4449462891</ele>
        <time>2017-12-06T10:36:24Z</time>
      </trkpt>
      <trkpt lat="45.23467" lon="5.98686">
        <ele>1199.4449462891</ele>
        <time>2017-12-06T10:36:26Z</time>
      </trkpt>
      <trkpt lat="45.23474" lon="5.98672">
        <ele>1198.4449462891</ele>
        <time>2017-12-06T10:36:28Z</time>
      </trkpt>
      <trkpt lat="45.23482" lon="5.98658">
        <ele>1199.4449462891</ele>
        <time>2017-12-06T10:36:30Z</time>
      </trkpt>
      <trkpt lat="45.23491" lon="5.98644">
        <ele>1198.4449462891</ele>
        <time>2017-12-06T10:36:32Z</time>
      </trkpt>
      <trkpt lat="45.23499" lon="5.9863">
        <ele>1196.4449462891</ele>
        <time>2017-12-06T10:36:34Z</time>
      </trkpt>
      <trkpt lat="45.23503" lon="5.9862">
        <ele>1196.4449462891</ele>
        <time>2017-12-06T10:36:35Z</time>
      </trkpt>
      <trkpt lat="45.23509" lon="5.98608">
        <ele>1196.4449462891</ele>
        <time>2017-12-06T10:36:37Z</time>
      </trkpt>
      <trkpt lat="45.23516" lon="5.98594">
        <ele>1196.4449462891</ele>
        <time>2017-12-06T10:36:39Z</time>
      </trkpt>
      <trkpt lat="45.2352" lon="5.98589">
        <ele>1194.4449462891</ele>
        <time>2017-12-06T10:36:40Z</time>
      </trkpt>
      <trkpt lat="45.23529" lon="5.98581">
        <ele>1195.4449462891</ele>
        <time>2017-12-06T10:36:42Z</time>
      </trkpt>
      <trkpt lat="45.23534" lon="5.9857">
        <ele>1192.4449462891</ele>
        <time>2017-12-06T10:36:44Z</time>
      </trkpt>
      <trkpt lat="45.23542" lon="5.98557">
        <ele>1188.4449462891</ele>
        <time>2017-12-06T10:36:46Z</time>
      </trkpt>
      <trkpt lat="45.23555" lon="5.98549">
        <ele>1186.4449462891</ele>
        <time>2017-12-06T10:36:48Z</time>
      </trkpt>
      <trkpt lat="45.23568" lon="5.98541">
        <ele>1182.4449462891</ele>
        <time>2017-12-06T10:36:50Z</time>
      </trkpt>
      <trkpt lat="45.23579" lon="5.98531">
        <ele>1178.4449462891</ele>
        <time>2017-12-06T10:36:52Z</time>
      </trkpt>
      <trkpt lat="45.23584" lon="5.98528">
        <ele>1179.4449462891</ele>
        <time>2017-12-06T10:36:53Z</time>
      </trkpt>
      <trkpt lat="45.23593" lon="5.98523">
        <ele>1176.4449462891</ele>
        <time>2017-12-06T10:36:55Z</time>
      </trkpt>
      <trkpt lat="45.23605" lon="5.98517">
        <ele>1173.4449462891</ele>
        <time>2017-12-06T10:36:57Z</time>
      </trkpt>
      <trkpt lat="45.23615" lon="5.98511">
        <ele>1173.4449462891</ele>
        <time>2017-12-06T10:36:59Z</time>
      </trkpt>
      <trkpt lat="45.23622" lon="5.98504">
        <ele>1175.4449462891</ele>
        <time>2017-12-06T10:37:01Z</time>
      </trkpt>
      <trkpt lat="45.23635" lon="5.98497">
        <ele>1173.4449462891</ele>
        <time>2017-12-06T10:37:04Z</time>
      </trkpt>
      <trkpt lat="45.23639" lon="5.98492">
        <ele>1172.4449462891</ele>
        <time>2017-12-06T10:37:05Z</time>
      </trkpt>
      <trkpt lat="45.23645" lon="5.98487">
        <ele>1172.4449462891</ele>
        <time>2017-12-06T10:37:07Z</time>
      </trkpt>
      <trkpt lat="45.23654" lon="5.98487">
        <ele>1172.4449462891</ele>
        <time>2017-12-06T10:37:09Z</time>
      </trkpt>
      <trkpt lat="45.23662" lon="5.98489">
        <ele>1172.4449462891</ele>
        <time>2017-12-06T10:37:11Z</time>
      </trkpt>
      <trkpt lat="45.23666" lon="5.98492">
        <ele>1173.4449462891</ele>
        <time>2017-12-06T10:37:12Z</time>
      </trkpt>
      <trkpt lat="45.23677" lon="5.98494">
        <ele>1174.4449462891</ele>
        <time>2017-12-06T10:37:14Z</time>
      </trkpt>
      <trkpt lat="45.23688" lon="5.98494">
        <ele>1169.4449462891</ele>
        <time>2017-12-06T10:37:16Z</time>
      </trkpt>
      <trkpt lat="45.23705" lon="5.98494">
        <ele>1165.4449462891</ele>
        <time>2017-12-06T10:37:18Z</time>
      </trkpt>
      <trkpt lat="45.23717" lon="5.98492">
        <ele>1165.4449462891</ele>
        <time>2017-12-06T10:37:20Z</time>
      </trkpt>
      <trkpt lat="45.23726" lon="5.98483">
        <ele>1164.4449462891</ele>
        <time>2017-12-06T10:37:22Z</time>
      </trkpt>
      <trkpt lat="45.23738" lon="5.98473">
        <ele>1163.4449462891</ele>
        <time>2017-12-06T10:37:24Z</time>
      </trkpt>
      <trkpt lat="45.23744" lon="5.98465">
        <ele>1162.4449462891</ele>
        <time>2017-12-06T10:37:25Z</time>
      </trkpt>
      <trkpt lat="45.23756" lon="5.98451">
        <ele>1164.4449462891</ele>
        <time>2017-12-06T10:37:27Z</time>
      </trkpt>
      <trkpt lat="45.23763" lon="5.98446">
        <ele>1163.4449462891</ele>
        <time>2017-12-06T10:37:28Z</time>
      </trkpt>
      <trkpt lat="45.23777" lon="5.98439">
        <ele>1158.4449462891</ele>
        <time>2017-12-06T10:37:30Z</time>
      </trkpt>
      <trkpt lat="45.23791" lon="5.98433">
        <ele>1159.4449462891</ele>
        <time>2017-12-06T10:37:32Z</time>
      </trkpt>
      <trkpt lat="45.23798" lon="5.98432">
        <ele>1159.4449462891</ele>
        <time>2017-12-06T10:37:33Z</time>
      </trkpt>
      <trkpt lat="45.23811" lon="5.98433">
        <ele>1155.4449462891</ele>
        <time>2017-12-06T10:37:35Z</time>
      </trkpt>
      <trkpt lat="45.23823" lon="5.98435">
        <ele>1155.4449462891</ele>
        <time>2017-12-06T10:37:37Z</time>
      </trkpt>
      <trkpt lat="45.23835" lon="5.98436">
        <ele>1153.4460449219</ele>
        <time>2017-12-06T10:37:39Z</time>
      </trkpt>
      <trkpt lat="45.23849" lon="5.98439">
        <ele>1153.4460449219</ele>
        <time>2017-12-06T10:37:41Z</time>
      </trkpt>
      <trkpt lat="45.2386" lon="5.98441">
        <ele>1153.4460449219</ele>
        <time>2017-12-06T10:37:43Z</time>
      </trkpt>
      <trkpt lat="45.23865" lon="5.98441">
        <ele>1153.4460449219</ele>
        <time>2017-12-06T10:37:44Z</time>
      </trkpt>
      <trkpt lat="45.23876" lon="5.98439">
        <ele>1155.4460449219</ele>
        <time>2017-12-06T10:37:46Z</time>
      </trkpt>
      <trkpt lat="45.23887" lon="5.98435">
        <ele>1156.4460449219</ele>
        <time>2017-12-06T10:37:48Z</time>
      </trkpt>
      <trkpt lat="45.23899" lon="5.98423">
        <ele>1153.4460449219</ele>
        <time>2017-12-06T10:37:50Z</time>
      </trkpt>
      <trkpt lat="45.23901" lon="5.98405">
        <ele>1151.4460449219</ele>
        <time>2017-12-06T10:37:52Z</time>
      </trkpt>
      <trkpt lat="45.23906" lon="5.98387">
        <ele>1149.4460449219</ele>
        <time>2017-12-06T10:37:54Z</time>
      </trkpt>
      <trkpt lat="45.23913" lon="5.98374">
        <ele>1147.4460449219</ele>
        <time>2017-12-06T10:37:56Z</time>
      </trkpt>
      <trkpt lat="45.23926" lon="5.98364">
        <ele>1145.4460449219</ele>
        <time>2017-12-06T10:37:58Z</time>
      </trkpt>
      <trkpt lat="45.23935" lon="5.98354">
        <ele>1141.4460449219</ele>
        <time>2017-12-06T10:38:00Z</time>
      </trkpt>
      <trkpt lat="45.23943" lon="5.98349">
        <ele>1138.4460449219</ele>
        <time>2017-12-06T10:38:01Z</time>
      </trkpt>
      <trkpt lat="45.23953" lon="5.98338">
        <ele>1138.4460449219</ele>
        <time>2017-12-06T10:38:03Z</time>
      </trkpt>
      <trkpt lat="45.23961" lon="5.98332">
        <ele>1136.4460449219</ele>
        <time>2017-12-06T10:38:04Z</time>
      </trkpt>
      <trkpt lat="45.23974" lon="5.98321">
        <ele>1133.4460449219</ele>
        <time>2017-12-06T10:38:06Z</time>
      </trkpt>
      <trkpt lat="45.23986" lon="5.98312">
        <ele>1133.4460449219</ele>
        <time>2017-12-06T10:38:08Z</time>
      </trkpt>
      <trkpt lat="45.24002" lon="5.98301">
        <ele>1132.4460449219</ele>
        <time>2017-12-06T10:38:10Z</time>
      </trkpt>
      <trkpt lat="45.24015" lon="5.98304">
        <ele>1130.4460449219</ele>
        <time>2017-12-06T10:38:12Z</time>
      </trkpt>
      <trkpt lat="45.24023" lon="5.98303">
        <ele>1132.4460449219</ele>
        <time>2017-12-06T10:38:13Z</time>
      </trkpt>
      <trkpt lat="45.24029" lon="5.98305">
        <ele>1131.4460449219</ele>
        <time>2017-12-06T10:38:14Z</time>
      </trkpt>
      <trkpt lat="45.24044" lon="5.98302">
        <ele>1127.4460449219</ele>
        <time>2017-12-06T10:38:16Z</time>
      </trkpt>
      <trkpt lat="45.24058" lon="5.98293">
        <ele>1123.4460449219</ele>
        <time>2017-12-06T10:38:18Z</time>
      </trkpt>
      <trkpt lat="45.24071" lon="5.98279">
        <ele>1123.4460449219</ele>
        <time>2017-12-06T10:38:20Z</time>
      </trkpt>
      <trkpt lat="45.24079" lon="5.98261">
        <ele>1124.4460449219</ele>
        <time>2017-12-06T10:38:22Z</time>
      </trkpt>
      <trkpt lat="45.24085" lon="5.9825">
        <ele>1127.4460449219</ele>
        <time>2017-12-06T10:38:23Z</time>
      </trkpt>
      <trkpt lat="45.2409" lon="5.98228">
        <ele>1124.4460449219</ele>
        <time>2017-12-06T10:38:25Z</time>
      </trkpt>
      <trkpt lat="45.24091" lon="5.98218">
        <ele>1123.4460449219</ele>
        <time>2017-12-06T10:38:26Z</time>
      </trkpt>
      <trkpt lat="45.24094" lon="5.98198">
        <ele>1122.4460449219</ele>
        <time>2017-12-06T10:38:28Z</time>
      </trkpt>
      <trkpt lat="45.24094" lon="5.98178">
        <ele>1121.4460449219</ele>
        <time>2017-12-06T10:38:30Z</time>
      </trkpt>
      <trkpt lat="45.24099" lon="5.98159">
        <ele>1120.4460449219</ele>
        <time>2017-12-06T10:38:32Z</time>
      </trkpt>
      <trkpt lat="45.24107" lon="5.98142">
        <ele>1118.4460449219</ele>
        <time>2017-12-06T10:38:34Z</time>
      </trkpt>
      <trkpt lat="45.24117" lon="5.98127">
        <ele>1118.4460449219</ele>
        <time>2017-12-06T10:38:36Z</time>
      </trkpt>
      <trkpt lat="45.24129" lon="5.98118">
        <ele>1118.4460449219</ele>
        <time>2017-12-06T10:38:38Z</time>
      </trkpt>
      <trkpt lat="45.2414" lon="5.98112">
        <ele>1118.4460449219</ele>
        <time>2017-12-06T10:38:40Z</time>
      </trkpt>
      <trkpt lat="45.24152" lon="5.98107">
        <ele>1113.4460449219</ele>
        <time>2017-12-06T10:38:42Z</time>
      </trkpt>
      <trkpt lat="45.24161" lon="5.98096">
        <ele>1111.4460449219</ele>
        <time>2017-12-06T10:38:44Z</time>
      </trkpt>
      <trkpt lat="45.24171" lon="5.98083">
        <ele>1111.4460449219</ele>
        <time>2017-12-06T10:38:46Z</time>
      </trkpt>
      <trkpt lat="45.24181" lon="5.98069">
        <ele>1107.4460449219</ele>
        <time>2017-12-06T10:38:48Z</time>
      </trkpt>
      <trkpt lat="45.24189" lon="5.9806">
        <ele>1104.4460449219</ele>
        <time>2017-12-06T10:38:50Z</time>
      </trkpt>
      <trkpt lat="45.24196" lon="5.98051">
        <ele>1102.4460449219</ele>
        <time>2017-12-06T10:38:52Z</time>
      </trkpt>
      <trkpt lat="45.24206" lon="5.98039">
        <ele>1098.4460449219</ele>
        <time>2017-12-06T10:38:54Z</time>
      </trkpt>
      <trkpt lat="45.24217" lon="5.98033">
        <ele>1097.4460449219</ele>
        <time>2017-12-06T10:38:56Z</time>
      </trkpt>
      <trkpt lat="45.24223" lon="5.98029">
        <ele>1098.4460449219</ele>
        <time>2017-12-06T10:38:58Z</time>
      </trkpt>
      <trkpt lat="45.24233" lon="5.98025">
        <ele>1097.4460449219</ele>
        <time>2017-12-06T10:39:00Z</time>
      </trkpt>
      <trkpt lat="45.24241" lon="5.9802">
        <ele>1098.4460449219</ele>
        <time>2017-12-06T10:39:02Z</time>
      </trkpt>
      <trkpt lat="45.24253" lon="5.98015">
        <ele>1097.4460449219</ele>
        <time>2017-12-06T10:39:05Z</time>
      </trkpt>
      <trkpt lat="45.24261" lon="5.98011">
        <ele>1097.4460449219</ele>
        <time>2017-12-06T10:39:07Z</time>
      </trkpt>
      <trkpt lat="45.24269" lon="5.98008">
        <ele>1094.4460449219</ele>
        <time>2017-12-06T10:39:09Z</time>
      </trkpt>
      <trkpt lat="45.24278" lon="5.98004">
        <ele>1093.4460449219</ele>
        <time>2017-12-06T10:39:11Z</time>
      </trkpt>
      <trkpt lat="45.24287" lon="5.98">
        <ele>1092.4460449219</ele>
        <time>2017-12-06T10:39:13Z</time>
      </trkpt>
      <trkpt lat="45.24295" lon="5.97996">
        <ele>1092.4460449219</ele>
        <time>2017-12-06T10:39:15Z</time>
      </trkpt>
      <trkpt lat="45.24308" lon="5.97991">
        <ele>1091.4460449219</ele>
        <time>2017-12-06T10:39:18Z</time>
      </trkpt>
      <trkpt lat="45.24317" lon="5.97985">
        <ele>1091.4460449219</ele>
        <time>2017-12-06T10:39:20Z</time>
      </trkpt>
      <trkpt lat="45.24326" lon="5.9798">
        <ele>1090.4460449219</ele>
        <time>2017-12-06T10:39:22Z</time>
      </trkpt>
      <trkpt lat="45.24333" lon="5.97976">
        <ele>1091.4460449219</ele>
        <time>2017-12-06T10:39:24Z</time>
      </trkpt>
      <trkpt lat="45.24338" lon="5.97974">
        <ele>1091.4460449219</ele>
        <time>2017-12-06T10:39:26Z</time>
      </trkpt>
      <trkpt lat="45.24343" lon="5.97971">
        <ele>1091.4460449219</ele>
        <time>2017-12-06T10:39:29Z</time>
      </trkpt>
      <trkpt lat="45.24349" lon="5.97972">
        <ele>1090.4460449219</ele>
        <time>2017-12-06T10:39:33Z</time>
      </trkpt>
      <trkpt lat="45.24353" lon="5.97975">
        <ele>1085.4460449219</ele>
        <time>2017-12-06T10:39:58Z</time>
      </trkpt>
    </trkseg>
  </trk>
</gpx>